Wetterdaten: Montag, 25.05.2020
Datum Zeit Temp. 2m Temp +5 cm Feuchte A. Luftdruck Regen Wind Richtung Richtung Sonnenschein UV Solar Taupunkt Windchill Windben
25.05.2020 00:00 10,5 C 10,0 C 91 % 1034,1 hPa 0,0 l/m 4,8 km/h (1 Bft) W 270 0 min 0,0 UV-I 0 W/m 9,1 C 10,5 C 8,0 km/h (2 Bft)
25.05.2020 00:01 10,5 C 10,0 C 91 % 1034,2 hPa 0,0 l/m 3,2 km/h (1 Bft) W-SW 247 0 min 0,0 UV-I 0 W/m 9,1 C 10,5 C 6,4 km/h (2 Bft)
25.05.2020 00:02 10,5 C 10,0 C 91 % 1034,2 hPa 0,0 l/m 3,2 km/h (1 Bft) W-SW 247 0 min 0,0 UV-I 0 W/m 9,1 C 10,5 C 4,8 km/h (1 Bft)
25.05.2020 00:03 10,6 C 10,0 C 91 % 1034,2 hPa 0,0 l/m 6,4 km/h (2 Bft) W 270 0 min 0,0 UV-I 0 W/m 9,2 C 10,6 C 11,3 km/h (2 Bft)
25.05.2020 00:04 10,5 C 10,0 C 91 % 1034,2 hPa 0,0 l/m 4,8 km/h (1 Bft) W-SW 247 0 min 0,0 UV-I 0 W/m 9,1 C 10,5 C 6,4 km/h (2 Bft)
25.05.2020 00:05 10,5 C 10,0 C 91 % 1034,2 hPa 0,0 l/m 4,8 km/h (1 Bft) W-SW 247 0 min 0,0 UV-I 0 W/m 9,1 C 10,5 C 8,0 km/h (2 Bft)
25.05.2020 00:06 10,5 C 10,0 C 91 % 1034,1 hPa 0,0 l/m 6,4 km/h (2 Bft) W-SW 247 0 min 0,0 UV-I 0 W/m 9,1 C 10,5 C 9,7 km/h (2 Bft)
25.05.2020 00:07 10,5 C 10,0 C 91 % 1034,0 hPa 0,0 l/m 3,2 km/h (1 Bft) W-SW 247 0 min 0,0 UV-I 0 W/m 9,1 C 10,5 C 4,8 km/h (1 Bft)
25.05.2020 00:08 10,5 C 10,0 C 91 % 1034,0 hPa 0,0 l/m 4,8 km/h (1 Bft) W-SW 247 0 min 0,0 UV-I 0 W/m 9,1 C 10,5 C 6,4 km/h (2 Bft)
25.05.2020 00:09 10,5 C 10,0 C 91 % 1034,1 hPa 0,0 l/m 3,2 km/h (1 Bft) SW 225 0 min 0,0 UV-I 0 W/m 9,1 C 10,5 C 6,4 km/h (2 Bft)
25.05.2020 00:10 10,5 C 10,0 C 91 % 1033,9 hPa 0,0 l/m 4,8 km/h (1 Bft) SW 225 0 min 0,0 UV-I 0 W/m 9,1 C 10,5 C 6,4 km/h (2 Bft)
25.05.2020 00:11 10,5 C 10,0 C 91 % 1034,0 hPa 0,0 l/m 3,2 km/h (1 Bft) SW 225 0 min 0,0 UV-I 0 W/m 9,1 C 10,5 C 6,4 km/h (2 Bft)
25.05.2020 00:12 10,4 C 10,0 C 91 % 1033,9 hPa 0,0 l/m 3,2 km/h (1 Bft) W-SW 247 0 min 0,0 UV-I 0 W/m 9,0 C 10,4 C 4,8 km/h (1 Bft)
25.05.2020 00:13 10,4 C 10,0 C 91 % 1034,0 hPa 0,0 l/m 3,2 km/h (1 Bft) W-SW 247 0 min 0,0 UV-I 0 W/m 9,0 C 10,4 C 4,8 km/h (1 Bft)
25.05.2020 00:14 10,4 C 10,0 C 91 % 1033,9 hPa 0,0 l/m 3,2 km/h (1 Bft) W-SW 247 0 min 0,0 UV-I 0 W/m 9,0 C 10,4 C 4,8 km/h (1 Bft)
25.05.2020 00:15 10,4 C 10,0 C 91 % 1034,0 hPa 0,0 l/m 4,8 km/h (1 Bft) W-SW 247 0 min 0,0 UV-I 0 W/m 9,0 C 10,4 C 9,7 km/h (2 Bft)
25.05.2020 00:16 10,4 C 9,4 C 91 % 1033,9 hPa 0,0 l/m 3,2 km/h (1 Bft) W-SW 247 0 min 0,0 UV-I 0 W/m 9,0 C 10,4 C 6,4 km/h (2 Bft)
25.05.2020 00:17 10,4 C 9,4 C 91 % 1033,8 hPa 0,0 l/m 4,8 km/h (1 Bft) SW 225 0 min 0,0 UV-I 0 W/m 9,0 C 10,4 C 6,4 km/h (2 Bft)
25.05.2020 00:18 10,4 C 9,4 C 91 % 1033,8 hPa 0,0 l/m 1,6 km/h (1 Bft) SW 225 0 min 0,0 UV-I 0 W/m 9,0 C 10,4 C 3,2 km/h (1 Bft)
25.05.2020 00:19 10,4 C 9,4 C 91 % 1033,9 hPa 0,0 l/m 1,6 km/h (1 Bft) SW 225 0 min 0,0 UV-I 0 W/m 9,0 C 10,4 C 4,8 km/h (1 Bft)
25.05.2020 00:20 10,3 C 9,4 C 91 % 1034,0 hPa 0,0 l/m 4,8 km/h (1 Bft) W-SW 247 0 min 0,0 UV-I 0 W/m 8,9 C 10,3 C 4,8 km/h (1 Bft)
25.05.2020 00:21 10,3 C 9,4 C 91 % 1034,0 hPa 0,0 l/m 8,0 km/h (2 Bft) W 270 0 min 0,0 UV-I 0 W/m 8,9 C 9,2 C 11,3 km/h (2 Bft)
25.05.2020 00:22 10,3 C 9,4 C 91 % 1034,1 hPa 0,0 l/m 8,0 km/h (2 Bft) W-SW 247 0 min 0,0 UV-I 0 W/m 8,9 C 9,2 C 11,3 km/h (2 Bft)
25.05.2020 00:23 10,3 C 9,4 C 91 % 1034,0 hPa 0,0 l/m 8,0 km/h (2 Bft) W-SW 247 0 min 0,0 UV-I 0 W/m 8,9 C 9,2 C 11,3 km/h (2 Bft)
25.05.2020 00:24 10,2 C 9,4 C 91 % 1034,1 hPa 0,0 l/m 4,8 km/h (1 Bft) SW 225 0 min 0,0 UV-I 0 W/m 8,8 C 10,2 C 6,4 km/h (2 Bft)
25.05.2020 00:25 10,2 C 9,4 C 91 % 1034,0 hPa 0,0 l/m 6,4 km/h (2 Bft) SW 225 0 min 0,0 UV-I 0 W/m 8,8 C 10,2 C 9,7 km/h (2 Bft)
25.05.2020 00:26 10,2 C 9,4 C 91 % 1033,9 hPa 0,0 l/m 3,2 km/h (1 Bft) SW 225 0 min 0,0 UV-I 0 W/m 8,8 C 10,2 C 6,4 km/h (2 Bft)
25.05.2020 00:27 10,2 C 9,4 C 91 % 1034,0 hPa 0,0 l/m 4,8 km/h (1 Bft) W-SW 247 0 min 0,0 UV-I 0 W/m 8,8 C 10,2 C 6,4 km/h (2 Bft)
25.05.2020 00:28 10,2 C 8,9 C 91 % 1034,0 hPa 0,0 l/m 4,8 km/h (1 Bft) W-SW 247 0 min 0,0 UV-I 0 W/m 8,8 C 10,2 C 6,4 km/h (2 Bft)
25.05.2020 00:29 10,1 C 8,9 C 91 % 1033,9 hPa 0,0 l/m 4,8 km/h (1 Bft) W-SW 247 0 min 0,0 UV-I 0 W/m 8,7 C 10,1 C 6,4 km/h (2 Bft)
25.05.2020 00:30 10,1 C 8,9 C 91 % 1034,0 hPa 0,0 l/m 4,8 km/h (1 Bft) W-SW 247 0 min 0,0 UV-I 0 W/m 8,7 C 10,1 C 6,4 km/h (2 Bft)
25.05.2020 00:31 10,1 C 8,9 C 91 % 1034,0 hPa 0,0 l/m 4,8 km/h (1 Bft) SW 225 0 min 0,0 UV-I 0 W/m 8,7 C 10,1 C 8,0 km/h (2 Bft)
25.05.2020 00:32 10,1 C 8,9 C 91 % 1034,0 hPa 0,0 l/m 4,8 km/h (1 Bft) W 270 0 min 0,0 UV-I 0 W/m 8,7 C 10,1 C 8,0 km/h (2 Bft)
25.05.2020 00:33 10,1 C 8,9 C 91 % 1034,0 hPa 0,0 l/m 6,4 km/h (2 Bft) W 270 0 min 0,0 UV-I 0 W/m 8,7 C 10,1 C 11,3 km/h (2 Bft)
25.05.2020 00:34 10,1 C 8,9 C 91 % 1034,0 hPa 0,0 l/m 4,8 km/h (1 Bft) W-SW 247 0 min 0,0 UV-I 0 W/m 8,7 C 10,1 C 6,4 km/h (2 Bft)
25.05.2020 00:35 10,1 C 8,9 C 91 % 1034,0 hPa 0,0 l/m 3,2 km/h (1 Bft) W-SW 247 0 min 0,0 UV-I 0 W/m 8,7 C 10,1 C 4,8 km/h (1 Bft)
25.05.2020 00:36 10,1 C 8,9 C 91 % 1033,9 hPa 0,0 l/m 6,4 km/h (2 Bft) W 270 0 min 0,0 UV-I 0 W/m 8,7 C 10,1 C 11,3 km/h (2 Bft)
25.05.2020 00:37 10,1 C 8,9 C 91 % 1034,0 hPa 0,0 l/m 8,0 km/h (2 Bft) SW 225 0 min 0,0 UV-I 0 W/m 8,7 C 9,0 C 12,9 km/h (3 Bft)
25.05.2020 00:38 10,1 C 9,4 C 91 % 1034,0 hPa 0,0 l/m 9,7 km/h (2 Bft) W 270 0 min 0,0 UV-I 0 W/m 8,7 C 7,9 C 12,9 km/h (3 Bft)
25.05.2020 00:39 10,1 C 9,4 C 91 % 1034,1 hPa 0,0 l/m 4,8 km/h (1 Bft) SW 225 0 min 0,0 UV-I 0 W/m 8,7 C 10,1 C 6,4 km/h (2 Bft)
25.05.2020 00:40 10,1 C 9,4 C 91 % 1034,0 hPa 0,0 l/m 3,2 km/h (1 Bft) SW 225 0 min 0,0 UV-I 0 W/m 8,7 C 10,1 C 6,4 km/h (2 Bft)
25.05.2020 00:41 10,1 C 9,4 C 91 % 1033,9 hPa 0,0 l/m 4,8 km/h (1 Bft) W-SW 247 0 min 0,0 UV-I 0 W/m 8,7 C 10,1 C 6,4 km/h (2 Bft)
25.05.2020 00:42 10,1 C 8,9 C 91 % 1033,9 hPa 0,0 l/m 6,4 km/h (2 Bft) SW 225 0 min 0,0 UV-I 0 W/m 8,7 C 10,1 C 11,3 km/h (2 Bft)
25.05.2020 00:43 10,1 C 8,9 C 91 % 1033,9 hPa 0,0 l/m 6,4 km/h (2 Bft) W 270 0 min 0,0 UV-I 0 W/m 8,7 C 10,1 C 9,7 km/h (2 Bft)
25.05.2020 00:44 10,1 C 8,9 C 91 % 1033,9 hPa 0,0 l/m 4,8 km/h (1 Bft) W-SW 247 0 min 0,0 UV-I 0 W/m 8,7 C 10,1 C 6,4 km/h (2 Bft)
25.05.2020 00:45 10,1 C 8,9 C 91 % 1033,9 hPa 0,0 l/m 4,8 km/h (1 Bft) SW 225 0 min 0,0 UV-I 0 W/m 8,7 C 10,1 C 6,4 km/h (2 Bft)
25.05.2020 00:46 10,1 C 8,9 C 91 % 1033,9 hPa 0,0 l/m 3,2 km/h (1 Bft) W-SW 247 0 min 0,0 UV-I 0 W/m 8,7 C 10,1 C 4,8 km/h (1 Bft)
25.05.2020 00:47 10,1 C 8,9 C 91 % 1033,9 hPa 0,0 l/m 6,4 km/h (2 Bft) W-SW 247 0 min 0,0 UV-I 0 W/m 8,7 C 10,1 C 6,4 km/h (2 Bft)
25.05.2020 00:48 10,1 C 8,9 C 91 % 1033,8 hPa 0,0 l/m 6,4 km/h (2 Bft) W-SW 247 0 min 0,0 UV-I 0 W/m 8,7 C 10,1 C 11,3 km/h (2 Bft)
25.05.2020 00:49 10,0 C 8,9 C 91 % 1033,8 hPa 0,0 l/m 4,8 km/h (1 Bft) W-SW 247 0 min 0,0 UV-I 0 W/m 8,6 C 10,0 C 6,4 km/h (2 Bft)
25.05.2020 00:50 9,9 C 8,9 C 91 % 1033,8 hPa 0,0 l/m 4,8 km/h (1 Bft) SW 225 0 min 0,0 UV-I 0 W/m 8,5 C 9,9 C 8,0 km/h (2 Bft)
25.05.2020 00:51 9,9 C 8,9 C 91 % 1033,8 hPa 0,0 l/m 6,4 km/h (2 Bft) W-SW 247 0 min 0,0 UV-I 0 W/m 8,5 C 9,9 C 8,0 km/h (2 Bft)
25.05.2020 00:52 9,9 C 8,9 C 91 % 1033,8 hPa 0,0 l/m 4,8 km/h (1 Bft) W-SW 247 0 min 0,0 UV-I 0 W/m 8,5 C 9,9 C 6,4 km/h (2 Bft)
25.05.2020 00:53 9,9 C 8,9 C 91 % 1033,8 hPa 0,0 l/m 4,8 km/h (1 Bft) W-SW 247 0 min 0,0 UV-I 0 W/m 8,5 C 9,9 C 8,0 km/h (2 Bft)
25.05.2020 00:54 9,9 C 8,3 C 91 % 1033,8 hPa 0,0 l/m 4,8 km/h (1 Bft) W-SW 247 0 min 0,0 UV-I 0 W/m 8,5 C 9,9 C 6,4 km/h (2 Bft)
25.05.2020 00:55 9,9 C 8,3 C 91 % 1033,8 hPa 0,0 l/m 4,8 km/h (1 Bft) SW 225 0 min 0,0 UV-I 0 W/m 8,5 C 9,9 C 6,4 km/h (2 Bft)
25.05.2020 00:56 9,8 C 8,3 C 91 % 1033,8 hPa 0,0 l/m 4,8 km/h (1 Bft) SW 225 0 min 0,0 UV-I 0 W/m 8,4 C 9,8 C 6,4 km/h (2 Bft)
25.05.2020 00:57 9,8 C 8,3 C 91 % 1033,6 hPa 0,0 l/m 4,8 km/h (1 Bft) W-SW 247 0 min 0,0 UV-I 0 W/m 8,4 C 9,8 C 6,4 km/h (2 Bft)
25.05.2020 00:58 9,8 C 8,3 C 91 % 1033,8 hPa 0,0 l/m 4,8 km/h (1 Bft) SW 225 0 min 0,0 UV-I 0 W/m 8,4 C 9,8 C 6,4 km/h (2 Bft)
25.05.2020 00:59 9,8 C 8,3 C 91 % 1033,8 hPa 0,0 l/m 3,2 km/h (1 Bft) SW 225 0 min 0,0 UV-I 0 W/m 8,4 C 9,8 C 4,8 km/h (1 Bft)
25.05.2020 01:00 9,7 C 8,3 C 91 % 1033,8 hPa 0,0 l/m 3,2 km/h (1 Bft) SW 225 0 min 0,0 UV-I 0 W/m 8,3 C 9,7 C 6,4 km/h (2 Bft)
25.05.2020 01:01 9,7 C 8,3 C 91 % 1033,8 hPa 0,0 l/m 4,8 km/h (1 Bft) SW 225 0 min 0,0 UV-I 0 W/m 8,3 C 9,7 C 9,7 km/h (2 Bft)
25.05.2020 01:02 9,7 C 8,3 C 91 % 1033,9 hPa 0,0 l/m 4,8 km/h (1 Bft) W-SW 247 0 min 0,0 UV-I 0 W/m 8,3 C 9,7 C 6,4 km/h (2 Bft)
25.05.2020 01:03 9,7 C 8,3 C 91 % 1033,8 hPa 0,0 l/m 4,8 km/h (1 Bft) W-SW 247 0 min 0,0 UV-I 0 W/m 8,3 C 9,7 C 6,4 km/h (2 Bft)
25.05.2020 01:04 9,7 C 8,3 C 91 % 1033,9 hPa 0,0 l/m 6,4 km/h (2 Bft) W-SW 247 0 min 0,0 UV-I 0 W/m 8,3 C 9,7 C 9,7 km/h (2 Bft)
25.05.2020 01:05 9,7 C 8,3 C 91 % 1033,8 hPa 0,0 l/m 6,4 km/h (2 Bft) W-SW 247 0 min 0,0 UV-I 0 W/m 8,3 C 9,7 C 9,7 km/h (2 Bft)
25.05.2020 01:06 9,7 C 8,3 C 91 % 1033,8 hPa 0,0 l/m 4,8 km/h (1 Bft) W-SW 247 0 min 0,0 UV-I 0 W/m 8,3 C 9,7 C 4,8 km/h (1 Bft)
25.05.2020 01:07 9,7 C 8,3 C 91 % 1033,9 hPa 0,0 l/m 4,8 km/h (1 Bft) W-SW 247 0 min 0,0 UV-I 0 W/m 8,3 C 9,7 C 6,4 km/h (2 Bft)
25.05.2020 01:08 9,7 C 8,9 C 91 % 1033,8 hPa 0,0 l/m 6,4 km/h (2 Bft) W 270 0 min 0,0 UV-I 0 W/m 8,3 C 9,7 C 11,3 km/h (2 Bft)
25.05.2020 01:09 9,7 C 8,9 C 91 % 1033,7 hPa 0,0 l/m 4,8 km/h (1 Bft) W-SW 247 0 min 0,0 UV-I 0 W/m 8,3 C 9,7 C 6,4 km/h (2 Bft)
25.05.2020 01:10 9,8 C 8,9 C 91 % 1033,9 hPa 0,0 l/m 3,2 km/h (1 Bft) W-SW 247 0 min 0,0 UV-I 0 W/m 8,4 C 9,8 C 4,8 km/h (1 Bft)
25.05.2020 01:11 9,8 C 8,9 C 91 % 1033,9 hPa 0,0 l/m 4,8 km/h (1 Bft) W-SW 247 0 min 0,0 UV-I 0 W/m 8,4 C 9,8 C 6,4 km/h (2 Bft)
25.05.2020 01:12 9,8 C 8,9 C 91 % 1033,9 hPa 0,0 l/m 3,2 km/h (1 Bft) W-SW 247 0 min 0,0 UV-I 0 W/m 8,4 C 9,8 C 4,8 km/h (1 Bft)
25.05.2020 01:13 9,8 C 8,9 C 91 % 1033,8 hPa 0,0 l/m 4,8 km/h (1 Bft) W-SW 247 0 min 0,0 UV-I 0 W/m 8,4 C 9,8 C 4,8 km/h (1 Bft)
25.05.2020 01:14 9,8 C 8,9 C 91 % 1034,0 hPa 0,0 l/m 3,2 km/h (1 Bft) W-SW 247 0 min 0,0 UV-I 0 W/m 8,4 C 9,8 C 4,8 km/h (1 Bft)
25.05.2020 01:15 9,8 C 8,9 C 91 % 1033,9 hPa 0,0 l/m 3,2 km/h (1 Bft) W-SW 247 0 min 0,0 UV-I 0 W/m 8,4 C 9,8 C 4,8 km/h (1 Bft)
25.05.2020 01:16 9,8 C 8,9 C 91 % 1033,9 hPa 0,0 l/m 3,2 km/h (1 Bft) W-SW 247 0 min 0,0 UV-I 0 W/m 8,4 C 9,8 C 4,8 km/h (1 Bft)
25.05.2020 01:17 9,8 C 8,9 C 91 % 1033,9 hPa 0,0 l/m 3,2 km/h (1 Bft) W-SW 247 0 min 0,0 UV-I 0 W/m 8,4 C 9,8 C 4,8 km/h (1 Bft)
25.05.2020 01:18 9,8 C 8,9 C 91 % 1033,9 hPa 0,0 l/m 3,2 km/h (1 Bft) W-SW 247 0 min 0,0 UV-I 0 W/m 8,4 C 9,8 C 3,2 km/h (1 Bft)
25.05.2020 01:19 9,8 C 8,9 C 91 % 1033,9 hPa 0,0 l/m 1,6 km/h (1 Bft) W-SW 247 0 min 0,0 UV-I 0 W/m 8,4 C 9,8 C 1,6 km/h (1 Bft)
25.05.2020 01:20 9,8 C 8,9 C 91 % 1033,8 hPa 0,0 l/m 1,6 km/h (1 Bft) W-SW 247 0 min 0,0 UV-I 0 W/m 8,4 C 9,8 C 1,6 km/h (1 Bft)
25.05.2020 01:21 9,8 C 8,9 C 91 % 1033,9 hPa 0,0 l/m 1,6 km/h (1 Bft) W-SW 247 0 min 0,0 UV-I 0 W/m 8,4 C 9,8 C 1,6 km/h (1 Bft)
25.05.2020 01:22 9,8 C 8,9 C 91 % 1033,9 hPa 0,0 l/m 0,0 km/h (0 Bft) W-SW 247 0 min 0,0 UV-I 0 W/m 8,4 C 9,8 C 3,2 km/h (1 Bft)
25.05.2020 01:23 9,8 C 8,9 C 91 % 1033,9 hPa 0,0 l/m 0,0 km/h (0 Bft) W-SW 247 0 min 0,0 UV-I 0 W/m 8,4 C 9,8 C 1,6 km/h (1 Bft)
25.05.2020 01:24 9,8 C 8,9 C 91 % 1033,9 hPa 0,0 l/m 0,0 km/h (0 Bft) W-SW 247 0 min 0,0 UV-I 0 W/m 8,4 C 9,8 C 1,6 km/h (1 Bft)
25.05.2020 01:25 9,9 C 8,9 C 91 % 1034,0 hPa 0,0 l/m 0,0 km/h (0 Bft) W-SW 247 0 min 0,0 UV-I 0 W/m 8,5 C 9,9 C 1,6 km/h (1 Bft)
25.05.2020 01:26 9,9 C 8,9 C 91 % 1033,9 hPa 0,0 l/m 0,0 km/h (0 Bft) W-SW 247 0 min 0,0 UV-I 0 W/m 8,5 C 9,9 C 1,6 km/h (1 Bft)
25.05.2020 01:27 9,9 C 8,9 C 91 % 1033,9 hPa 0,0 l/m 0,0 km/h (0 Bft) N 0 0 min 0,0 UV-I 0 W/m 8,5 C 9,9 C 0,0 km/h (0 Bft)
25.05.2020 01:28 9,9 C 8,9 C 91 % 1034,0 hPa 0,0 l/m 0,0 km/h (0 Bft) W-SW 247 0 min 0,0 UV-I 0 W/m 8,5 C 9,9 C 1,6 km/h (1 Bft)
25.05.2020 01:29 9,9 C 9,4 C 91 % 1034,0 hPa 0,0 l/m 3,2 km/h (1 Bft) W-SW 247 0 min 0,0 UV-I 0 W/m 8,5 C 9,9 C 4,8 km/h (1 Bft)
25.05.2020 01:30 9,9 C 9,4 C 91 % 1034,0 hPa 0,0 l/m 4,8 km/h (1 Bft) W 270 0 min 0,0 UV-I 0 W/m 8,5 C 9,9 C 6,4 km/h (2 Bft)
25.05.2020 01:31 9,9 C 9,4 C 91 % 1034,0 hPa 0,0 l/m 4,8 km/h (1 Bft) W 270 0 min 0,0 UV-I 0 W/m 8,5 C 9,9 C 4,8 km/h (1 Bft)
25.05.2020 01:32 10,0 C 9,4 C 91 % 1033,9 hPa 0,0 l/m 3,2 km/h (1 Bft) N-NW 337 0 min 0,0 UV-I 0 W/m 8,6 C 10,0 C 6,4 km/h (2 Bft)
25.05.2020 01:33 10,0 C 9,4 C 91 % 1033,9 hPa 0,0 l/m 1,6 km/h (1 Bft) N-NW 337 0 min 0,0 UV-I 0 W/m 8,6 C 10,0 C 3,2 km/h (1 Bft)
25.05.2020 01:34 10,1 C 9,4 C 91 % 1033,9 hPa 0,0 l/m 0,0 km/h (0 Bft) N-NW 337 0 min 0,0 UV-I 0 W/m 8,7 C 10,1 C 1,6 km/h (1 Bft)
25.05.2020 01:35 10,1 C 9,4 C 92 % 1034,0 hPa 0,0 l/m 0,0 km/h (0 Bft) N-NW 337 0 min 0,0 UV-I 0 W/m 8,9 C 10,1 C 1,6 km/h (1 Bft)
25.05.2020 01:36 10,1 C 9,4 C 92 % 1033,9 hPa 0,0 l/m 0,0 km/h (0 Bft) N 0 0 min 0,0 UV-I 0 W/m 8,9 C 10,1 C 0,0 km/h (0 Bft)
25.05.2020 01:37 10,1 C 9,4 C 91 % 1034,0 hPa 0,0 l/m 0,0 km/h (0 Bft) N 0 0 min 0,0 UV-I 0 W/m 8,7 C 10,1 C 0,0 km/h (0 Bft)
25.05.2020 01:38 10,1 C 9,4 C 91 % 1034,0 hPa 0,0 l/m 0,0 km/h (0 Bft) NW 315 0 min 0,0 UV-I 0 W/m 8,7 C 10,1 C 3,2 km/h (1 Bft)
25.05.2020 01:39 10,1 C 9,4 C 91 % 1034,0 hPa 0,0 l/m 1,6 km/h (1 Bft) NW 315 0 min 0,0 UV-I 0 W/m 8,7 C 10,1 C 4,8 km/h (1 Bft)
25.05.2020 01:40 10,1 C 9,4 C 91 % 1034,0 hPa 0,0 l/m 4,8 km/h (1 Bft) NW 315 0 min 0,0 UV-I 0 W/m 8,7 C 10,1 C 6,4 km/h (2 Bft)
25.05.2020 01:41 10,1 C 9,4 C 91 % 1033,8 hPa 0,0 l/m 1,6 km/h (1 Bft) W-NW 292 0 min 0,0 UV-I 0 W/m 8,7 C 10,1 C 4,8 km/h (1 Bft)
25.05.2020 01:42 10,1 C 9,4 C 91 % 1034,0 hPa 0,0 l/m 3,2 km/h (1 Bft) NW 315 0 min 0,0 UV-I 0 W/m 8,7 C 10,1 C 4,8 km/h (1 Bft)
25.05.2020 01:43 10,2 C 9,4 C 91 % 1034,0 hPa 0,0 l/m 1,6 km/h (1 Bft) S-SW 202 0 min 0,0 UV-I 0 W/m 8,8 C 10,2 C 4,8 km/h (1 Bft)
25.05.2020 01:44 10,2 C 9,4 C 91 % 1033,9 hPa 0,0 l/m 3,2 km/h (1 Bft) SW 225 0 min 0,0 UV-I 0 W/m 8,8 C 10,2 C 4,8 km/h (1 Bft)
25.05.2020 01:45 10,2 C 9,4 C 91 % 1033,9 hPa 0,0 l/m 1,6 km/h (1 Bft) W-NW 292 0 min 0,0 UV-I 0 W/m 8,8 C 10,2 C 3,2 km/h (1 Bft)
25.05.2020 01:46 10,2 C 9,4 C 91 % 1033,8 hPa 0,0 l/m 1,6 km/h (1 Bft) W-NW 292 0 min 0,0 UV-I 0 W/m 8,8 C 10,2 C 4,8 km/h (1 Bft)
25.05.2020 01:47 10,2 C 9,4 C 91 % 1033,9 hPa 0,0 l/m 4,8 km/h (1 Bft) W-SW 247 0 min 0,0 UV-I 0 W/m 8,8 C 10,2 C 6,4 km/h (2 Bft)
25.05.2020 01:48 10,2 C 9,4 C 91 % 1033,9 hPa 0,0 l/m 3,2 km/h (1 Bft) W 270 0 min 0,0 UV-I 0 W/m 8,8 C 10,2 C 4,8 km/h (1 Bft)
25.05.2020 01:49 10,2 C 9,4 C 91 % 1033,9 hPa 0,0 l/m 3,2 km/h (1 Bft) W-NW 292 0 min 0,0 UV-I 0 W/m 8,8 C 10,2 C 4,8 km/h (1 Bft)
25.05.2020 01:50 10,2 C 9,4 C 91 % 1033,8 hPa 0,0 l/m 1,6 km/h (1 Bft) W-NW 292 0 min 0,0 UV-I 0 W/m 8,8 C 10,2 C 1,6 km/h (1 Bft)
25.05.2020 01:51 10,2 C 9,4 C 91 % 1033,8 hPa 0,0 l/m 4,8 km/h (1 Bft) W-NW 292 0 min 0,0 UV-I 0 W/m 8,8 C 10,2 C 16,1 km/h (3 Bft)
25.05.2020 01:52 10,2 C 9,4 C 91 % 1033,8 hPa 0,0 l/m 3,2 km/h (1 Bft) W 270 0 min 0,0 UV-I 0 W/m 8,8 C 10,2 C 16,1 km/h (3 Bft)
25.05.2020 01:53 10,2 C 9,4 C 91 % 1033,9 hPa 0,0 l/m 1,6 km/h (1 Bft) W 270 0 min 0,0 UV-I 0 W/m 8,8 C 10,2 C 6,4 km/h (2 Bft)
25.05.2020 01:54 10,2 C 9,4 C 91 % 1033,8 hPa 0,0 l/m 4,8 km/h (1 Bft) W 270 0 min 0,0 UV-I 0 W/m 8,8 C 10,2 C 9,7 km/h (2 Bft)
25.05.2020 01:55 10,2 C 9,4 C 91 % 1033,9 hPa 0,0 l/m 3,2 km/h (1 Bft) W-NW 292 0 min 0,0 UV-I 0 W/m 8,8 C 10,2 C 4,8 km/h (1 Bft)
25.05.2020 01:56 10,3 C 9,4 C 91 % 1033,8 hPa 0,0 l/m 1,6 km/h (1 Bft) W-NW 292 0 min 0,0 UV-I 0 W/m 8,9 C 10,3 C 3,2 km/h (1 Bft)
25.05.2020 01:57 10,3 C 9,4 C 91 % 1033,7 hPa 0,0 l/m 4,8 km/h (1 Bft) W-NW 292 0 min 0,0 UV-I 0 W/m 8,9 C 10,3 C 6,4 km/h (2 Bft)
25.05.2020 01:58 10,3 C 9,4 C 91 % 1033,8 hPa 0,0 l/m 3,2 km/h (1 Bft) W-NW 292 0 min 0,0 UV-I 0 W/m 8,9 C 10,3 C 4,8 km/h (1 Bft)
25.05.2020 01:59 10,3 C 9,4 C 91 % 1033,9 hPa 0,0 l/m 3,2 km/h (1 Bft) W-NW 292 0 min 0,0 UV-I 0 W/m 8,9 C 10,3 C 4,8 km/h (1 Bft)
25.05.2020 02:00 10,3 C 9,4 C 91 % 1033,8 hPa 0,0 l/m 3,2 km/h (1 Bft) N-NW 337 0 min 0,0 UV-I 0 W/m 8,9 C 10,3 C 6,4 km/h (2 Bft)
25.05.2020 02:01 10,3 C 9,4 C 91 % 1033,8 hPa 0,0 l/m 4,8 km/h (1 Bft) W-NW 292 0 min 0,0 UV-I 0 W/m 8,9 C 10,3 C 6,4 km/h (2 Bft)
25.05.2020 02:02 10,3 C 9,4 C 91 % 1033,9 hPa 0,0 l/m 1,6 km/h (1 Bft) W-NW 292 0 min 0,0 UV-I 0 W/m 8,9 C 10,3 C 3,2 km/h (1 Bft)
25.05.2020 02:03 10,3 C 9,4 C 91 % 1033,9 hPa 0,0 l/m 1,6 km/h (1 Bft) W-NW 292 0 min 0,0 UV-I 0 W/m 8,9 C 10,3 C 3,2 km/h (1 Bft)
25.05.2020 02:04 10,3 C 9,4 C 91 % 1033,8 hPa 0,0 l/m 3,2 km/h (1 Bft) W-NW 292 0 min 0,0 UV-I 0 W/m 8,9 C 10,3 C 4,8 km/h (1 Bft)
25.05.2020 02:05 10,3 C 9,4 C 91 % 1033,9 hPa 0,0 l/m 1,6 km/h (1 Bft) W-NW 292 0 min 0,0 UV-I 0 W/m 8,9 C 10,3 C 3,2 km/h (1 Bft)
25.05.2020 02:06 10,3 C 10,0 C 91 % 1033,9 hPa 0,0 l/m 1,6 km/h (1 Bft) W 270 0 min 0,0 UV-I 0 W/m 8,9 C 10,3 C 3,2 km/h (1 Bft)
25.05.2020 02:07 10,3 C 10,0 C 91 % 1033,8 hPa 0,0 l/m 1,6 km/h (1 Bft) W-NW 292 0 min 0,0 UV-I 0 W/m 8,9 C 10,3 C 4,8 km/h (1 Bft)
25.05.2020 02:08 10,3 C 10,0 C 91 % 1033,8 hPa 0,0 l/m 3,2 km/h (1 Bft) W-NW 292 0 min 0,0 UV-I 0 W/m 8,9 C 10,3 C 6,4 km/h (2 Bft)
25.05.2020 02:09 10,3 C 10,0 C 91 % 1033,9 hPa 0,0 l/m 3,2 km/h (1 Bft) NW 315 0 min 0,0 UV-I 0 W/m 8,9 C 10,3 C 6,4 km/h (2 Bft)
25.05.2020 02:10 10,3 C 10,0 C 91 % 1033,9 hPa 0,0 l/m 3,2 km/h (1 Bft) W-SW 247 0 min 0,0 UV-I 0 W/m 8,9 C 10,3 C 4,8 km/h (1 Bft)
25.05.2020 02:11 10,3 C 10,0 C 91 % 1033,9 hPa 0,0 l/m 1,6 km/h (1 Bft) W-SW 247 0 min 0,0 UV-I 0 W/m 8,9 C 10,3 C 3,2 km/h (1 Bft)
25.05.2020 02:12 10,3 C 10,0 C 91 % 1033,9 hPa 0,0 l/m 3,2 km/h (1 Bft) W-SW 247 0 min 0,0 UV-I 0 W/m 8,9 C 10,3 C 3,2 km/h (1 Bft)
25.05.2020 02:13 10,3 C 10,0 C 91 % 1033,9 hPa 0,0 l/m 1,6 km/h (1 Bft) W-SW 247 0 min 0,0 UV-I 0 W/m 8,9 C 10,3 C 3,2 km/h (1 Bft)
25.05.2020 02:14 10,3 C 10,0 C 91 % 1033,8 hPa 0,0 l/m 0,0 km/h (0 Bft) W-SW 247 0 min 0,0 UV-I 0 W/m 8,9 C 10,3 C 1,6 km/h (1 Bft)
25.05.2020 02:15 10,3 C 10,0 C 91 % 1033,9 hPa 0,0 l/m 0,0 km/h (0 Bft) W-SW 247 0 min 0,0 UV-I 0 W/m 8,9 C 10,3 C 1,6 km/h (1 Bft)
25.05.2020 02:16 10,3 C 10,0 C 91 % 1033,9 hPa 0,0 l/m 1,6 km/h (1 Bft) W-SW 247 0 min 0,0 UV-I 0 W/m 8,9 C 10,3 C 3,2 km/h (1 Bft)
25.05.2020 02:17 10,3 C 10,0 C 91 % 1033,9 hPa 0,0 l/m 0,0 km/h (0 Bft) W-SW 247 0 min 0,0 UV-I 0 W/m 8,9 C 10,3 C 1,6 km/h (1 Bft)
25.05.2020 02:18 10,3 C 10,0 C 91 % 1033,8 hPa 0,0 l/m 0,0 km/h (0 Bft) W-SW 247 0 min 0,0 UV-I 0 W/m 8,9 C 10,3 C 1,6 km/h (1 Bft)
25.05.2020 02:19 10,3 C 10,0 C 91 % 1033,9 hPa 0,0 l/m 1,6 km/h (1 Bft) W-SW 247 0 min 0,0 UV-I 0 W/m 8,9 C 10,3 C 3,2 km/h (1 Bft)
25.05.2020 02:20 10,3 C 9,4 C 91 % 1033,8 hPa 0,0 l/m 1,6 km/h (1 Bft) W-SW 247 0 min 0,0 UV-I 0 W/m 8,9 C 10,3 C 4,8 km/h (1 Bft)
25.05.2020 02:21 10,3 C 9,4 C 91 % 1033,9 hPa 0,0 l/m 0,0 km/h (0 Bft) W-SW 247 0 min 0,0 UV-I 0 W/m 8,9 C 10,3 C 1,6 km/h (1 Bft)
25.05.2020 02:22 10,3 C 9,4 C 91 % 1033,9 hPa 0,0 l/m 1,6 km/h (1 Bft) W-SW 247 0 min 0,0 UV-I 0 W/m 8,9 C 10,3 C 1,6 km/h (1 Bft)
25.05.2020 02:23 10,3 C 9,4 C 91 % 1033,9 hPa 0,0 l/m 3,2 km/h (1 Bft) N 360 0 min 0,0 UV-I 0 W/m 8,9 C 10,3 C 4,8 km/h (1 Bft)
25.05.2020 02:24 10,3 C 9,4 C 91 % 1033,9 hPa 0,0 l/m 4,8 km/h (1 Bft) W-NW 292 0 min 0,0 UV-I 0 W/m 8,9 C 10,3 C 6,4 km/h (2 Bft)
25.05.2020 02:25 10,3 C 9,4 C 91 % 1033,9 hPa 0,0 l/m 3,2 km/h (1 Bft) W-NW 292 0 min 0,0 UV-I 0 W/m 8,9 C 10,3 C 4,8 km/h (1 Bft)
25.05.2020 02:26 10,3 C 9,4 C 91 % 1033,8 hPa 0,0 l/m 3,2 km/h (1 Bft) W-NW 292 0 min 0,0 UV-I 0 W/m 8,9 C 10,3 C 4,8 km/h (1 Bft)
25.05.2020 02:27 10,3 C 9,4 C 91 % 1033,8 hPa 0,0 l/m 4,8 km/h (1 Bft) N-NW 337 0 min 0,0 UV-I 0 W/m 8,9 C 10,3 C 8,0 km/h (2 Bft)
25.05.2020 02:28 10,3 C 9,4 C 91 % 1033,8 hPa 0,0 l/m 1,6 km/h (1 Bft) NW 315 0 min 0,0 UV-I 0 W/m 8,9 C 10,3 C 3,2 km/h (1 Bft)
25.05.2020 02:29 10,3 C 9,4 C 91 % 1033,9 hPa 0,0 l/m 0,0 km/h (0 Bft) NW 315 0 min 0,0 UV-I 0 W/m 8,9 C 10,3 C 1,6 km/h (1 Bft)
25.05.2020 02:30 10,3 C 9,4 C 91 % 1033,9 hPa 0,0 l/m 3,2 km/h (1 Bft) NW 315 0 min 0,0 UV-I 0 W/m 8,9 C 10,3 C 4,8 km/h (1 Bft)
25.05.2020 02:31 10,3 C 9,4 C 91 % 1033,9 hPa 0,0 l/m 0,0 km/h (0 Bft) NW 315 0 min 0,0 UV-I 0 W/m 8,9 C 10,3 C 1,6 km/h (1 Bft)
25.05.2020 02:32 10,3 C 9,4 C 91 % 1033,9 hPa 0,0 l/m 0,0 km/h (0 Bft) N 0 0 min 0,0 UV-I 0 W/m 8,9 C 10,3 C 0,0 km/h (0 Bft)
25.05.2020 02:33 10,3 C 9,4 C 91 % 1033,8 hPa 0,0 l/m 0,0 km/h (0 Bft) NW 315 0 min 0,0 UV-I 0 W/m 8,9 C 10,3 C 1,6 km/h (1 Bft)
25.05.2020 02:34 10,3 C 9,4 C 91 % 1033,8 hPa 0,0 l/m 0,0 km/h (0 Bft) NW 315 0 min 0,0 UV-I 0 W/m 8,9 C 10,3 C 1,6 km/h (1 Bft)
25.05.2020 02:35 10,3 C 9,4 C 91 % 1033,8 hPa 0,0 l/m 6,4 km/h (2 Bft) NW 315 0 min 0,0 UV-I 0 W/m 8,9 C 10,3 C 12,9 km/h (3 Bft)
25.05.2020 02:36 10,3 C 9,4 C 91 % 1033,9 hPa 0,0 l/m 3,2 km/h (1 Bft) W 270 0 min 0,0 UV-I 0 W/m 8,9 C 10,3 C 4,8 km/h (1 Bft)
25.05.2020 02:37 10,3 C 9,4 C 91 % 1033,8 hPa 0,0 l/m 1,6 km/h (1 Bft) W 270 0 min 0,0 UV-I 0 W/m 8,9 C 10,3 C 3,2 km/h (1 Bft)
25.05.2020 02:38 10,3 C 9,4 C 91 % 1033,9 hPa 0,0 l/m 1,6 km/h (1 Bft) W 270 0 min 0,0 UV-I 0 W/m 8,9 C 10,3 C 3,2 km/h (1 Bft)
25.05.2020 02:39 10,3 C 9,4 C 91 % 1033,9 hPa 0,0 l/m 0,0 km/h (0 Bft) W 270 0 min 0,0 UV-I 0 W/m 8,9 C 10,3 C 1,6 km/h (1 Bft)
25.05.2020 02:40 10,3 C 9,4 C 91 % 1033,8 hPa 0,0 l/m 0,0 km/h (0 Bft) W 270 0 min 0,0 UV-I 0 W/m 8,9 C 10,3 C 1,6 km/h (1 Bft)
25.05.2020 02:41 10,3 C 9,4 C 91 % 1033,8 hPa 0,0 l/m 1,6 km/h (1 Bft) W 270 0 min 0,0 UV-I 0 W/m 8,9 C 10,3 C 4,8 km/h (1 Bft)
25.05.2020 02:42 10,2 C 9,4 C 91 % 1033,8 hPa 0,0 l/m 1,6 km/h (1 Bft) W 270 0 min 0,0 UV-I 0 W/m 8,8 C 10,2 C 4,8 km/h (1 Bft)
25.05.2020 02:43 10,2 C 9,4 C 90 % 1033,8 hPa 0,0 l/m 1,6 km/h (1 Bft) W-NW 292 0 min 0,0 UV-I 0 W/m 8,6 C 10,2 C 4,8 km/h (1 Bft)
25.05.2020 02:44 10,2 C 9,4 C 91 % 1033,8 hPa 0,0 l/m 4,8 km/h (1 Bft) W-SW 247 0 min 0,0 UV-I 0 W/m 8,8 C 10,2 C 6,4 km/h (2 Bft)
25.05.2020 02:45 10,2 C 9,4 C 91 % 1033,9 hPa 0,0 l/m 4,8 km/h (1 Bft) W-SW 247 0 min 0,0 UV-I 0 W/m 8,8 C 10,2 C 8,0 km/h (2 Bft)
25.05.2020 02:46 10,2 C 9,4 C 91 % 1033,8 hPa 0,0 l/m 3,2 km/h (1 Bft) W 270 0 min 0,0 UV-I 0 W/m 8,8 C 10,2 C 6,4 km/h (2 Bft)
25.05.2020 02:47 10,2 C 9,4 C 91 % 1033,8 hPa 0,0 l/m 3,2 km/h (1 Bft) W-NW 292 0 min 0,0 UV-I 0 W/m 8,8 C 10,2 C 6,4 km/h (2 Bft)
25.05.2020 02:48 10,2 C 9,4 C 91 % 1033,9 hPa 0,0 l/m 1,6 km/h (1 Bft) W 270 0 min 0,0 UV-I 0 W/m 8,8 C 10,2 C 3,2 km/h (1 Bft)
25.05.2020 02:49 10,2 C 9,4 C 91 % 1033,8 hPa 0,0 l/m 1,6 km/h (1 Bft) W 270 0 min 0,0 UV-I 0 W/m 8,8 C 10,2 C 3,2 km/h (1 Bft)
25.05.2020 02:50 10,2 C 9,4 C 91 % 1033,8 hPa 0,0 l/m 3,2 km/h (1 Bft) W 270 0 min 0,0 UV-I 0 W/m 8,8 C 10,2 C 8,0 km/h (2 Bft)
25.05.2020 02:51 10,2 C 9,4 C 90 % 1033,8 hPa 0,0 l/m 3,2 km/h (1 Bft) W-NW 292 0 min 0,0 UV-I 0 W/m 8,6 C 10,2 C 6,4 km/h (2 Bft)
25.05.2020 02:52 10,2 C 9,4 C 90 % 1033,9 hPa 0,0 l/m 0,0 km/h (0 Bft) W-NW 292 0 min 0,0 UV-I 0 W/m 8,6 C 10,2 C 1,6 km/h (1 Bft)
25.05.2020 02:53 10,2 C 9,4 C 90 % 1033,9 hPa 0,0 l/m 3,2 km/h (1 Bft) W 270 0 min 0,0 UV-I 0 W/m 8,6 C 10,2 C 4,8 km/h (1 Bft)
25.05.2020 02:54 10,2 C 9,4 C 90 % 1033,8 hPa 0,0 l/m 1,6 km/h (1 Bft) W 270 0 min 0,0 UV-I 0 W/m 8,6 C 10,2 C 4,8 km/h (1 Bft)
25.05.2020 02:55 10,2 C 9,4 C 90 % 1033,8 hPa 0,0 l/m 1,6 km/h (1 Bft) NW 315 0 min 0,0 UV-I 0 W/m 8,6 C 10,2 C 3,2 km/h (1 Bft)
25.05.2020 02:56 10,2 C 9,4 C 90 % 1033,8 hPa 0,0 l/m 3,2 km/h (1 Bft) NW 315 0 min 0,0 UV-I 0 W/m 8,6 C 10,2 C 4,8 km/h (1 Bft)
25.05.2020 02:57 10,2 C 9,4 C 90 % 1033,8 hPa 0,0 l/m 3,2 km/h (1 Bft) W-NW 292 0 min 0,0 UV-I 0 W/m 8,6 C 10,2 C 3,2 km/h (1 Bft)
25.05.2020 02:58 10,2 C 9,4 C 90 % 1033,7 hPa 0,0 l/m 3,2 km/h (1 Bft) W-NW 292 0 min 0,0 UV-I 0 W/m 8,6 C 10,2 C 4,8 km/h (1 Bft)
25.05.2020 02:59 10,2 C 9,4 C 90 % 1033,7 hPa 0,0 l/m 1,6 km/h (1 Bft) W-SW 247 0 min 0,0 UV-I 0 W/m 8,6 C 10,2 C 4,8 km/h (1 Bft)
25.05.2020 03:00 10,2 C 9,4 C 90 % 1033,8 hPa 0,0 l/m 0,0 km/h (0 Bft) W-SW 247 0 min 0,0 UV-I 0 W/m 8,6 C 10,2 C 1,6 km/h (1 Bft)
25.05.2020 03:01 10,2 C 9,4 C 90 % 1033,8 hPa 0,0 l/m 3,2 km/h (1 Bft) W-NW 292 0 min 0,0 UV-I 0 W/m 8,6 C 10,2 C 4,8 km/h (1 Bft)
25.05.2020 03:02 10,1 C 9,4 C 90 % 1033,9 hPa 0,0 l/m 3,2 km/h (1 Bft) W-NW 292 0 min 0,0 UV-I 0 W/m 8,5 C 10,1 C 8,0 km/h (2 Bft)
25.05.2020 03:03 10,1 C 9,4 C 90 % 1033,7 hPa 0,0 l/m 1,6 km/h (1 Bft) W-NW 292 0 min 0,0 UV-I 0 W/m 8,5 C 10,1 C 1,6 km/h (1 Bft)
25.05.2020 03:04 10,2 C 9,4 C 90 % 1033,9 hPa 0,0 l/m 1,6 km/h (1 Bft) W-NW 292 0 min 0,0 UV-I 0 W/m 8,6 C 10,2 C 3,2 km/h (1 Bft)
25.05.2020 03:05 10,1 C 9,4 C 90 % 1033,9 hPa 0,0 l/m 1,6 km/h (1 Bft) W-NW 292 0 min 0,0 UV-I 0 W/m 8,5 C 10,1 C 3,2 km/h (1 Bft)
25.05.2020 03:06 10,1 C 9,4 C 90 % 1033,8 hPa 0,0 l/m 0,0 km/h (0 Bft) W-NW 292 0 min 0,0 UV-I 0 W/m 8,5 C 10,1 C 1,6 km/h (1 Bft)
25.05.2020 03:07 10,1 C 9,4 C 90 % 1033,8 hPa 0,0 l/m 1,6 km/h (1 Bft) W-NW 292 0 min 0,0 UV-I 0 W/m 8,5 C 10,1 C 3,2 km/h (1 Bft)
25.05.2020 03:08 10,1 C 8,9 C 90 % 1033,9 hPa 0,0 l/m 0,0 km/h (0 Bft) W-NW 292 0 min 0,0 UV-I 0 W/m 8,5 C 10,1 C 1,6 km/h (1 Bft)
25.05.2020 03:09 10,1 C 8,9 C 90 % 1033,8 hPa 0,0 l/m 0,0 km/h (0 Bft) N 0 0 min 0,0 UV-I 0 W/m 8,5 C 10,1 C 0,0 km/h (0 Bft)
25.05.2020 03:10 10,1 C 8,9 C 90 % 1033,8 hPa 0,0 l/m 1,6 km/h (1 Bft) NW 315 0 min 0,0 UV-I 0 W/m 8,5 C 10,1 C 4,8 km/h (1 Bft)
25.05.2020 03:11 10,1 C 8,9 C 90 % 1033,8 hPa 0,0 l/m 3,2 km/h (1 Bft) NW 315 0 min 0,0 UV-I 0 W/m 8,5 C 10,1 C 4,8 km/h (1 Bft)
25.05.2020 03:12 10,0 C 8,9 C 90 % 1033,8 hPa 0,0 l/m 1,6 km/h (1 Bft) NW 315 0 min 0,0 UV-I 0 W/m 8,4 C 10,0 C 1,6 km/h (1 Bft)
25.05.2020 03:13 10,0 C 8,9 C 90 % 1033,8 hPa 0,0 l/m 0,0 km/h (0 Bft) NW 315 0 min 0,0 UV-I 0 W/m 8,4 C 10,0 C 1,6 km/h (1 Bft)
25.05.2020 03:14 9,9 C 8,9 C 90 % 1033,9 hPa 0,0 l/m 1,6 km/h (1 Bft) NW 315 0 min 0,0 UV-I 0 W/m 8,3 C 9,9 C 1,6 km/h (1 Bft)
25.05.2020 03:15 9,9 C 8,9 C 91 % 1033,8 hPa 0,0 l/m 0,0 km/h (0 Bft) NW 315 0 min 0,0 UV-I 0 W/m 8,5 C 9,9 C 1,6 km/h (1 Bft)
25.05.2020 03:16 9,9 C 8,9 C 91 % 1033,8 hPa 0,0 l/m 0,0 km/h (0 Bft) NW 315 0 min 0,0 UV-I 0 W/m 8,5 C 9,9 C 1,6 km/h (1 Bft)
25.05.2020 03:17 9,9 C 8,9 C 91 % 1033,9 hPa 0,0 l/m 1,6 km/h (1 Bft) NW 315 0 min 0,0 UV-I 0 W/m 8,5 C 9,9 C 3,2 km/h (1 Bft)
25.05.2020 03:18 9,9 C 8,9 C 91 % 1033,9 hPa 0,0 l/m 3,2 km/h (1 Bft) NW 315 0 min 0,0 UV-I 0 W/m 8,5 C 9,9 C 3,2 km/h (1 Bft)
25.05.2020 03:19 9,8 C 8,9 C 91 % 1033,8 hPa 0,0 l/m 1,6 km/h (1 Bft) NW 315 0 min 0,0 UV-I 0 W/m 8,4 C 9,8 C 3,2 km/h (1 Bft)
25.05.2020 03:20 9,9 C 8,9 C 91 % 1033,8 hPa 0,0 l/m 1,6 km/h (1 Bft) NW 315 0 min 0,0 UV-I 0 W/m 8,5 C 9,9 C 3,2 km/h (1 Bft)
25.05.2020 03:21 9,9 C 8,9 C 91 % 1033,9 hPa 0,0 l/m 3,2 km/h (1 Bft) NW 315 0 min 0,0 UV-I 0 W/m 8,5 C 9,9 C 4,8 km/h (1 Bft)
25.05.2020 03:22 9,9 C 8,9 C 91 % 1033,9 hPa 0,0 l/m 3,2 km/h (1 Bft) W 270 0 min 0,0 UV-I 0 W/m 8,5 C 9,9 C 4,8 km/h (1 Bft)
25.05.2020 03:23 9,9 C 8,9 C 91 % 1033,9 hPa 0,0 l/m 3,2 km/h (1 Bft) NW 315 0 min 0,0 UV-I 0 W/m 8,5 C 9,9 C 6,4 km/h (2 Bft)
25.05.2020 03:24 9,9 C 8,9 C 91 % 1034,0 hPa 0,0 l/m 3,2 km/h (1 Bft) NW 315 0 min 0,0 UV-I 0 W/m 8,5 C 9,9 C 4,8 km/h (1 Bft)
25.05.2020 03:25 9,9 C 8,9 C 91 % 1033,9 hPa 0,0 l/m 4,8 km/h (1 Bft) W-NW 292 0 min 0,0 UV-I 0 W/m 8,5 C 9,9 C 6,4 km/h (2 Bft)
25.05.2020 03:26 9,9 C 8,9 C 91 % 1033,9 hPa 0,0 l/m 0,0 km/h (0 Bft) W-NW 292 0 min 0,0 UV-I 0 W/m 8,5 C 9,9 C 1,6 km/h (1 Bft)
25.05.2020 03:27 9,9 C 8,9 C 91 % 1033,9 hPa 0,0 l/m 1,6 km/h (1 Bft) W-NW 292 0 min 0,0 UV-I 0 W/m 8,5 C 9,9 C 3,2 km/h (1 Bft)
25.05.2020 03:28 9,9 C 8,9 C 91 % 1033,9 hPa 0,0 l/m 1,6 km/h (1 Bft) NW 315 0 min 0,0 UV-I 0 W/m 8,5 C 9,9 C 6,4 km/h (2 Bft)
25.05.2020 03:29 9,9 C 8,9 C 91 % 1033,9 hPa 0,0 l/m 3,2 km/h (1 Bft) NW 315 0 min 0,0 UV-I 0 W/m 8,5 C 9,9 C 3,2 km/h (1 Bft)
25.05.2020 03:30 9,9 C 8,9 C 91 % 1033,8 hPa 0,0 l/m 4,8 km/h (1 Bft) W-NW 292 0 min 0,0 UV-I 0 W/m 8,5 C 9,9 C 8,0 km/h (2 Bft)
25.05.2020 03:31 9,9 C 8,9 C 91 % 1033,9 hPa 0,0 l/m 3,2 km/h (1 Bft) W-NW 292 0 min 0,0 UV-I 0 W/m 8,5 C 9,9 C 4,8 km/h (1 Bft)
25.05.2020 03:32 9,9 C 8,9 C 91 % 1033,8 hPa 0,0 l/m 1,6 km/h (1 Bft) W-NW 292 0 min 0,0 UV-I 0 W/m 8,5 C 9,9 C 3,2 km/h (1 Bft)
25.05.2020 03:33 9,9 C 8,9 C 91 % 1033,9 hPa 0,0 l/m 1,6 km/h (1 Bft) W-NW 292 0 min 0,0 UV-I 0 W/m 8,5 C 9,9 C 3,2 km/h (1 Bft)
25.05.2020 03:34 9,9 C 8,9 C 91 % 1033,9 hPa 0,0 l/m 3,2 km/h (1 Bft) NW 315 0 min 0,0 UV-I 0 W/m 8,5 C 9,9 C 4,8 km/h (1 Bft)
25.05.2020 03:35 9,9 C 8,9 C 91 % 1033,9 hPa 0,0 l/m 3,2 km/h (1 Bft) NW 315 0 min 0,0 UV-I 0 W/m 8,5 C 9,9 C 4,8 km/h (1 Bft)
25.05.2020 03:36 9,9 C 8,9 C 91 % 1033,9 hPa 0,0 l/m 3,2 km/h (1 Bft) NW 315 0 min 0,0 UV-I 0 W/m 8,5 C 9,9 C 6,4 km/h (2 Bft)
25.05.2020 03:37 9,9 C 8,9 C 91 % 1033,9 hPa 0,0 l/m 3,2 km/h (1 Bft) W-NW 292 0 min 0,0 UV-I 0 W/m 8,5 C 9,9 C 4,8 km/h (1 Bft)
25.05.2020 03:38 9,9 C 8,9 C 91 % 1033,9 hPa 0,0 l/m 3,2 km/h (1 Bft) W-NW 292 0 min 0,0 UV-I 0 W/m 8,5 C 9,9 C 4,8 km/h (1 Bft)
25.05.2020 03:39 9,9 C 8,9 C 91 % 1034,0 hPa 0,0 l/m 0,0 km/h (0 Bft) W-NW 292 0 min 0,0 UV-I 0 W/m 8,5 C 9,9 C 1,6 km/h (1 Bft)
25.05.2020 03:40 9,8 C 8,9 C 91 % 1033,8 hPa 0,0 l/m 0,0 km/h (0 Bft) W-NW 292 0 min 0,0 UV-I 0 W/m 8,4 C 9,8 C 1,6 km/h (1 Bft)
25.05.2020 03:41 9,8 C 8,9 C 91 % 1033,7 hPa 0,0 l/m 1,6 km/h (1 Bft) W-NW 292 0 min 0,0 UV-I 0 W/m 8,4 C 9,8 C 1,6 km/h (1 Bft)
25.05.2020 03:42 9,8 C 8,9 C 91 % 1033,7 hPa 0,0 l/m 0,0 km/h (0 Bft) W-NW 292 0 min 0,0 UV-I 0 W/m 8,4 C 9,8 C 1,6 km/h (1 Bft)
25.05.2020 03:43 9,8 C 8,3 C 91 % 1033,8 hPa 0,0 l/m 1,6 km/h (1 Bft) W-NW 292 0 min 0,0 UV-I 0 W/m 8,4 C 9,8 C 3,2 km/h (1 Bft)
25.05.2020 03:44 9,8 C 8,3 C 91 % 1033,8 hPa 0,0 l/m 1,6 km/h (1 Bft) W-NW 292 0 min 0,0 UV-I 0 W/m 8,4 C 9,8 C 3,2 km/h (1 Bft)
25.05.2020 03:45 9,8 C 8,3 C 91 % 1033,8 hPa 0,0 l/m 3,2 km/h (1 Bft) W-NW 292 0 min 0,0 UV-I 0 W/m 8,4 C 9,8 C 4,8 km/h (1 Bft)
25.05.2020 03:46 9,8 C 8,3 C 91 % 1033,8 hPa 0,0 l/m 3,2 km/h (1 Bft) NW 315 0 min 0,0 UV-I 0 W/m 8,4 C 9,8 C 4,8 km/h (1 Bft)
25.05.2020 03:47 9,8 C 8,3 C 91 % 1033,8 hPa 0,0 l/m 3,2 km/h (1 Bft) NW 315 0 min 0,0 UV-I 0 W/m 8,4 C 9,8 C 4,8 km/h (1 Bft)
25.05.2020 03:48 9,7 C 8,3 C 91 % 1033,8 hPa 0,0 l/m 1,6 km/h (1 Bft) NW 315 0 min 0,0 UV-I 0 W/m 8,3 C 9,7 C 4,8 km/h (1 Bft)
25.05.2020 03:49 9,7 C 8,3 C 91 % 1033,8 hPa 0,0 l/m 1,6 km/h (1 Bft) NW 315 0 min 0,0 UV-I 0 W/m 8,3 C 9,7 C 3,2 km/h (1 Bft)
25.05.2020 03:50 9,8 C 8,3 C 91 % 1033,8 hPa 0,0 l/m 0,0 km/h (0 Bft) NW 315 0 min 0,0 UV-I 0 W/m 8,4 C 9,8 C 1,6 km/h (1 Bft)
25.05.2020 03:51 9,8 C 8,3 C 91 % 1033,8 hPa 0,0 l/m 3,2 km/h (1 Bft) NW 315 0 min 0,0 UV-I 0 W/m 8,4 C 9,8 C 4,8 km/h (1 Bft)
25.05.2020 03:52 9,7 C 8,3 C 91 % 1033,8 hPa 0,0 l/m 3,2 km/h (1 Bft) NW 315 0 min 0,0 UV-I 0 W/m 8,3 C 9,7 C 3,2 km/h (1 Bft)
25.05.2020 03:53 9,7 C 8,3 C 91 % 1033,9 hPa 0,0 l/m 3,2 km/h (1 Bft) NW 315 0 min 0,0 UV-I 0 W/m 8,3 C 9,7 C 3,2 km/h (1 Bft)
25.05.2020 03:54 9,7 C 8,3 C 91 % 1034,0 hPa 0,0 l/m 3,2 km/h (1 Bft) NW 315 0 min 0,0 UV-I 0 W/m 8,3 C 9,7 C 4,8 km/h (1 Bft)
25.05.2020 03:55 9,7 C 8,3 C 91 % 1033,8 hPa 0,0 l/m 1,6 km/h (1 Bft) NW 315 0 min 0,0 UV-I 0 W/m 8,3 C 9,7 C 3,2 km/h (1 Bft)
25.05.2020 03:56 9,7 C 8,3 C 91 % 1033,8 hPa 0,0 l/m 3,2 km/h (1 Bft) NW 315 0 min 0,0 UV-I 0 W/m 8,3 C 9,7 C 3,2 km/h (1 Bft)
25.05.2020 03:57 9,7 C 8,3 C 91 % 1033,7 hPa 0,0 l/m 1,6 km/h (1 Bft) NW 315 0 min 0,0 UV-I 0 W/m 8,3 C 9,7 C 3,2 km/h (1 Bft)
25.05.2020 03:58 9,7 C 8,3 C 91 % 1033,8 hPa 0,0 l/m 0,0 km/h (0 Bft) NW 315 0 min 0,0 UV-I 0 W/m 8,3 C 9,7 C 1,6 km/h (1 Bft)
25.05.2020 03:59 9,7 C 8,3 C 91 % 1033,8 hPa 0,0 l/m 0,0 km/h (0 Bft) NW 315 0 min 0,0 UV-I 0 W/m 8,3 C 9,7 C 1,6 km/h (1 Bft)
25.05.2020 04:00 9,7 C 8,3 C 91 % 1033,8 hPa 0,0 l/m 0,0 km/h (0 Bft) NW 315 0 min 0,0 UV-I 0 W/m 8,3 C 9,7 C 1,6 km/h (1 Bft)
25.05.2020 04:01 9,7 C 8,3 C 91 % 1033,8 hPa 0,0 l/m 0,0 km/h (0 Bft) NW 315 0 min 0,0 UV-I 0 W/m 8,3 C 9,7 C 1,6 km/h (1 Bft)
25.05.2020 04:02 9,7 C 8,3 C 91 % 1033,8 hPa 0,0 l/m 1,6 km/h (1 Bft) NW 315 0 min 0,0 UV-I 0 W/m 8,3 C 9,7 C 1,6 km/h (1 Bft)
25.05.2020 04:03 9,7 C 8,3 C 91 % 1033,9 hPa 0,0 l/m 1,6 km/h (1 Bft) NW 315 0 min 0,0 UV-I 0 W/m 8,3 C 9,7 C 3,2 km/h (1 Bft)
25.05.2020 04:04 9,7 C 8,3 C 91 % 1033,8 hPa 0,0 l/m 3,2 km/h (1 Bft) NW 315 0 min 0,0 UV-I 0 W/m 8,3 C 9,7 C 4,8 km/h (1 Bft)
25.05.2020 04:05 9,7 C 8,3 C 91 % 1033,8 hPa 0,0 l/m 3,2 km/h (1 Bft) NW 315 0 min 0,0 UV-I 0 W/m 8,3 C 9,7 C 4,8 km/h (1 Bft)
25.05.2020 04:06 9,7 C 8,3 C 92 % 1033,9 hPa 0,0 l/m 3,2 km/h (1 Bft) NW 315 0 min 0,0 UV-I 0 W/m 8,5 C 9,7 C 3,2 km/h (1 Bft)
25.05.2020 04:07 9,7 C 8,3 C 91 % 1033,8 hPa 0,0 l/m 3,2 km/h (1 Bft) NW 315 0 min 0,0 UV-I 0 W/m 8,3 C 9,7 C 3,2 km/h (1 Bft)
25.05.2020 04:08 9,7 C 8,3 C 91 % 1033,9 hPa 0,0 l/m 3,2 km/h (1 Bft) W 270 0 min 0,0 UV-I 0 W/m 8,3 C 9,7 C 6,4 km/h (2 Bft)
25.05.2020 04:09 9,7 C 8,9 C 92 % 1033,8 hPa 0,0 l/m 3,2 km/h (1 Bft) W 270 0 min 0,0 UV-I 0 W/m 8,5 C 9,7 C 4,8 km/h (1 Bft)
25.05.2020 04:10 9,7 C 8,9 C 91 % 1033,8 hPa 0,0 l/m 3,2 km/h (1 Bft) W 270 0 min 0,0 UV-I 0 W/m 8,3 C 9,7 C 4,8 km/h (1 Bft)
25.05.2020 04:11 9,7 C 8,9 C 92 % 1033,8 hPa 0,0 l/m 1,6 km/h (1 Bft) W 270 0 min 0,0 UV-I 0 W/m 8,5 C 9,7 C 3,2 km/h (1 Bft)
25.05.2020 04:12 9,7 C 8,9 C 91 % 1033,9 hPa 0,0 l/m 1,6 km/h (1 Bft) W 270 0 min 0,0 UV-I 0 W/m 8,3 C 9,7 C 3,2 km/h (1 Bft)
25.05.2020 04:13 9,7 C 8,9 C 92 % 1033,9 hPa 0,0 l/m 1,6 km/h (1 Bft) W 270 0 min 0,0 UV-I 0 W/m 8,5 C 9,7 C 3,2 km/h (1 Bft)
25.05.2020 04:14 9,7 C 8,9 C 91 % 1033,8 hPa 0,0 l/m 1,6 km/h (1 Bft) W 270 0 min 0,0 UV-I 0 W/m 8,3 C 9,7 C 3,2 km/h (1 Bft)
25.05.2020 04:15 9,7 C 8,9 C 92 % 1033,9 hPa 0,0 l/m 0,0 km/h (0 Bft) N 0 0 min 0,0 UV-I 0 W/m 8,5 C 9,7 C 0,0 km/h (0 Bft)
25.05.2020 04:16 9,7 C 8,9 C 91 % 1033,8 hPa 0,0 l/m 0,0 km/h (0 Bft) N 0 0 min 0,0 UV-I 0 W/m 8,3 C 9,7 C 0,0 km/h (0 Bft)
25.05.2020 04:17 9,7 C 8,9 C 92 % 1033,9 hPa 0,0 l/m 1,6 km/h (1 Bft) W 270 0 min 0,0 UV-I 0 W/m 8,5 C 9,7 C 3,2 km/h (1 Bft)
25.05.2020 04:18 9,7 C 8,9 C 92 % 1033,8 hPa 0,0 l/m 1,6 km/h (1 Bft) W 270 0 min 0,0 UV-I 0 W/m 8,5 C 9,7 C 3,2 km/h (1 Bft)
25.05.2020 04:19 9,7 C 8,9 C 92 % 1033,8 hPa 0,0 l/m 1,6 km/h (1 Bft) W 270 0 min 0,0 UV-I 0 W/m 8,5 C 9,7 C 3,2 km/h (1 Bft)
25.05.2020 04:20 9,7 C 8,9 C 92 % 1033,8 hPa 0,0 l/m 0,0 km/h (0 Bft) W 270 0 min 0,0 UV-I 0 W/m 8,5 C 9,7 C 1,6 km/h (1 Bft)
25.05.2020 04:21 9,7 C 8,9 C 92 % 1033,8 hPa 0,0 l/m 1,6 km/h (1 Bft) W 270 0 min 0,0 UV-I 0 W/m 8,5 C 9,7 C 1,6 km/h (1 Bft)
25.05.2020 04:22 9,7 C 8,9 C 92 % 1033,8 hPa 0,0 l/m 1,6 km/h (1 Bft) W 270 0 min 0,0 UV-I 0 W/m 8,5 C 9,7 C 3,2 km/h (1 Bft)
25.05.2020 04:23 9,7 C 8,9 C 92 % 1033,8 hPa 0,0 l/m 1,6 km/h (1 Bft) W 270 0 min 0,0 UV-I 0 W/m 8,5 C 9,7 C 3,2 km/h (1 Bft)
25.05.2020 04:24 9,7 C 8,9 C 92 % 1033,8 hPa 0,0 l/m 1,6 km/h (1 Bft) W 270 0 min 0,0 UV-I 0 W/m 8,5 C 9,7 C 3,2 km/h (1 Bft)
25.05.2020 04:25 9,7 C 8,9 C 92 % 1033,9 hPa 0,0 l/m 1,6 km/h (1 Bft) W 270 0 min 0,0 UV-I 0 W/m 8,5 C 9,7 C 1,6 km/h (1 Bft)
25.05.2020 04:26 9,7 C 8,9 C 92 % 1033,8 hPa 0,0 l/m 1,6 km/h (1 Bft) W 270 0 min 0,0 UV-I 0 W/m 8,5 C 9,7 C 3,2 km/h (1 Bft)
25.05.2020 04:27 9,7 C 8,9 C 92 % 1033,8 hPa 0,0 l/m 1,6 km/h (1 Bft) W 270 0 min 0,0 UV-I 0 W/m 8,5 C 9,7 C 3,2 km/h (1 Bft)
25.05.2020 04:28 9,7 C 8,9 C 92 % 1033,7 hPa 0,0 l/m 1,6 km/h (1 Bft) W 270 0 min 0,0 UV-I 0 W/m 8,5 C 9,7 C 3,2 km/h (1 Bft)
25.05.2020 04:29 9,7 C 8,9 C 92 % 1033,7 hPa 0,0 l/m 1,6 km/h (1 Bft) W 270 0 min 0,0 UV-I 0 W/m 8,5 C 9,7 C 3,2 km/h (1 Bft)
25.05.2020 04:30 9,7 C 8,9 C 92 % 1033,7 hPa 0,0 l/m 3,2 km/h (1 Bft) W 270 0 min 0,0 UV-I 0 W/m 8,5 C 9,7 C 3,2 km/h (1 Bft)
25.05.2020 04:31 9,7 C 8,9 C 92 % 1033,7 hPa 0,0 l/m 1,6 km/h (1 Bft) W 270 0 min 0,0 UV-I 0 W/m 8,5 C 9,7 C 3,2 km/h (1 Bft)
25.05.2020 04:32 9,7 C 8,9 C 92 % 1033,6 hPa 0,0 l/m 1,6 km/h (1 Bft) W 270 0 min 0,0 UV-I 0 W/m 8,5 C 9,7 C 3,2 km/h (1 Bft)
25.05.2020 04:33 9,7 C 8,9 C 92 % 1033,7 hPa 0,0 l/m 1,6 km/h (1 Bft) W 270 0 min 0,0 UV-I 0 W/m 8,5 C 9,7 C 3,2 km/h (1 Bft)
25.05.2020 04:34 9,7 C 8,9 C 92 % 1033,6 hPa 0,0 l/m 1,6 km/h (1 Bft) W 270 0 min 0,0 UV-I 0 W/m 8,5 C 9,7 C 3,2 km/h (1 Bft)
25.05.2020 04:35 9,7 C 8,9 C 92 % 1033,6 hPa 0,0 l/m 1,6 km/h (1 Bft) W 270 0 min 0,0 UV-I 0 W/m 8,5 C 9,7 C 3,2 km/h (1 Bft)
25.05.2020 04:36 9,7 C 8,9 C 92 % 1033,6 hPa 0,0 l/m 3,2 km/h (1 Bft) W 270 0 min 0,0 UV-I 0 W/m 8,5 C 9,7 C 4,8 km/h (1 Bft)
25.05.2020 04:37 9,7 C 8,9 C 92 % 1033,6 hPa 0,0 l/m 3,2 km/h (1 Bft) W 270 0 min 0,0 UV-I 0 W/m 8,5 C 9,7 C 4,8 km/h (1 Bft)
25.05.2020 04:38 9,7 C 8,9 C 92 % 1033,7 hPa 0,0 l/m 3,2 km/h (1 Bft) W 270 0 min 0,0 UV-I 0 W/m 8,5 C 9,7 C 3,2 km/h (1 Bft)
25.05.2020 04:39 9,7 C 8,9 C 92 % 1033,7 hPa 0,0 l/m 3,2 km/h (1 Bft) W 270 0 min 0,0 UV-I 0 W/m 8,5 C 9,7 C 4,8 km/h (1 Bft)
25.05.2020 04:40 9,8 C 8,9 C 92 % 1033,7 hPa 0,0 l/m 3,2 km/h (1 Bft) W 270 0 min 0,0 UV-I 0 W/m 8,6 C 9,8 C 4,8 km/h (1 Bft)
25.05.2020 04:41 9,8 C 9,4 C 92 % 1033,9 hPa 0,0 l/m 6,4 km/h (2 Bft) W 270 0 min 0,0 UV-I 0 W/m 8,6 C 9,8 C 9,7 km/h (2 Bft)
25.05.2020 04:42 9,8 C 9,4 C 92 % 1033,7 hPa 0,0 l/m 3,2 km/h (1 Bft) W 270 0 min 0,0 UV-I 0 W/m 8,6 C 9,8 C 4,8 km/h (1 Bft)
25.05.2020 04:43 9,8 C 9,4 C 92 % 1033,6 hPa 0,0 l/m 1,6 km/h (1 Bft) W 270 0 min 0,0 UV-I 0 W/m 8,6 C 9,8 C 4,8 km/h (1 Bft)
25.05.2020 04:44 9,8 C 9,4 C 92 % 1033,7 hPa 0,0 l/m 1,6 km/h (1 Bft) W 270 0 min 0,0 UV-I 0 W/m 8,6 C 9,8 C 3,2 km/h (1 Bft)
25.05.2020 04:45 9,8 C 9,4 C 92 % 1033,6 hPa 0,0 l/m 3,2 km/h (1 Bft) W 270 0 min 0,0 UV-I 0 W/m 8,6 C 9,8 C 3,2 km/h (1 Bft)
25.05.2020 04:46 9,8 C 9,4 C 92 % 1033,7 hPa 0,0 l/m 3,2 km/h (1 Bft) W 270 0 min 0,0 UV-I 0 W/m 8,6 C 9,8 C 4,8 km/h (1 Bft)
25.05.2020 04:47 9,8 C 9,4 C 92 % 1033,6 hPa 0,0 l/m 3,2 km/h (1 Bft) W 270 0 min 0,0 UV-I 0 W/m 8,6 C 9,8 C 4,8 km/h (1 Bft)
25.05.2020 04:48 9,8 C 9,4 C 92 % 1033,7 hPa 0,0 l/m 1,6 km/h (1 Bft) W 270 0 min 0,0 UV-I 0 W/m 8,6 C 9,8 C 3,2 km/h (1 Bft)
25.05.2020 04:49 9,8 C 9,4 C 92 % 1033,8 hPa 0,0 l/m 3,2 km/h (1 Bft) W 270 0 min 0,0 UV-I 0 W/m 8,6 C 9,8 C 4,8 km/h (1 Bft)
25.05.2020 04:50 9,9 C 9,4 C 92 % 1033,7 hPa 0,0 l/m 3,2 km/h (1 Bft) W 270 0 min 0,0 UV-I 0 W/m 8,7 C 9,9 C 4,8 km/h (1 Bft)
25.05.2020 04:51 9,9 C 9,4 C 92 % 1033,8 hPa 0,0 l/m 3,2 km/h (1 Bft) W 270 0 min 0,0 UV-I 0 W/m 8,7 C 9,9 C 4,8 km/h (1 Bft)
25.05.2020 04:52 9,9 C 9,4 C 92 % 1033,7 hPa 0,0 l/m 3,2 km/h (1 Bft) W 270 0 min 0,0 UV-I 0 W/m 8,7 C 9,9 C 4,8 km/h (1 Bft)
25.05.2020 04:53 9,9 C 9,4 C 92 % 1033,7 hPa 0,0 l/m 4,8 km/h (1 Bft) W-SW 247 0 min 0,0 UV-I 0 W/m 8,7 C 9,9 C 8,0 km/h (2 Bft)
25.05.2020 04:54 9,9 C 9,4 C 92 % 1033,8 hPa 0,0 l/m 3,2 km/h (1 Bft) W-SW 247 0 min 0,0 UV-I 0 W/m 8,7 C 9,9 C 6,4 km/h (2 Bft)
25.05.2020 04:55 9,9 C 9,4 C 92 % 1033,8 hPa 0,0 l/m 4,8 km/h (1 Bft) W 270 0 min 0,0 UV-I 0 W/m 8,7 C 9,9 C 6,4 km/h (2 Bft)
25.05.2020 04:56 9,9 C 9,4 C 92 % 1033,8 hPa 0,0 l/m 4,8 km/h (1 Bft) W 270 0 min 0,0 UV-I 0 W/m 8,7 C 9,9 C 9,7 km/h (2 Bft)
25.05.2020 04:57 9,9 C 9,4 C 92 % 1033,7 hPa 0,0 l/m 4,8 km/h (1 Bft) W-SW 247 0 min 0,0 UV-I 0 W/m 8,7 C 9,9 C 6,4 km/h (2 Bft)
25.05.2020 04:58 9,9 C 9,4 C 92 % 1033,8 hPa 0,0 l/m 4,8 km/h (1 Bft) W-SW 247 0 min 0,0 UV-I 0 W/m 8,7 C 9,9 C 11,3 km/h (2 Bft)
25.05.2020 04:59 9,9 C 9,4 C 92 % 1033,8 hPa 0,0 l/m 4,8 km/h (1 Bft) W-SW 247 0 min 0,0 UV-I 0 W/m 8,7 C 9,9 C 6,4 km/h (2 Bft)
25.05.2020 05:00 9,9 C 9,4 C 92 % 1033,8 hPa 0,0 l/m 8,0 km/h (2 Bft) W-SW 247 0 min 0,0 UV-I 0 W/m 8,7 C 8,7 C 11,3 km/h (2 Bft)
25.05.2020 05:01 9,9 C 9,4 C 91 % 1033,8 hPa 0,0 l/m 4,8 km/h (1 Bft) W-SW 247 0 min 0,0 UV-I 0 W/m 8,5 C 9,9 C 8,0 km/h (2 Bft)
25.05.2020 05:02 9,9 C 9,4 C 91 % 1033,9 hPa 0,0 l/m 4,8 km/h (1 Bft) W-SW 247 0 min 0,0 UV-I 0 W/m 8,5 C 9,9 C 6,4 km/h (2 Bft)
25.05.2020 05:03 10,0 C 9,4 C 91 % 1033,8 hPa 0,0 l/m 1,6 km/h (1 Bft) W-SW 247 0 min 0,0 UV-I 0 W/m 8,6 C 10,0 C 3,2 km/h (1 Bft)
25.05.2020 05:04 10,0 C 9,4 C 91 % 1033,8 hPa 0,0 l/m 6,4 km/h (2 Bft) W-SW 247 0 min 0,0 UV-I 0 W/m 8,6 C 10,0 C 9,7 km/h (2 Bft)
25.05.2020 05:05 10,0 C 9,4 C 91 % 1033,9 hPa 0,0 l/m 3,2 km/h (1 Bft) W-SW 247 0 min 0,0 UV-I 0 W/m 8,6 C 10,0 C 6,4 km/h (2 Bft)
25.05.2020 05:06 10,0 C 9,4 C 91 % 1033,9 hPa 0,0 l/m 3,2 km/h (1 Bft) W-SW 247 0 min 0,0 UV-I 0 W/m 8,6 C 10,0 C 3,2 km/h (1 Bft)
25.05.2020 05:07 10,0 C 9,4 C 91 % 1033,8 hPa 0,0 l/m 4,8 km/h (1 Bft) W-SW 247 0 min 0,0 UV-I 0 W/m 8,6 C 10,0 C 6,4 km/h (2 Bft)
25.05.2020 05:08 10,0 C 9,4 C 91 % 1033,8 hPa 0,0 l/m 4,8 km/h (1 Bft) W-SW 247 0 min 0,0 UV-I 0 W/m 8,6 C 10,0 C 6,4 km/h (2 Bft)
25.05.2020 05:09 9,9 C 9,4 C 91 % 1033,8 hPa 0,0 l/m 6,4 km/h (2 Bft) W-SW 247 0 min 0,0 UV-I 0 W/m 8,5 C 9,9 C 11,3 km/h (2 Bft)
25.05.2020 05:10 10,0 C 9,4 C 91 % 1033,8 hPa 0,0 l/m 4,8 km/h (1 Bft) W 270 0 min 0,0 UV-I 0 W/m 8,6 C 10,0 C 6,4 km/h (2 Bft)
25.05.2020 05:11 10,0 C 9,4 C 91 % 1033,9 hPa 0,0 l/m 8,0 km/h (2 Bft) W 270 0 min 0,0 UV-I 0 W/m 8,6 C 8,9 C 12,9 km/h (3 Bft)
25.05.2020 05:12 10,0 C 9,4 C 91 % 1033,8 hPa 0,0 l/m 8,0 km/h (2 Bft) SW 225 0 min 0,0 UV-I 0 W/m 8,6 C 8,9 C 12,9 km/h (3 Bft)
25.05.2020 05:13 10,1 C 9,4 C 91 % 1033,8 hPa 0,0 l/m 4,8 km/h (1 Bft) W 270 0 min 0,0 UV-I 0 W/m 8,7 C 10,1 C 9,7 km/h (2 Bft)
25.05.2020 05:14 10,1 C 9,4 C 91 % 1033,7 hPa 0,0 l/m 6,4 km/h (2 Bft) W-SW 247 0 min 0,0 UV-I 0 W/m 8,7 C 10,1 C 9,7 km/h (2 Bft)
25.05.2020 05:15 10,1 C 9,4 C 91 % 1033,8 hPa 0,0 l/m 4,8 km/h (1 Bft) W 270 0 min 0,0 UV-I 0 W/m 8,7 C 10,1 C 6,4 km/h (2 Bft)
25.05.2020 05:16 10,1 C 9,4 C 91 % 1033,8 hPa 0,0 l/m 3,2 km/h (1 Bft) W 270 0 min 0,0 UV-I 0 W/m 8,7 C 10,1 C 6,4 km/h (2 Bft)
25.05.2020 05:17 10,1 C 9,4 C 91 % 1033,8 hPa 0,0 l/m 6,4 km/h (2 Bft) W 270 0 min 0,0 UV-I 0 W/m 8,7 C 10,1 C 9,7 km/h (2 Bft)
25.05.2020 05:18 10,1 C 9,4 C 91 % 1033,9 hPa 0,0 l/m 4,8 km/h (1 Bft) W-SW 247 0 min 0,0 UV-I 0 W/m 8,7 C 10,1 C 9,7 km/h (2 Bft)
25.05.2020 05:19 10,1 C 9,4 C 91 % 1033,8 hPa 0,0 l/m 4,8 km/h (1 Bft) W-SW 247 0 min 0,0 UV-I 0 W/m 8,7 C 10,1 C 4,8 km/h (1 Bft)
25.05.2020 05:20 10,0 C 9,4 C 91 % 1033,9 hPa 0,0 l/m 4,8 km/h (1 Bft) W-SW 247 0 min 0,0 UV-I 0 W/m 8,6 C 10,0 C 6,4 km/h (2 Bft)
25.05.2020 05:21 10,0 C 9,4 C 91 % 1033,9 hPa 0,0 l/m 3,2 km/h (1 Bft) SW 225 0 min 0,0 UV-I 0 W/m 8,6 C 10,0 C 4,8 km/h (1 Bft)
25.05.2020 05:22 10,1 C 9,4 C 91 % 1033,9 hPa 0,0 l/m 1,6 km/h (1 Bft) SW 225 0 min 0,0 UV-I 0 W/m 8,7 C 10,1 C 3,2 km/h (1 Bft)
25.05.2020 05:23 10,1 C 9,4 C 91 % 1033,9 hPa 0,0 l/m 3,2 km/h (1 Bft) W-SW 247 0 min 0,0 UV-I 0 W/m 8,7 C 10,1 C 4,8 km/h (1 Bft)
25.05.2020 05:24 10,1 C 9,4 C 91 % 1033,9 hPa 0,0 l/m 3,2 km/h (1 Bft) W-SW 247 0 min 0,0 UV-I 0 W/m 8,7 C 10,1 C 4,8 km/h (1 Bft)
25.05.2020 05:25 10,1 C 9,4 C 91 % 1033,9 hPa 0,0 l/m 4,8 km/h (1 Bft) W-SW 247 0 min 0,0 UV-I 0 W/m 8,7 C 10,1 C 6,4 km/h (2 Bft)
25.05.2020 05:26 10,1 C 9,4 C 91 % 1033,9 hPa 0,0 l/m 4,8 km/h (1 Bft) W-SW 247 0 min 0,0 UV-I 0 W/m 8,7 C 10,1 C 11,3 km/h (2 Bft)
25.05.2020 05:27 10,0 C 9,4 C 91 % 1034,0 hPa 0,0 l/m 4,8 km/h (1 Bft) W-SW 247 0 min 0,0 UV-I 0 W/m 8,6 C 10,0 C 9,7 km/h (2 Bft)
25.05.2020 05:28 10,0 C 9,4 C 91 % 1034,0 hPa 0,0 l/m 6,4 km/h (2 Bft) W 270 0 min 0,0 UV-I 0 W/m 8,6 C 10,0 C 9,7 km/h (2 Bft)
25.05.2020 05:29 10,0 C 9,4 C 91 % 1034,0 hPa 0,0 l/m 4,8 km/h (1 Bft) W-SW 247 0 min 0,0 UV-I 0 W/m 8,6 C 10,0 C 8,0 km/h (2 Bft)
25.05.2020 05:30 10,1 C 9,4 C 91 % 1034,0 hPa 0,0 l/m 4,8 km/h (1 Bft) W 270 0 min 0,0 UV-I 0 W/m 8,7 C 10,1 C 6,4 km/h (2 Bft)
25.05.2020 05:31 10,1 C 9,4 C 91 % 1034,0 hPa 0,0 l/m 4,8 km/h (1 Bft) W-SW 247 0 min 0,0 UV-I 0 W/m 8,7 C 10,1 C 8,0 km/h (2 Bft)
25.05.2020 05:32 10,1 C 9,4 C 91 % 1034,0 hPa 0,0 l/m 3,2 km/h (1 Bft) W-SW 247 0 min 0,0 UV-I 0 W/m 8,7 C 10,1 C 4,8 km/h (1 Bft)
25.05.2020 05:33 10,1 C 9,4 C 91 % 1033,9 hPa 0,0 l/m 4,8 km/h (1 Bft) W 270 0 min 0,0 UV-I 0 W/m 8,7 C 10,1 C 8,0 km/h (2 Bft)
25.05.2020 05:34 10,0 C 9,4 C 91 % 1034,0 hPa 0,0 l/m 1,6 km/h (1 Bft) W 270 0 min 0,0 UV-I 0 W/m 8,6 C 10,0 C 3,2 km/h (1 Bft)
25.05.2020 05:35 10,0 C 9,4 C 91 % 1034,0 hPa 0,0 l/m 6,4 km/h (2 Bft) W 270 0 min 0,0 UV-I 0 W/m 8,6 C 10,0 C 9,7 km/h (2 Bft)
25.05.2020 05:36 10,0 C 9,4 C 91 % 1034,1 hPa 0,0 l/m 4,8 km/h (1 Bft) W 270 0 min 0,0 UV-I 0 W/m 8,6 C 10,0 C 6,4 km/h (2 Bft)
25.05.2020 05:37 10,0 C 9,4 C 91 % 1034,1 hPa 0,0 l/m 3,2 km/h (1 Bft) W 270 0 min 0,0 UV-I 0 W/m 8,6 C 10,0 C 4,8 km/h (1 Bft)
25.05.2020 05:38 10,0 C 9,4 C 91 % 1034,0 hPa 0,0 l/m 1,6 km/h (1 Bft) W 270 0 min 0,0 UV-I 0 W/m 8,6 C 10,0 C 4,8 km/h (1 Bft)
25.05.2020 05:39 10,0 C 9,4 C 91 % 1034,0 hPa 0,0 l/m 3,2 km/h (1 Bft) W 270 0 min 0,0 UV-I 0 W/m 8,6 C 10,0 C 4,8 km/h (1 Bft)
25.05.2020 05:40 10,0 C 9,4 C 91 % 1034,1 hPa 0,0 l/m 3,2 km/h (1 Bft) W 270 0 min 0,0 UV-I 0 W/m 8,6 C 10,0 C 6,4 km/h (2 Bft)
25.05.2020 05:41 9,9 C 9,4 C 91 % 1034,1 hPa 0,0 l/m 3,2 km/h (1 Bft) W 270 0 min 0,0 UV-I 0 W/m 8,5 C 9,9 C 4,8 km/h (1 Bft)
25.05.2020 05:42 9,9 C 9,4 C 91 % 1034,1 hPa 0,0 l/m 1,6 km/h (1 Bft) W-NW 292 0 min 0,0 UV-I 0 W/m 8,5 C 9,9 C 4,8 km/h (1 Bft)
25.05.2020 05:43 9,9 C 9,4 C 91 % 1034,1 hPa 0,0 l/m 3,2 km/h (1 Bft) W 270 0 min 0,0 UV-I 0 W/m 8,5 C 9,9 C 4,8 km/h (1 Bft)
25.05.2020 05:44 10,0 C 9,4 C 91 % 1034,1 hPa 0,0 l/m 4,8 km/h (1 Bft) W 270 0 min 0,0 UV-I 0 W/m 8,6 C 10,0 C 6,4 km/h (2 Bft)
25.05.2020 05:45 9,9 C 9,4 C 91 % 1034,1 hPa 0,0 l/m 4,8 km/h (1 Bft) W-SW 247 0 min 0,0 UV-I 0 W/m 8,5 C 9,9 C 6,4 km/h (2 Bft)
25.05.2020 05:46 10,0 C 9,4 C 91 % 1034,2 hPa 0,0 l/m 3,2 km/h (1 Bft) W 270 0 min 0,0 UV-I 0 W/m 8,6 C 10,0 C 4,8 km/h (1 Bft)
25.05.2020 05:47 9,9 C 9,4 C 91 % 1034,1 hPa 0,0 l/m 8,0 km/h (2 Bft) W 270 0 min 0,0 UV-I 0 W/m 8,5 C 8,7 C 14,5 km/h (3 Bft)
25.05.2020 05:48 9,9 C 9,4 C 91 % 1034,1 hPa 0,0 l/m 6,4 km/h (2 Bft) W-NW 292 0 min 0,0 UV-I 5 W/m 8,5 C 9,9 C 8,0 km/h (2 Bft)
25.05.2020 05:49 10,0 C 9,4 C 91 % 1034,1 hPa 0,0 l/m 3,2 km/h (1 Bft) W 270 0 min 0,0 UV-I 5 W/m 8,6 C 10,0 C 3,2 km/h (1 Bft)
25.05.2020 05:50 10,0 C 9,4 C 91 % 1034,1 hPa 0,0 l/m 1,6 km/h (1 Bft) W 270 0 min 0,0 UV-I 5 W/m 8,6 C 10,0 C 4,8 km/h (1 Bft)
25.05.2020 05:51 10,0 C 9,4 C 91 % 1034,2 hPa 0,0 l/m 1,6 km/h (1 Bft) W 270 0 min 0,0 UV-I 5 W/m 8,6 C 10,0 C 3,2 km/h (1 Bft)
25.05.2020 05:52 10,0 C 9,4 C 91 % 1034,2 hPa 0,0 l/m 3,2 km/h (1 Bft) W 270 0 min 0,0 UV-I 5 W/m 8,6 C 10,0 C 6,4 km/h (2 Bft)
25.05.2020 05:53 10,0 C 9,4 C 91 % 1034,2 hPa 0,0 l/m 3,2 km/h (1 Bft) W-NW 292 0 min 0,0 UV-I 7 W/m 8,6 C 10,0 C 6,4 km/h (2 Bft)
25.05.2020 05:54 10,1 C 9,4 C 91 % 1034,1 hPa 0,0 l/m 6,4 km/h (2 Bft) W 270 0 min 0,0 UV-I 7 W/m 8,7 C 10,1 C 11,3 km/h (2 Bft)
25.05.2020 05:55 10,1 C 9,4 C 91 % 1034,2 hPa 0,0 l/m 6,4 km/h (2 Bft) W-SW 247 0 min 0,0 UV-I 7 W/m 8,7 C 10,1 C 11,3 km/h (2 Bft)
25.05.2020 05:56 10,1 C 9,4 C 91 % 1034,2 hPa 0,0 l/m 6,4 km/h (2 Bft) W 270 0 min 0,0 UV-I 9 W/m 8,7 C 10,1 C 11,3 km/h (2 Bft)
25.05.2020 05:57 10,1 C 9,4 C 91 % 1034,2 hPa 0,0 l/m 4,8 km/h (1 Bft) W 270 0 min 0,0 UV-I 9 W/m 8,7 C 10,1 C 9,7 km/h (2 Bft)
25.05.2020 05:58 10,1 C 9,4 C 91 % 1034,2 hPa 0,0 l/m 3,2 km/h (1 Bft) W 270 0 min 0,0 UV-I 9 W/m 8,7 C 10,1 C 4,8 km/h (1 Bft)
25.05.2020 05:59 10,1 C 9,4 C 91 % 1034,2 hPa 0,0 l/m 4,8 km/h (1 Bft) W-SW 247 0 min 0,0 UV-I 9 W/m 8,7 C 10,1 C 6,4 km/h (2 Bft)
25.05.2020 06:00 10,1 C 9,4 C 91 % 1034,2 hPa 0,0 l/m 3,2 km/h (1 Bft) W-SW 247 0 min 0,0 UV-I 9 W/m 8,7 C 10,1 C 4,8 km/h (1 Bft)
25.05.2020 06:01 10,1 C 9,4 C 91 % 1034,2 hPa 0,0 l/m 4,8 km/h (1 Bft) W 270 0 min 0,0 UV-I 11 W/m 8,7 C 10,1 C 6,4 km/h (2 Bft)
25.05.2020 06:02 10,0 C 9,4 C 91 % 1034,1 hPa 0,0 l/m 3,2 km/h (1 Bft) W 270 0 min 0,0 UV-I 11 W/m 8,6 C 10,0 C 6,4 km/h (2 Bft)
25.05.2020 06:03 10,1 C 9,4 C 91 % 1034,1 hPa 0,0 l/m 4,8 km/h (1 Bft) W 270 0 min 0,0 UV-I 11 W/m 8,7 C 10,1 C 9,7 km/h (2 Bft)
25.05.2020 06:04 10,1 C 9,4 C 91 % 1034,2 hPa 0,0 l/m 3,2 km/h (1 Bft) W 270 0 min 0,0 UV-I 11 W/m 8,7 C 10,1 C 4,8 km/h (1 Bft)
25.05.2020 06:05 10,1 C 9,4 C 91 % 1034,2 hPa 0,0 l/m 3,2 km/h (1 Bft) W 270 0 min 0,0 UV-I 12 W/m 8,7 C 10,1 C 6,4 km/h (2 Bft)
25.05.2020 06:06 10,1 C 9,4 C 91 % 1034,2 hPa 0,0 l/m 6,4 km/h (2 Bft) W-SW 247 0 min 0,0 UV-I 12 W/m 8,7 C 10,1 C 9,7 km/h (2 Bft)
25.05.2020 06:07 10,1 C 9,4 C 91 % 1034,3 hPa 0,0 l/m 4,8 km/h (1 Bft) W 270 0 min 0,0 UV-I 12 W/m 8,7 C 10,1 C 8,0 km/h (2 Bft)
25.05.2020 06:08 10,0 C 9,4 C 91 % 1034,2 hPa 0,0 l/m 1,6 km/h (1 Bft) W 270 0 min 0,0 UV-I 14 W/m 8,6 C 10,0 C 3,2 km/h (1 Bft)
25.05.2020 06:09 10,1 C 9,4 C 91 % 1034,3 hPa 0,0 l/m 1,6 km/h (1 Bft) W 270 0 min 0,0 UV-I 14 W/m 8,7 C 10,1 C 3,2 km/h (1 Bft)
25.05.2020 06:10 10,1 C 9,4 C 91 % 1034,2 hPa 0,0 l/m 0,0 km/h (0 Bft) W 270 0 min 0,0 UV-I 14 W/m 8,7 C 10,1 C 1,6 km/h (1 Bft)
25.05.2020 06:11 10,1 C 9,4 C 91 % 1034,2 hPa 0,0 l/m 3,2 km/h (1 Bft) W-SW 247 0 min 0,0 UV-I 16 W/m 8,7 C 10,1 C 6,4 km/h (2 Bft)
25.05.2020 06:12 10,1 C 9,4 C 91 % 1034,2 hPa 0,0 l/m 6,4 km/h (2 Bft) W 270 0 min 0,0 UV-I 14 W/m 8,7 C 10,1 C 11,3 km/h (2 Bft)
25.05.2020 06:13 10,1 C 9,4 C 91 % 1034,2 hPa 0,0 l/m 3,2 km/h (1 Bft) W 270 0 min 0,0 UV-I 14 W/m 8,7 C 10,1 C 4,8 km/h (1 Bft)
25.05.2020 06:14 10,1 C 9,4 C 91 % 1034,3 hPa 0,0 l/m 3,2 km/h (1 Bft) W 270 0 min 0,0 UV-I 16 W/m 8,7 C 10,1 C 4,8 km/h (1 Bft)
25.05.2020 06:15 10,1 C 9,4 C 91 % 1034,2 hPa 0,0 l/m 3,2 km/h (1 Bft) W 270 0 min 0,0 UV-I 16 W/m 8,7 C 10,1 C 6,4 km/h (2 Bft)
25.05.2020 06:16 10,1 C 9,4 C 91 % 1034,2 hPa 0,0 l/m 1,6 km/h (1 Bft) W 270 0 min 0,0 UV-I 16 W/m 8,7 C 10,1 C 6,4 km/h (2 Bft)
25.05.2020 06:17 10,1 C 9,4 C 91 % 1034,3 hPa 0,0 l/m 4,8 km/h (1 Bft) W 270 0 min 0,0 UV-I 16 W/m 8,7 C 10,1 C 6,4 km/h (2 Bft)
25.05.2020 06:18 10,1 C 9,4 C 91 % 1034,2 hPa 0,0 l/m 4,8 km/h (1 Bft) W 270 0 min 0,0 UV-I 19 W/m 8,7 C 10,1 C 6,4 km/h (2 Bft)
25.05.2020 06:19 10,1 C 9,4 C 91 % 1034,2 hPa 0,0 l/m 0,0 km/h (0 Bft) W 270 0 min 0,0 UV-I 20 W/m 8,7 C 10,1 C 1,6 km/h (1 Bft)
25.05.2020 06:20 10,1 C 10,0 C 91 % 1034,3 hPa 0,0 l/m 0,0 km/h (0 Bft) N 0 0 min 0,0 UV-I 23 W/m 8,7 C 10,1 C 0,0 km/h (0 Bft)
25.05.2020 06:21 10,2 C 10,0 C 91 % 1034,3 hPa 0,0 l/m 1,6 km/h (1 Bft) W 270 0 min 0,0 UV-I 23 W/m 8,8 C 10,2 C 1,6 km/h (1 Bft)
25.05.2020 06:22 10,2 C 10,0 C 91 % 1034,2 hPa 0,0 l/m 1,6 km/h (1 Bft) W 270 0 min 0,0 UV-I 25 W/m 8,8 C 10,2 C 4,8 km/h (1 Bft)
25.05.2020 06:23 10,2 C 10,0 C 91 % 1034,4 hPa 0,0 l/m 3,2 km/h (1 Bft) SW 225 0 min 0,0 UV-I 25 W/m 8,8 C 10,2 C 6,4 km/h (2 Bft)
25.05.2020 06:24 10,2 C 10,0 C 91 % 1034,3 hPa 0,0 l/m 1,6 km/h (1 Bft) SW 225 0 min 0,0 UV-I 26 W/m 8,8 C 10,2 C 4,8 km/h (1 Bft)
25.05.2020 06:25 10,2 C 10,0 C 91 % 1034,4 hPa 0,0 l/m 3,2 km/h (1 Bft) W 270 0 min 0,0 UV-I 29 W/m 8,8 C 10,2 C 4,8 km/h (1 Bft)
25.05.2020 06:26 10,2 C 10,0 C 91 % 1034,3 hPa 0,0 l/m 4,8 km/h (1 Bft) W 270 0 min 0,0 UV-I 30 W/m 8,8 C 10,2 C 6,4 km/h (2 Bft)
25.05.2020 06:27 10,2 C 10,0 C 91 % 1034,3 hPa 0,0 l/m 3,2 km/h (1 Bft) W-SW 247 0 min 0,0 UV-I 32 W/m 8,8 C 10,2 C 4,8 km/h (1 Bft)
25.05.2020 06:28 10,2 C 10,0 C 91 % 1034,3 hPa 0,0 l/m 3,2 km/h (1 Bft) W-SW 247 0 min 0,0 UV-I 32 W/m 8,8 C 10,2 C 4,8 km/h (1 Bft)
25.05.2020 06:29 10,2 C 10,0 C 91 % 1034,3 hPa 0,0 l/m 3,2 km/h (1 Bft) W-SW 247 0 min 0,0 UV-I 33 W/m 8,8 C 10,2 C 4,8 km/h (1 Bft)
25.05.2020 06:30 10,2 C 10,0 C 91 % 1034,3 hPa 0,0 l/m 3,2 km/h (1 Bft) W-SW 247 0 min 0,0 UV-I 35 W/m 8,8 C 10,2 C 4,8 km/h (1 Bft)
25.05.2020 06:31 10,3 C 10,0 C 91 % 1034,2 hPa 0,0 l/m 4,8 km/h (1 Bft) W-SW 247 0 min 0,0 UV-I 37 W/m 8,9 C 10,3 C 6,4 km/h (2 Bft)
25.05.2020 06:32 10,2 C 10,0 C 91 % 1034,2 hPa 0,0 l/m 3,2 km/h (1 Bft) W 270 0 min 0,0 UV-I 37 W/m 8,8 C 10,2 C 4,8 km/h (1 Bft)
25.05.2020 06:33 10,3 C 10,0 C 91 % 1034,2 hPa 0,0 l/m 3,2 km/h (1 Bft) W-SW 247 0 min 0,0 UV-I 37 W/m 8,9 C 10,3 C 3,2 km/h (1 Bft)
25.05.2020 06:34 10,3 C 10,0 C 91 % 1034,2 hPa 0,0 l/m 4,8 km/h (1 Bft) W 270 0 min 0,0 UV-I 37 W/m 8,9 C 10,3 C 9,7 km/h (2 Bft)
25.05.2020 06:35 10,3 C 10,0 C 91 % 1034,2 hPa 0,0 l/m 4,8 km/h (1 Bft) W 270 0 min 0,0 UV-I 39 W/m 8,9 C 10,3 C 6,4 km/h (2 Bft)
25.05.2020 06:36 10,3 C 10,0 C 91 % 1034,3 hPa 0,0 l/m 3,2 km/h (1 Bft) W 270 0 min 0,0 UV-I 39 W/m 8,9 C 10,3 C 4,8 km/h (1 Bft)
25.05.2020 06:37 10,3 C 10,0 C 91 % 1034,2 hPa 0,0 l/m 4,8 km/h (1 Bft) W 270 0 min 0,0 UV-I 40 W/m 8,9 C 10,3 C 4,8 km/h (1 Bft)
25.05.2020 06:38 10,3 C 10,0 C 91 % 1034,3 hPa 0,0 l/m 4,8 km/h (1 Bft) W 270 0 min 0,0 UV-I 42 W/m 8,9 C 10,3 C 6,4 km/h (2 Bft)
25.05.2020 06:39 10,3 C 10,0 C 91 % 1034,2 hPa 0,0 l/m 3,2 km/h (1 Bft) W 270 0 min 0,0 UV-I 40 W/m 8,9 C 10,3 C 4,8 km/h (1 Bft)
25.05.2020 06:40 10,3 C 10,0 C 91 % 1034,2 hPa 0,0 l/m 4,8 km/h (1 Bft) W 270 0 min 0,0 UV-I 39 W/m 8,9 C 10,3 C 6,4 km/h (2 Bft)
25.05.2020 06:41 10,3 C 10,0 C 91 % 1034,2 hPa 0,0 l/m 3,2 km/h (1 Bft) W 270 0 min 0,0 UV-I 39 W/m 8,9 C 10,3 C 6,4 km/h (2 Bft)
25.05.2020 06:42 10,3 C 10,0 C 91 % 1034,2 hPa 0,0 l/m 3,2 km/h (1 Bft) W 270 0 min 0,0 UV-I 39 W/m 8,9 C 10,3 C 6,4 km/h (2 Bft)
25.05.2020 06:43 10,3 C 10,0 C 91 % 1034,2 hPa 0,0 l/m 4,8 km/h (1 Bft) W-NW 292 0 min 0,0 UV-I 39 W/m 8,9 C 10,3 C 8,0 km/h (2 Bft)
25.05.2020 06:44 10,3 C 10,0 C 91 % 1034,2 hPa 0,0 l/m 6,4 km/h (2 Bft) W 270 0 min 0,0 UV-I 37 W/m 8,9 C 10,3 C 9,7 km/h (2 Bft)
25.05.2020 06:45 10,3 C 10,6 C 91 % 1034,2 hPa 0,0 l/m 0,0 km/h (0 Bft) W 270 0 min 0,0 UV-I 37 W/m 8,9 C 10,3 C 1,6 km/h (1 Bft)
25.05.2020 06:46 10,3 C 10,6 C 91 % 1034,2 hPa 0,0 l/m 3,2 km/h (1 Bft) SW 225 0 min 0,0 UV-I 37 W/m 8,9 C 10,3 C 3,2 km/h (1 Bft)
25.05.2020 06:47 10,4 C 10,6 C 91 % 1034,2 hPa 0,0 l/m 1,6 km/h (1 Bft) SW 225 0 min 0,0 UV-I 33 W/m 9,0 C 10,4 C 3,2 km/h (1 Bft)
25.05.2020 06:48 10,4 C 10,6 C 91 % 1034,2 hPa 0,0 l/m 3,2 km/h (1 Bft) SW 225 0 min 0,0 UV-I 35 W/m 9,0 C 10,4 C 6,4 km/h (2 Bft)
25.05.2020 06:49 10,4 C 10,6 C 91 % 1034,3 hPa 0,0 l/m 4,8 km/h (1 Bft) W 270 0 min 0,0 UV-I 35 W/m 9,0 C 10,4 C 6,4 km/h (2 Bft)
25.05.2020 06:50 10,4 C 10,6 C 91 % 1034,3 hPa 0,0 l/m 1,6 km/h (1 Bft) W 270 0 min 0,0 UV-I 35 W/m 9,0 C 10,4 C 3,2 km/h (1 Bft)
25.05.2020 06:51 10,4 C 10,6 C 91 % 1034,2 hPa 0,0 l/m 1,6 km/h (1 Bft) W 270 0 min 0,0 UV-I 35 W/m 9,0 C 10,4 C 3,2 km/h (1 Bft)
25.05.2020 06:52 10,4 C 10,6 C 91 % 1034,2 hPa 0,0 l/m 6,4 km/h (2 Bft) W-SW 247 0 min 0,0 UV-I 35 W/m 9,0 C 10,4 C 8,0 km/h (2 Bft)
25.05.2020 06:53 10,4 C 10,6 C 90 % 1034,2 hPa 0,0 l/m 8,0 km/h (2 Bft) W 270 0 min 0,0 UV-I 32 W/m 8,8 C 9,3 C 11,3 km/h (2 Bft)
25.05.2020 06:54 10,4 C 10,6 C 90 % 1034,2 hPa 0,0 l/m 4,8 km/h (1 Bft) W 270 0 min 0,0 UV-I 33 W/m 8,8 C 10,4 C 6,4 km/h (2 Bft)
25.05.2020 06:55 10,4 C 10,6 C 90 % 1034,3 hPa 0,0 l/m 1,6 km/h (1 Bft) W 270 0 min 0,0 UV-I 33 W/m 8,8 C 10,4 C 4,8 km/h (1 Bft)
25.05.2020 06:56 10,4 C 10,6 C 90 % 1034,2 hPa 0,0 l/m 1,6 km/h (1 Bft) W 270 0 min 0,0 UV-I 33 W/m 8,8 C 10,4 C 3,2 km/h (1 Bft)
25.05.2020 06:57 10,4 C 10,6 C 90 % 1034,3 hPa 0,0 l/m 1,6 km/h (1 Bft) W 270 0 min 0,0 UV-I 35 W/m 8,8 C 10,4 C 3,2 km/h (1 Bft)
25.05.2020 06:58 10,5 C 10,6 C 91 % 1034,2 hPa 0,0 l/m 1,6 km/h (1 Bft) W 270 0 min 0,0 UV-I 35 W/m 9,1 C 10,5 C 3,2 km/h (1 Bft)
25.05.2020 06:59 10,5 C 10,6 C 90 % 1034,3 hPa 0,0 l/m 1,6 km/h (1 Bft) W 270 0 min 0,0 UV-I 37 W/m 8,9 C 10,5 C 3,2 km/h (1 Bft)
25.05.2020 07:00 10,5 C 10,6 C 90 % 1034,2 hPa 0,0 l/m 3,2 km/h (1 Bft) W-SW 247 0 min 0,0 UV-I 43 W/m 8,9 C 10,5 C 4,8 km/h (1 Bft)
25.05.2020 07:01 10,5 C 10,6 C 90 % 1034,3 hPa 0,0 l/m 1,6 km/h (1 Bft) W-SW 247 0 min 0,0 UV-I 46 W/m 8,9 C 10,5 C 4,8 km/h (1 Bft)
25.05.2020 07:02 10,5 C 10,6 C 90 % 1034,2 hPa 0,0 l/m 4,8 km/h (1 Bft) W-NW 292 0 min 0,0 UV-I 49 W/m 8,9 C 10,5 C 8,0 km/h (2 Bft)
25.05.2020 07:03 10,5 C 10,6 C 90 % 1034,2 hPa 0,0 l/m 4,8 km/h (1 Bft) W 270 0 min 0,0 UV-I 49 W/m 8,9 C 10,5 C 6,4 km/h (2 Bft)
25.05.2020 07:04 10,5 C 10,6 C 90 % 1034,3 hPa 0,0 l/m 6,4 km/h (2 Bft) W 270 0 min 0,0 UV-I 46 W/m 8,9 C 10,5 C 9,7 km/h (2 Bft)
25.05.2020 07:05 10,6 C 10,6 C 90 % 1034,3 hPa 0,0 l/m 4,8 km/h (1 Bft) W-SW 247 0 min 0,0 UV-I 42 W/m 9,0 C 10,6 C 8,0 km/h (2 Bft)
25.05.2020 07:06 10,6 C 10,6 C 90 % 1034,3 hPa 0,0 l/m 4,8 km/h (1 Bft) W 270 0 min 0,0 UV-I 47 W/m 9,0 C 10,6 C 6,4 km/h (2 Bft)
25.05.2020 07:07 10,6 C 10,6 C 90 % 1034,3 hPa 0,0 l/m 6,4 km/h (2 Bft) W-SW 247 0 min 0,0 UV-I 56 W/m 9,0 C 10,6 C 11,3 km/h (2 Bft)
25.05.2020 07:08 10,6 C 10,6 C 90 % 1034,2 hPa 0,0 l/m 4,8 km/h (1 Bft) W 270 0 min 0,0 UV-I 58 W/m 9,0 C 10,6 C 6,4 km/h (2 Bft)
25.05.2020 07:09 10,6 C 10,6 C 90 % 1034,3 hPa 0,0 l/m 3,2 km/h (1 Bft) W-NW 292 0 min 0,0 UV-I 62 W/m 9,0 C 10,6 C 3,2 km/h (1 Bft)
25.05.2020 07:10 10,6 C 10,6 C 91 % 1034,3 hPa 0,0 l/m 1,6 km/h (1 Bft) W-NW 292 0 min 0,0 UV-I 67 W/m 9,2 C 10,6 C 3,2 km/h (1 Bft)
25.05.2020 07:11 10,6 C 10,6 C 91 % 1034,2 hPa 0,0 l/m 4,8 km/h (1 Bft) NW 315 0 min 0,0 UV-I 73 W/m 9,2 C 10,6 C 6,4 km/h (2 Bft)
25.05.2020 07:12 10,6 C 11,1 C 91 % 1034,2 hPa 0,0 l/m 1,6 km/h (1 Bft) W-NW 292 0 min 0,0 UV-I 74 W/m 9,2 C 10,6 C 3,2 km/h (1 Bft)
25.05.2020 07:13 10,7 C 11,1 C 90 % 1034,3 hPa 0,0 l/m 3,2 km/h (1 Bft) W-NW 292 0 min 0,0 UV-I 76 W/m 9,1 C 10,7 C 4,8 km/h (1 Bft)
25.05.2020 07:14 10,7 C 11,1 C 91 % 1034,2 hPa 0,0 l/m 4,8 km/h (1 Bft) W 270 0 min 0,0 UV-I 76 W/m 9,3 C 10,7 C 6,4 km/h (2 Bft)
25.05.2020 07:15 10,7 C 11,1 C 90 % 1034,2 hPa 0,0 l/m 3,2 km/h (1 Bft) W 270 0 min 0,0 UV-I 77 W/m 9,1 C 10,7 C 4,8 km/h (1 Bft)
25.05.2020 07:16 10,7 C 11,1 C 90 % 1034,3 hPa 0,0 l/m 4,8 km/h (1 Bft) W 270 0 min 0,0 UV-I 77 W/m 9,1 C 10,7 C 6,4 km/h (2 Bft)
25.05.2020 07:17 10,7 C 11,1 C 90 % 1034,3 hPa 0,0 l/m 1,6 km/h (1 Bft) NW 315 0 min 0,0 UV-I 77 W/m 9,1 C 10,7 C 4,8 km/h (1 Bft)
25.05.2020 07:18 10,7 C 11,1 C 90 % 1034,3 hPa 0,0 l/m 3,2 km/h (1 Bft) W 270 0 min 0,0 UV-I 74 W/m 9,1 C 10,7 C 4,8 km/h (1 Bft)
25.05.2020 07:19 10,7 C 11,1 C 90 % 1034,3 hPa 0,0 l/m 4,8 km/h (1 Bft) W-NW 292 0 min 0,0 UV-I 77 W/m 9,1 C 10,7 C 9,7 km/h (2 Bft)
25.05.2020 07:20 10,7 C 11,1 C 90 % 1034,4 hPa 0,0 l/m 1,6 km/h (1 Bft) NW 315 0 min 0,0 UV-I 81 W/m 9,1 C 10,7 C 3,2 km/h (1 Bft)
25.05.2020 07:21 10,8 C 11,1 C 90 % 1034,4 hPa 0,0 l/m 1,6 km/h (1 Bft) NW 315 0 min 0,0 UV-I 84 W/m 9,2 C 10,8 C 3,2 km/h (1 Bft)
25.05.2020 07:22 10,8 C 11,1 C 90 % 1034,3 hPa 0,0 l/m 1,6 km/h (1 Bft) NW 315 0 min 0,0 UV-I 88 W/m 9,2 C 10,8 C 3,2 km/h (1 Bft)
25.05.2020 07:23 10,8 C 11,1 C 90 % 1034,4 hPa 0,0 l/m 3,2 km/h (1 Bft) W-NW 292 0 min 0,5 UV-I 93 W/m 9,2 C 10,8 C 3,2 km/h (1 Bft)
25.05.2020 07:24 10,8 C 11,1 C 90 % 1034,4 hPa 0,0 l/m 1,6 km/h (1 Bft) W-NW 292 0 min 0,5 UV-I 102 W/m 9,2 C 10,8 C 3,2 km/h (1 Bft)
25.05.2020 07:25 10,8 C 11,7 C 90 % 1034,4 hPa 0,0 l/m 4,8 km/h (1 Bft) W 270 0 min 0,5 UV-I 146 W/m 9,2 C 10,8 C 6,4 km/h (2 Bft)
25.05.2020 07:26 10,9 C 11,7 C 90 % 1034,4 hPa 0,0 l/m 4,8 km/h (1 Bft) W 270 0 min 0,5 UV-I 116 W/m 9,3 C 10,9 C 6,4 km/h (2 Bft)
25.05.2020 07:27 10,9 C 11,7 C 90 % 1034,4 hPa 0,0 l/m 1,6 km/h (1 Bft) W 270 0 min 0,5 UV-I 116 W/m 9,3 C 10,9 C 6,4 km/h (2 Bft)
25.05.2020 07:28 10,9 C 11,7 C 90 % 1034,4 hPa 0,0 l/m 4,8 km/h (1 Bft) NW 315 0 min 0,5 UV-I 104 W/m 9,3 C 10,9 C 8,0 km/h (2 Bft)
25.05.2020 07:29 10,9 C 11,7 C 90 % 1034,4 hPa 0,0 l/m 3,2 km/h (1 Bft) NW 315 0 min 0,5 UV-I 83 W/m 9,3 C 10,9 C 6,4 km/h (2 Bft)
25.05.2020 07:30 10,9 C 11,7 C 90 % 1034,4 hPa 0,0 l/m 4,8 km/h (1 Bft) W 270 0 min 0,5 UV-I 76 W/m 9,3 C 10,9 C 6,4 km/h (2 Bft)
25.05.2020 07:31 11,0 C 11,7 C 90 % 1034,4 hPa 0,0 l/m 4,8 km/h (1 Bft) N-NW 337 0 min 0,0 UV-I 72 W/m 9,4 C 11,0 C 6,4 km/h (2 Bft)
25.05.2020 07:32 11,0 C 11,7 C 90 % 1034,5 hPa 0,0 l/m 6,4 km/h (2 Bft) NW 315 0 min 0,0 UV-I 67 W/m 9,4 C 11,0 C 9,7 km/h (2 Bft)
25.05.2020 07:33 10,9 C 11,7 C 90 % 1034,5 hPa 0,0 l/m 4,8 km/h (1 Bft) W-NW 292 0 min 0,0 UV-I 69 W/m 9,3 C 10,9 C 9,7 km/h (2 Bft)
25.05.2020 07:34 10,9 C 11,1 C 90 % 1034,4 hPa 0,0 l/m 3,2 km/h (1 Bft) NW 315 0 min 0,0 UV-I 65 W/m 9,3 C 10,9 C 6,4 km/h (2 Bft)
25.05.2020 07:35 10,9 C 11,1 C 90 % 1034,5 hPa 0,0 l/m 3,2 km/h (1 Bft) NW 315 0 min 0,0 UV-I 67 W/m 9,3 C 10,9 C 8,0 km/h (2 Bft)
25.05.2020 07:36 10,9 C 11,1 C 90 % 1034,5 hPa 0,0 l/m 1,6 km/h (1 Bft) NW 315 0 min 0,3 UV-I 74 W/m 9,3 C 10,9 C 6,4 km/h (2 Bft)
25.05.2020 07:37 10,9 C 11,7 C 89 % 1034,5 hPa 0,0 l/m 1,6 km/h (1 Bft) W 270 0 min 0,5 UV-I 76 W/m 9,2 C 10,9 C 4,8 km/h (1 Bft)
25.05.2020 07:38 11,0 C 11,7 C 89 % 1034,5 hPa 0,0 l/m 1,6 km/h (1 Bft) W 270 0 min 0,0 UV-I 69 W/m 9,3 C 11,0 C 4,8 km/h (1 Bft)
25.05.2020 07:39 10,9 C 11,7 C 89 % 1034,6 hPa 0,0 l/m 6,4 km/h (2 Bft) NW 315 0 min 0,0 UV-I 67 W/m 9,2 C 10,9 C 8,0 km/h (2 Bft)
25.05.2020 07:40 11,0 C 11,7 C 90 % 1034,5 hPa 0,0 l/m 4,8 km/h (1 Bft) W-NW 292 0 min 0,0 UV-I 69 W/m 9,4 C 11,0 C 6,4 km/h (2 Bft)
25.05.2020 07:41 11,1 C 11,7 C 90 % 1034,6 hPa 0,0 l/m 3,2 km/h (1 Bft) W-NW 292 0 min 0,0 UV-I 69 W/m 9,5 C 11,1 C 4,8 km/h (1 Bft)
25.05.2020 07:42 11,0 C 11,7 C 89 % 1034,6 hPa 0,0 l/m 4,8 km/h (1 Bft) NW 315 0 min 0,0 UV-I 70 W/m 9,3 C 11,0 C 6,4 km/h (2 Bft)
25.05.2020 07:43 11,0 C 11,1 C 89 % 1034,6 hPa 0,0 l/m 6,4 km/h (2 Bft) NW 315 0 min 0,0 UV-I 70 W/m 9,3 C 11,0 C 9,7 km/h (2 Bft)
25.05.2020 07:44 11,0 C 11,1 C 89 % 1034,7 hPa 0,0 l/m 3,2 km/h (1 Bft) NW 315 0 min 0,0 UV-I 70 W/m 9,3 C 11,0 C 4,8 km/h (1 Bft)
25.05.2020 07:45 11,1 C 11,1 C 89 % 1034,7 hPa 0,0 l/m 1,6 km/h (1 Bft) NW 315 0 min 0,0 UV-I 74 W/m 9,4 C 11,1 C 4,8 km/h (1 Bft)
25.05.2020 07:46 11,1 C 11,7 C 89 % 1034,6 hPa 0,0 l/m 4,8 km/h (1 Bft) NW 315 0 min 0,0 UV-I 74 W/m 9,4 C 11,1 C 9,7 km/h (2 Bft)
25.05.2020 07:47 11,1 C 11,7 C 89 % 1034,7 hPa 0,0 l/m 6,4 km/h (2 Bft) W-NW 292 0 min 0,0 UV-I 70 W/m 9,4 C 11,1 C 9,7 km/h (2 Bft)
25.05.2020 07:48 11,1 C 11,7 C 89 % 1034,7 hPa 0,0 l/m 4,8 km/h (1 Bft) NW 315 0 min 0,0 UV-I 70 W/m 9,4 C 11,1 C 6,4 km/h (2 Bft)
25.05.2020 07:49 11,1 C 11,7 C 89 % 1034,7 hPa 0,0 l/m 3,2 km/h (1 Bft) W-NW 292 0 min 0,0 UV-I 70 W/m 9,4 C 11,1 C 6,4 km/h (2 Bft)
25.05.2020 07:50 11,1 C 11,7 C 89 % 1034,6 hPa 0,0 l/m 1,6 km/h (1 Bft) NW 315 0 min 0,0 UV-I 74 W/m 9,4 C 11,1 C 3,2 km/h (1 Bft)
25.05.2020 07:51 11,1 C 11,7 C 89 % 1034,8 hPa 0,0 l/m 1,6 km/h (1 Bft) NW 315 0 min 0,0 UV-I 76 W/m 9,4 C 11,1 C 3,2 km/h (1 Bft)
25.05.2020 07:52 11,1 C 11,7 C 89 % 1034,7 hPa 0,0 l/m 1,6 km/h (1 Bft) NW 315 0 min 0,0 UV-I 74 W/m 9,4 C 11,1 C 4,8 km/h (1 Bft)
25.05.2020 07:53 11,1 C 11,7 C 89 % 1034,7 hPa 0,0 l/m 1,6 km/h (1 Bft) NW 315 0 min 0,0 UV-I 74 W/m 9,4 C 11,1 C 3,2 km/h (1 Bft)
25.05.2020 07:54 11,2 C 11,7 C 90 % 1034,8 hPa 0,0 l/m 3,2 km/h (1 Bft) NW 315 0 min 0,0 UV-I 72 W/m 9,6 C 11,2 C 4,8 km/h (1 Bft)
25.05.2020 07:55 11,2 C 11,7 C 90 % 1034,8 hPa 0,0 l/m 4,8 km/h (1 Bft) W-NW 292 0 min 0,0 UV-I 65 W/m 9,6 C 11,2 C 9,7 km/h (2 Bft)
25.05.2020 07:56 11,2 C 11,7 C 89 % 1034,8 hPa 0,0 l/m 8,0 km/h (2 Bft) NW 315 0 min 0,0 UV-I 67 W/m 9,5 C 10,1 C 11,3 km/h (2 Bft)
25.05.2020 07:57 11,2 C 11,7 C 89 % 1034,8 hPa 0,0 l/m 3,2 km/h (1 Bft) W-NW 292 0 min 0,0 UV-I 69 W/m 9,5 C 11,2 C 6,4 km/h (2 Bft)
25.05.2020 07:58 11,2 C 11,7 C 89 % 1034,7 hPa 0,0 l/m 1,6 km/h (1 Bft) W-NW 292 0 min 0,0 UV-I 72 W/m 9,5 C 11,2 C 3,2 km/h (1 Bft)
25.05.2020 07:59 11,2 C 11,7 C 89 % 1034,8 hPa 0,0 l/m 1,6 km/h (1 Bft) W-NW 292 0 min 0,3 UV-I 77 W/m 9,5 C 11,2 C 3,2 km/h (1 Bft)
25.05.2020 08:00 11,2 C 11,7 C 89 % 1034,8 hPa 0,0 l/m 1,6 km/h (1 Bft) W-NW 292 0 min 0,5 UV-I 86 W/m 9,5 C 11,2 C 4,8 km/h (1 Bft)
25.05.2020 08:01 11,2 C 11,7 C 89 % 1034,8 hPa 0,0 l/m 3,2 km/h (1 Bft) N 360 0 min 0,6 UV-I 95 W/m 9,5 C 11,2 C 4,8 km/h (1 Bft)
25.05.2020 08:02 11,2 C 11,7 C 89 % 1034,8 hPa 0,0 l/m 1,6 km/h (1 Bft) NW 315 0 min 0,5 UV-I 93 W/m 9,5 C 11,2 C 4,8 km/h (1 Bft)
25.05.2020 08:03 11,2 C 11,7 C 89 % 1034,8 hPa 0,0 l/m 4,8 km/h (1 Bft) NW 315 0 min 0,5 UV-I 91 W/m 9,5 C 11,2 C 8,0 km/h (2 Bft)
25.05.2020 08:04 11,2 C 11,7 C 89 % 1034,8 hPa 0,0 l/m 3,2 km/h (1 Bft) NW 315 0 min 0,5 UV-I 92 W/m 9,5 C 11,2 C 6,4 km/h (2 Bft)
25.05.2020 08:05 11,2 C 12,2 C 89 % 1034,8 hPa 0,0 l/m 3,2 km/h (1 Bft) NW 315 0 min 0,5 UV-I 84 W/m 9,5 C 11,2 C 6,4 km/h (2 Bft)
25.05.2020 08:06 11,3 C 12,2 C 89 % 1034,9 hPa 0,0 l/m 3,2 km/h (1 Bft) NW 315 0 min 0,0 UV-I 74 W/m 9,6 C 11,3 C 8,0 km/h (2 Bft)
25.05.2020 08:07 11,3 C 12,2 C 89 % 1034,8 hPa 0,0 l/m 1,6 km/h (1 Bft) NW 315 0 min 0,0 UV-I 72 W/m 9,6 C 11,3 C 3,2 km/h (1 Bft)
25.05.2020 08:08 11,3 C 12,2 C 89 % 1034,9 hPa 0,0 l/m 0,0 km/h (0 Bft) NW 315 0 min 0,0 UV-I 76 W/m 9,6 C 11,3 C 1,6 km/h (1 Bft)
25.05.2020 08:09 11,3 C 12,2 C 89 % 1034,8 hPa 0,0 l/m 1,6 km/h (1 Bft) W 270 0 min 0,0 UV-I 70 W/m 9,6 C 11,3 C 4,8 km/h (1 Bft)
25.05.2020 08:10 11,3 C 12,2 C 89 % 1034,7 hPa 0,0 l/m 3,2 km/h (1 Bft) W 270 0 min 0,0 UV-I 65 W/m 9,6 C 11,3 C 9,7 km/h (2 Bft)
25.05.2020 08:11 11,3 C 12,2 C 89 % 1034,7 hPa 0,0 l/m 1,6 km/h (1 Bft) W 270 0 min 0,0 UV-I 76 W/m 9,6 C 11,3 C 4,8 km/h (1 Bft)
25.05.2020 08:12 11,3 C 12,2 C 89 % 1034,8 hPa 0,0 l/m 4,8 km/h (1 Bft) W 270 0 min 0,0 UV-I 76 W/m 9,6 C 11,3 C 6,4 km/h (2 Bft)
25.05.2020 08:13 11,3 C 11,7 C 89 % 1034,8 hPa 0,0 l/m 3,2 km/h (1 Bft) W-SW 247 0 min 0,5 UV-I 77 W/m 9,6 C 11,3 C 4,8 km/h (1 Bft)
25.05.2020 08:14 11,3 C 12,2 C 88 % 1034,8 hPa 0,0 l/m 4,8 km/h (1 Bft) W-SW 247 0 min 0,6 UV-I 90 W/m 9,4 C 11,3 C 8,0 km/h (2 Bft)
25.05.2020 08:15 11,3 C 11,7 C 88 % 1034,8 hPa 0,0 l/m 6,4 km/h (2 Bft) W 270 0 min 0,6 UV-I 98 W/m 9,4 C 11,3 C 14,5 km/h (3 Bft)
25.05.2020 08:16 11,3 C 11,7 C 88 % 1034,7 hPa 0,0 l/m 3,2 km/h (1 Bft) W 270 0 min 0,6 UV-I 98 W/m 9,4 C 11,3 C 8,0 km/h (2 Bft)
25.05.2020 08:17 11,3 C 11,7 C 88 % 1034,8 hPa 0,0 l/m 4,8 km/h (1 Bft) W 270 0 min 0,6 UV-I 100 W/m 9,4 C 11,3 C 8,0 km/h (2 Bft)
25.05.2020 08:18 11,3 C 12,2 C 88 % 1034,8 hPa 0,0 l/m 1,6 km/h (1 Bft) W 270 0 min 0,6 UV-I 102 W/m 9,4 C 11,3 C 3,2 km/h (1 Bft)
25.05.2020 08:19 11,3 C 12,2 C 89 % 1034,8 hPa 0,0 l/m 1,6 km/h (1 Bft) W-NW 292 0 min 0,7 UV-I 109 W/m 9,6 C 11,3 C 3,2 km/h (1 Bft)
25.05.2020 08:20 11,3 C 12,2 C 89 % 1034,8 hPa 0,0 l/m 0,0 km/h (0 Bft) W-NW 292 0 min 0,7 UV-I 114 W/m 9,6 C 11,3 C 1,6 km/h (1 Bft)
25.05.2020 08:21 11,3 C 12,2 C 88 % 1034,7 hPa 0,0 l/m 1,6 km/h (1 Bft) W-NW 292 0 min 0,8 UV-I 121 W/m 9,4 C 11,3 C 3,2 km/h (1 Bft)
25.05.2020 08:22 11,4 C 12,2 C 89 % 1034,7 hPa 0,0 l/m 3,2 km/h (1 Bft) W 270 0 min 0,8 UV-I 121 W/m 9,7 C 11,4 C 4,8 km/h (1 Bft)
25.05.2020 08:23 11,4 C 12,2 C 88 % 1034,7 hPa 0,0 l/m 4,8 km/h (1 Bft) W 270 0 min 0,7 UV-I 105 W/m 9,5 C 11,4 C 9,7 km/h (2 Bft)
25.05.2020 08:24 11,4 C 12,2 C 88 % 1034,7 hPa 0,0 l/m 6,4 km/h (2 Bft) NW 315 0 min 0,6 UV-I 97 W/m 9,5 C 11,4 C 9,7 km/h (2 Bft)
25.05.2020 08:25 11,4 C 12,2 C 88 % 1034,7 hPa 0,0 l/m 9,7 km/h (2 Bft) W-NW 292 0 min 0,6 UV-I 95 W/m 9,5 C 9,3 C 14,5 km/h (3 Bft)
25.05.2020 08:26 11,4 C 12,2 C 88 % 1034,8 hPa 0,0 l/m 8,0 km/h (2 Bft) W-NW 292 0 min 0,6 UV-I 95 W/m 9,5 C 10,3 C 14,5 km/h (3 Bft)
25.05.2020 08:27 11,4 C 12,2 C 88 % 1034,8 hPa 0,0 l/m 6,4 km/h (2 Bft) W 270 0 min 0,6 UV-I 98 W/m 9,5 C 11,4 C 9,7 km/h (2 Bft)
25.05.2020 08:28 11,4 C 12,2 C 88 % 1034,7 hPa 0,0 l/m 8,0 km/h (2 Bft) W-NW 292 0 min 0,6 UV-I 105 W/m 9,5 C 10,3 C 11,3 km/h (2 Bft)
25.05.2020 08:29 11,4 C 12,2 C 88 % 1034,7 hPa 0,0 l/m 3,2 km/h (1 Bft) W 270 0 min 0,8 UV-I 125 W/m 9,5 C 11,4 C 4,8 km/h (1 Bft)
25.05.2020 08:30 11,4 C 12,2 C 88 % 1034,6 hPa 0,0 l/m 1,6 km/h (1 Bft) W 270 0 min 0,8 UV-I 128 W/m 9,5 C 11,4 C 3,2 km/h (1 Bft)
25.05.2020 08:31 11,4 C 12,2 C 88 % 1034,7 hPa 0,0 l/m 0,0 km/h (0 Bft) W-NW 292 0 min 0,7 UV-I 120 W/m 9,5 C 11,4 C 1,6 km/h (1 Bft)
25.05.2020 08:32 11,5 C 12,2 C 88 % 1034,6 hPa 0,0 l/m 1,6 km/h (1 Bft) W-NW 292 0 min 0,6 UV-I 107 W/m 9,6 C 11,5 C 4,8 km/h (1 Bft)
25.05.2020 08:33 11,6 C 12,2 C 88 % 1034,7 hPa 0,0 l/m 1,6 km/h (1 Bft) W-NW 292 0 min 0,6 UV-I 105 W/m 9,7 C 11,6 C 3,2 km/h (1 Bft)
25.05.2020 08:34 11,6 C 12,2 C 88 % 1034,6 hPa 0,0 l/m 0,0 km/h (0 Bft) W-NW 292 0 min 0,6 UV-I 109 W/m 9,7 C 11,6 C 1,6 km/h (1 Bft)
25.05.2020 08:35 11,6 C 12,8 C 88 % 1034,7 hPa 0,0 l/m 3,2 km/h (1 Bft) N-NW 337 0 min 0,7 UV-I 107 W/m 9,7 C 11,6 C 4,8 km/h (1 Bft)
25.05.2020 08:36 11,6 C 12,8 C 88 % 1034,7 hPa 0,0 l/m 6,4 km/h (2 Bft) NW 315 0 min 0,6 UV-I 98 W/m 9,7 C 11,6 C 14,5 km/h (3 Bft)
25.05.2020 08:37 11,6 C 12,8 C 88 % 1034,7 hPa 0,0 l/m 8,0 km/h (2 Bft) W-NW 292 0 min 0,6 UV-I 98 W/m 9,7 C 10,5 C 17,7 km/h (3 Bft)
25.05.2020 08:38 11,7 C 12,2 C 88 % 1034,7 hPa 0,0 l/m 4,8 km/h (1 Bft) W-NW 292 0 min 0,6 UV-I 102 W/m 9,8 C 11,7 C 17,7 km/h (3 Bft)
25.05.2020 08:39 11,7 C 12,2 C 88 % 1034,8 hPa 0,0 l/m 4,8 km/h (1 Bft) NW 315 0 min 0,6 UV-I 105 W/m 9,8 C 11,7 C 8,0 km/h (2 Bft)
25.05.2020 08:40 11,6 C 12,2 C 87 % 1034,7 hPa 0,0 l/m 6,4 km/h (2 Bft) W-NW 292 0 min 0,6 UV-I 104 W/m 9,5 C 11,6 C 12,9 km/h (3 Bft)
25.05.2020 08:41 11,6 C 12,2 C 87 % 1034,8 hPa 0,0 l/m 3,2 km/h (1 Bft) W 270 0 min 0,6 UV-I 97 W/m 9,5 C 11,6 C 11,3 km/h (2 Bft)
25.05.2020 08:42 11,6 C 12,2 C 87 % 1034,8 hPa 0,0 l/m 3,2 km/h (1 Bft) NW 315 0 min 0,6 UV-I 102 W/m 9,5 C 11,6 C 6,4 km/h (2 Bft)
25.05.2020 08:43 11,7 C 12,2 C 88 % 1034,8 hPa 0,0 l/m 4,8 km/h (1 Bft) W-NW 292 0 min 0,6 UV-I 104 W/m 9,8 C 11,7 C 6,4 km/h (2 Bft)
25.05.2020 08:44 11,7 C 12,2 C 88 % 1034,8 hPa 0,0 l/m 1,6 km/h (1 Bft) NW 315 0 min 0,7 UV-I 105 W/m 9,8 C 11,7 C 3,2 km/h (1 Bft)
25.05.2020 08:45 11,7 C 12,8 C 88 % 1034,8 hPa 0,0 l/m 1,6 km/h (1 Bft) W-NW 292 0 min 0,7 UV-I 117 W/m 9,8 C 11,7 C 3,2 km/h (1 Bft)
25.05.2020 08:46 11,7 C 12,8 C 87 % 1034,8 hPa 0,0 l/m 1,6 km/h (1 Bft) W-NW 292 0 min 0,8 UV-I 127 W/m 9,6 C 11,7 C 3,2 km/h (1 Bft)
25.05.2020 08:47 11,7 C 12,8 C 87 % 1034,8 hPa 0,0 l/m 1,6 km/h (1 Bft) W-NW 292 0 min 0,7 UV-I 121 W/m 9,6 C 11,7 C 3,2 km/h (1 Bft)
25.05.2020 08:48 11,7 C 12,8 C 87 % 1034,8 hPa 0,0 l/m 3,2 km/h (1 Bft) W 270 0 min 0,6 UV-I 109 W/m 9,6 C 11,7 C 9,7 km/h (2 Bft)
25.05.2020 08:49 11,7 C 12,8 C 87 % 1034,8 hPa 0,0 l/m 6,4 km/h (2 Bft) NW 315 0 min 0,6 UV-I 97 W/m 9,6 C 11,7 C 11,3 km/h (2 Bft)
25.05.2020 08:50 11,7 C 12,8 C 87 % 1034,8 hPa 0,0 l/m 4,8 km/h (1 Bft) W-NW 292 0 min 0,6 UV-I 100 W/m 9,6 C 11,7 C 8,0 km/h (2 Bft)
25.05.2020 08:51 11,7 C 12,8 C 87 % 1034,8 hPa 0,0 l/m 1,6 km/h (1 Bft) W-NW 292 0 min 0,8 UV-I 123 W/m 9,6 C 11,7 C 3,2 km/h (1 Bft)
25.05.2020 08:52 11,7 C 12,8 C 87 % 1034,7 hPa 0,0 l/m 1,6 km/h (1 Bft) W-NW 292 0 min 0,8 UV-I 123 W/m 9,6 C 11,7 C 3,2 km/h (1 Bft)
25.05.2020 08:53 11,8 C 12,8 C 87 % 1034,7 hPa 0,0 l/m 4,8 km/h (1 Bft) W-SW 247 0 min 0,8 UV-I 128 W/m 9,7 C 11,8 C 9,7 km/h (2 Bft)
25.05.2020 08:54 11,7 C 12,8 C 87 % 1034,8 hPa 0,0 l/m 8,0 km/h (2 Bft) W-NW 292 0 min 0,8 UV-I 134 W/m 9,6 C 10,6 C 12,9 km/h (3 Bft)
25.05.2020 08:55 11,8 C 12,8 C 87 % 1034,7 hPa 0,0 l/m 9,7 km/h (2 Bft) W-NW 292 0 min 0,8 UV-I 128 W/m 9,7 C 9,7 C 16,1 km/h (3 Bft)
25.05.2020 08:56 11,7 C 12,8 C 87 % 1034,8 hPa 0,0 l/m 3,2 km/h (1 Bft) N-NW 337 0 min 0,7 UV-I 116 W/m 9,6 C 11,7 C 9,7 km/h (2 Bft)
25.05.2020 08:57 11,8 C 12,8 C 87 % 1034,8 hPa 0,0 l/m 3,2 km/h (1 Bft) W 270 0 min 0,7 UV-I 123 W/m 9,7 C 11,8 C 8,0 km/h (2 Bft)
25.05.2020 08:58 11,8 C 12,8 C 87 % 1034,8 hPa 0,0 l/m 3,2 km/h (1 Bft) W-NW 292 0 min 0,8 UV-I 132 W/m 9,7 C 11,8 C 6,4 km/h (2 Bft)
25.05.2020 08:59 11,8 C 12,8 C 87 % 1034,7 hPa 0,0 l/m 4,8 km/h (1 Bft) SW 225 0 min 0,8 UV-I 128 W/m 9,7 C 11,8 C 8,0 km/h (2 Bft)
25.05.2020 09:00 11,8 C 12,8 C 87 % 1034,8 hPa 0,0 l/m 8,0 km/h (2 Bft) W 270 0 min 0,7 UV-I 116 W/m 9,7 C 10,7 C 16,1 km/h (3 Bft)
25.05.2020 09:01 11,8 C 12,8 C 87 % 1034,8 hPa 0,0 l/m 4,8 km/h (1 Bft) W-NW 292 0 min 0,6 UV-I 104 W/m 9,7 C 11,8 C 12,9 km/h (3 Bft)
25.05.2020 09:02 11,8 C 12,8 C 87 % 1034,9 hPa 0,0 l/m 3,2 km/h (1 Bft) W-NW 292 0 min 0,7 UV-I 109 W/m 9,7 C 11,8 C 4,8 km/h (1 Bft)
25.05.2020 09:03 11,8 C 12,8 C 87 % 1034,8 hPa 0,0 l/m 6,4 km/h (2 Bft) W 270 0 min 0,8 UV-I 127 W/m 9,7 C 11,8 C 11,3 km/h (2 Bft)
25.05.2020 09:04 11,8 C 12,8 C 86 % 1034,9 hPa 0,0 l/m 4,8 km/h (1 Bft) W-NW 292 0 min 0,8 UV-I 132 W/m 9,5 C 11,8 C 6,4 km/h (2 Bft)
25.05.2020 09:05 11,8 C 12,8 C 86 % 1034,9 hPa 0,0 l/m 6,4 km/h (2 Bft) W-SW 247 0 min 0,7 UV-I 120 W/m 9,5 C 11,8 C 11,3 km/h (2 Bft)
25.05.2020 09:06 11,8 C 12,8 C 87 % 1034,9 hPa 0,0 l/m 6,4 km/h (2 Bft) W-SW 247 0 min 0,6 UV-I 107 W/m 9,7 C 11,8 C 14,5 km/h (3 Bft)
25.05.2020 09:07 11,8 C 12,2 C 86 % 1034,9 hPa 0,0 l/m 9,7 km/h (2 Bft) W-SW 247 0 min 0,6 UV-I 105 W/m 9,5 C 9,7 C 17,7 km/h (3 Bft)
25.05.2020 09:08 11,7 C 12,2 C 86 % 1034,9 hPa 0,0 l/m 4,8 km/h (1 Bft) W 270 0 min 0,7 UV-I 111 W/m 9,4 C 11,7 C 9,7 km/h (2 Bft)
25.05.2020 09:09 11,8 C 12,2 C 86 % 1034,9 hPa 0,0 l/m 3,2 km/h (1 Bft) W-NW 292 0 min 0,7 UV-I 121 W/m 9,5 C 11,8 C 4,8 km/h (1 Bft)
25.05.2020 09:10 11,7 C 12,8 C 86 % 1034,9 hPa 0,0 l/m 4,8 km/h (1 Bft) W-NW 292 0 min 0,8 UV-I 130 W/m 9,4 C 11,7 C 6,4 km/h (2 Bft)
25.05.2020 09:11 11,8 C 12,8 C 87 % 1034,9 hPa 0,0 l/m 3,2 km/h (1 Bft) W-SW 247 0 min 0,8 UV-I 125 W/m 9,7 C 11,8 C 6,4 km/h (2 Bft)
25.05.2020 09:12 11,8 C 12,8 C 87 % 1034,9 hPa 0,0 l/m 4,8 km/h (1 Bft) NW 315 0 min 0,9 UV-I 135 W/m 9,7 C 11,8 C 6,4 km/h (2 Bft)
25.05.2020 09:13 11,8 C 12,8 C 86 % 1034,8 hPa 0,0 l/m 4,8 km/h (1 Bft) W 270 0 min 0,9 UV-I 144 W/m 9,5 C 11,8 C 9,7 km/h (2 Bft)
25.05.2020 09:14 11,8 C 12,8 C 86 % 1034,9 hPa 0,0 l/m 6,4 km/h (2 Bft) W 270 0 min 0,9 UV-I 162 W/m 9,5 C 11,8 C 11,3 km/h (2 Bft)
25.05.2020 09:15 11,8 C 12,8 C 86 % 1034,9 hPa 0,0 l/m 8,0 km/h (2 Bft) W 270 0 min 1,1 UV-I 209 W/m 9,5 C 10,7 C 12,9 km/h (3 Bft)
25.05.2020 09:16 11,8 C 12,8 C 86 % 1034,8 hPa 0,0 l/m 6,4 km/h (2 Bft) W 270 0 min 1,4 UV-I 239 W/m 9,5 C 11,8 C 11,3 km/h (2 Bft)
25.05.2020 09:17 11,8 C 12,8 C 86 % 1034,8 hPa 0,0 l/m 6,4 km/h (2 Bft) W 270 0 min 1,6 UV-I 258 W/m 9,5 C 11,8 C 12,9 km/h (3 Bft)
25.05.2020 09:18 11,9 C 13,3 C 87 % 1034,9 hPa 0,0 l/m 6,4 km/h (2 Bft) N-NW 337 0 min 1,6 UV-I 262 W/m 9,8 C 11,9 C 11,3 km/h (2 Bft)
25.05.2020 09:19 12,0 C 13,3 C 86 % 1034,9 hPa 0,0 l/m 3,2 km/h (1 Bft) NW 315 0 min 1,6 UV-I 255 W/m 9,7 C 12,0 C 6,4 km/h (2 Bft)
25.05.2020 09:20 12,1 C 13,3 C 87 % 1034,9 hPa 0,0 l/m 3,2 km/h (1 Bft) W-NW 292 0 min 1,5 UV-I 238 W/m 10,0 C 12,1 C 6,4 km/h (2 Bft)
25.05.2020 09:21 12,2 C 13,9 C 87 % 1034,9 hPa 0,0 l/m 3,2 km/h (1 Bft) W-NW 292 0 min 1,4 UV-I 213 W/m 10,1 C 12,2 C 4,8 km/h (1 Bft)
25.05.2020 09:22 12,2 C 13,9 C 87 % 1034,8 hPa 0,0 l/m 3,2 km/h (1 Bft) W-NW 292 0 min 1,1 UV-I 185 W/m 10,1 C 12,2 C 6,4 km/h (2 Bft)
25.05.2020 09:23 12,3 C 13,9 C 86 % 1034,9 hPa 0,0 l/m 6,4 km/h (2 Bft) W 270 0 min 1,2 UV-I 179 W/m 10,0 C 12,3 C 11,3 km/h (2 Bft)
25.05.2020 09:24 12,3 C 13,9 C 85 % 1034,9 hPa 0,0 l/m 8,0 km/h (2 Bft) W-SW 247 0 min 1,2 UV-I 186 W/m 9,9 C 11,3 C 11,3 km/h (2 Bft)
25.05.2020 09:25 12,3 C 13,3 C 86 % 1034,9 hPa 0,0 l/m 4,8 km/h (1 Bft) W 270 0 min 1,2 UV-I 192 W/m 10,0 C 12,3 C 9,7 km/h (2 Bft)
25.05.2020 09:26 12,2 C 13,3 C 85 % 1034,9 hPa 0,0 l/m 4,8 km/h (1 Bft) W 270 0 min 1,2 UV-I 192 W/m 9,8 C 12,2 C 9,7 km/h (2 Bft)
25.05.2020 09:27 12,2 C 13,9 C 85 % 1034,9 hPa 0,0 l/m 6,4 km/h (2 Bft) W 270 0 min 1,3 UV-I 190 W/m 9,8 C 12,2 C 6,4 km/h (2 Bft)
25.05.2020 09:28 12,2 C 13,9 C 85 % 1034,9 hPa 0,0 l/m 4,8 km/h (1 Bft) W 270 0 min 1,2 UV-I 190 W/m 9,8 C 12,2 C 11,3 km/h (2 Bft)
25.05.2020 09:29 12,3 C 13,9 C 86 % 1034,9 hPa 0,0 l/m 4,8 km/h (1 Bft) SW 225 0 min 1,1 UV-I 183 W/m 10,0 C 12,3 C 9,7 km/h (2 Bft)
25.05.2020 09:30 12,3 C 13,9 C 85 % 1034,9 hPa 0,0 l/m 6,4 km/h (2 Bft) W-NW 292 0 min 0,9 UV-I 158 W/m 9,9 C 12,3 C 11,3 km/h (2 Bft)
25.05.2020 09:31 12,3 C 13,9 C 85 % 1034,9 hPa 0,0 l/m 4,8 km/h (1 Bft) NW 315 0 min 1,0 UV-I 162 W/m 9,9 C 12,3 C 9,7 km/h (2 Bft)
25.05.2020 09:32 12,2 C 13,3 C 85 % 1034,8 hPa 0,0 l/m 9,7 km/h (2 Bft) W-NW 292 0 min 1,1 UV-I 174 W/m 9,8 C 10,2 C 14,5 km/h (3 Bft)
25.05.2020 09:33 12,2 C 13,3 C 85 % 1034,8 hPa 0,0 l/m 4,8 km/h (1 Bft) SW 225 0 min 1,2 UV-I 186 W/m 9,8 C 12,2 C 9,7 km/h (2 Bft)
25.05.2020 09:34 12,3 C 13,3 C 86 % 1034,9 hPa 0,0 l/m 3,2 km/h (1 Bft) W 270 0 min 1,2 UV-I 192 W/m 10,0 C 12,3 C 6,4 km/h (2 Bft)
25.05.2020 09:35 12,3 C 13,3 C 85 % 1034,9 hPa 0,0 l/m 3,2 km/h (1 Bft) NW 315 0 min 1,0 UV-I 171 W/m 9,9 C 12,3 C 6,4 km/h (2 Bft)
25.05.2020 09:36 12,3 C 13,9 C 85 % 1034,9 hPa 0,0 l/m 3,2 km/h (1 Bft) W-NW 292 0 min 0,9 UV-I 146 W/m 9,9 C 12,3 C 3,2 km/h (1 Bft)
25.05.2020 09:37 12,3 C 13,9 C 86 % 1034,9 hPa 0,0 l/m 4,8 km/h (1 Bft) W 270 0 min 0,8 UV-I 130 W/m 10,0 C 12,3 C 6,4 km/h (2 Bft)
25.05.2020 09:38 12,3 C 13,9 C 85 % 1034,9 hPa 0,0 l/m 3,2 km/h (1 Bft) W 270 0 min 0,8 UV-I 120 W/m 9,9 C 12,3 C 4,8 km/h (1 Bft)
25.05.2020 09:39 12,3 C 13,3 C 85 % 1034,9 hPa 0,0 l/m 4,8 km/h (1 Bft) W 270 0 min 0,8 UV-I 125 W/m 9,9 C 12,3 C 6,4 km/h (2 Bft)
25.05.2020 09:40 12,3 C 13,3 C 85 % 1034,9 hPa 0,0 l/m 4,8 km/h (1 Bft) W-NW 292 0 min 0,8 UV-I 127 W/m 9,9 C 12,3 C 11,3 km/h (2 Bft)
25.05.2020 09:41 12,3 C 13,3 C 85 % 1034,9 hPa 0,0 l/m 6,4 km/h (2 Bft) W-SW 247 0 min 0,8 UV-I 125 W/m 9,9 C 12,3 C 9,7 km/h (2 Bft)
25.05.2020 09:42 12,2 C 13,3 C 85 % 1035,0 hPa 0,0 l/m 11,3 km/h (2 Bft) NW 315 0 min 0,9 UV-I 130 W/m 9,8 C 9,4 C 17,7 km/h (3 Bft)
25.05.2020 09:43 12,2 C 13,3 C 84 % 1034,9 hPa 0,0 l/m 9,7 km/h (2 Bft) NW 315 0 min 0,9 UV-I 141 W/m 9,6 C 10,2 C 12,9 km/h (3 Bft)
25.05.2020 09:44 12,2 C 13,3 C 84 % 1034,9 hPa 0,0 l/m 3,2 km/h (1 Bft) NW 315 0 min 0,9 UV-I 136 W/m 9,6 C 12,2 C 6,4 km/h (2 Bft)
25.05.2020 09:45 12,2 C 13,3 C 85 % 1035,0 hPa 0,0 l/m 3,2 km/h (1 Bft) N-NW 337 0 min 0,9 UV-I 134 W/m 9,8 C 12,2 C 4,8 km/h (1 Bft)
25.05.2020 09:46 12,2 C 13,3 C 85 % 1035,0 hPa 0,0 l/m 3,2 km/h (1 Bft) W-NW 292 0 min 0,9 UV-I 141 W/m 9,8 C 12,2 C 6,4 km/h (2 Bft)
25.05.2020 09:47 12,2 C 13,3 C 85 % 1035,1 hPa 0,0 l/m 4,8 km/h (1 Bft) W 270 0 min 0,9 UV-I 139 W/m 9,8 C 12,2 C 4,8 km/h (1 Bft)
25.05.2020 09:48 12,2 C 13,3 C 85 % 1034,9 hPa 0,0 l/m 3,2 km/h (1 Bft) N-NW 337 0 min 0,8 UV-I 130 W/m 9,8 C 12,2 C 8,0 km/h (2 Bft)
25.05.2020 09:49 12,2 C 13,3 C 85 % 1035,0 hPa 0,0 l/m 6,4 km/h (2 Bft) W-NW 292 0 min 0,8 UV-I 127 W/m 9,8 C 12,2 C 9,7 km/h (2 Bft)
25.05.2020 09:50 12,2 C 13,3 C 84 % 1035,0 hPa 0,0 l/m 8,0 km/h (2 Bft) W-NW 292 0 min 0,9 UV-I 150 W/m 9,6 C 11,2 C 12,9 km/h (3 Bft)
25.05.2020 09:51 12,2 C 13,3 C 84 % 1035,0 hPa 0,0 l/m 4,8 km/h (1 Bft) W-NW 292 0 min 1,2 UV-I 183 W/m 9,6 C 12,2 C 9,7 km/h (2 Bft)
25.05.2020 09:52 12,2 C 13,3 C 84 % 1035,0 hPa 0,0 l/m 8,0 km/h (2 Bft) W 270 0 min 1,4 UV-I 211 W/m 9,6 C 11,2 C 14,5 km/h (3 Bft)
25.05.2020 09:53 12,2 C 13,3 C 84 % 1035,0 hPa 0,0 l/m 8,0 km/h (2 Bft) W-NW 292 0 min 1,5 UV-I 229 W/m 9,6 C 11,2 C 16,1 km/h (3 Bft)
25.05.2020 09:54 12,2 C 13,9 C 85 % 1035,0 hPa 0,0 l/m 6,4 km/h (2 Bft) W 270 0 min 1,7 UV-I 255 W/m 9,8 C 12,2 C 11,3 km/h (2 Bft)
25.05.2020 09:55 12,2 C 13,9 C 84 % 1035,1 hPa 0,0 l/m 6,4 km/h (2 Bft) NW 315 0 min 1,9 UV-I 289 W/m 9,6 C 12,2 C 12,9 km/h (3 Bft)
25.05.2020 09:56 12,3 C 13,9 C 85 % 1035,0 hPa 0,0 l/m 6,4 km/h (2 Bft) N-NW 337 0 min 2,0 UV-I 279 W/m 9,9 C 12,3 C 12,9 km/h (3 Bft)
25.05.2020 09:57 12,4 C 14,4 C 85 % 1035,1 hPa 0,0 l/m 4,8 km/h (1 Bft) N-NW 337 0 min 1,9 UV-I 264 W/m 9,9 C 12,4 C 8,0 km/h (2 Bft)
25.05.2020 09:58 12,5 C 14,4 C 85 % 1035,1 hPa 0,0 l/m 6,4 km/h (2 Bft) W-NW 292 0 min 1,8 UV-I 264 W/m 10,0 C 12,5 C 11,3 km/h (2 Bft)
25.05.2020 09:59 12,6 C 14,4 C 84 % 1035,1 hPa 0,0 l/m 6,4 km/h (2 Bft) W-NW 292 0 min 1,7 UV-I 269 W/m 10,0 C 12,6 C 14,5 km/h (3 Bft)
25.05.2020 10:00 12,6 C 14,4 C 84 % 1035,0 hPa 0,0 l/m 6,4 km/h (2 Bft) W-NW 292 0 min 1,7 UV-I 264 W/m 10,0 C 12,6 C 12,9 km/h (3 Bft)
25.05.2020 10:01 12,7 C 14,4 C 85 % 1035,0 hPa 0,0 l/m 6,4 km/h (2 Bft) W-NW 292 0 min 1,6 UV-I 243 W/m 10,2 C 12,7 C 9,7 km/h (2 Bft)
25.05.2020 10:02 12,7 C 14,4 C 83 % 1034,9 hPa 0,0 l/m 6,4 km/h (2 Bft) W-NW 292 0 min 1,3 UV-I 188 W/m 9,9 C 12,7 C 11,3 km/h (2 Bft)
25.05.2020 10:03 12,7 C 14,4 C 83 % 1034,9 hPa 0,0 l/m 4,8 km/h (1 Bft) NW 315 0 min 1,1 UV-I 172 W/m 9,9 C 12,7 C 6,4 km/h (2 Bft)
25.05.2020 10:04 12,6 C 14,4 C 83 % 1034,9 hPa 0,0 l/m 4,8 km/h (1 Bft) NW 315 0 min 1,2 UV-I 183 W/m 9,8 C 12,6 C 8,0 km/h (2 Bft)
25.05.2020 10:05 12,7 C 14,4 C 84 % 1035,0 hPa 0,0 l/m 1,6 km/h (1 Bft) W 270 0 min 1,3 UV-I 200 W/m 10,1 C 12,7 C 4,8 km/h (1 Bft)
25.05.2020 10:06 12,7 C 14,4 C 83 % 1035,0 hPa 0,0 l/m 6,4 km/h (2 Bft) W-NW 292 0 min 1,4 UV-I 225 W/m 9,9 C 12,7 C 14,5 km/h (3 Bft)
25.05.2020 10:07 12,7 C 14,4 C 84 % 1034,9 hPa 0,0 l/m 3,2 km/h (1 Bft) W-NW 292 0 min 1,6 UV-I 266 W/m 10,1 C 12,7 C 9,7 km/h (2 Bft)
25.05.2020 10:08 12,7 C 14,4 C 84 % 1035,0 hPa 0,0 l/m 4,8 km/h (1 Bft) NW 315 0 min 1,8 UV-I 281 W/m 10,1 C 12,7 C 11,3 km/h (2 Bft)
25.05.2020 10:09 12,8 C 15,0 C 84 % 1035,0 hPa 0,0 l/m 4,8 km/h (1 Bft) W 270 0 min 1,6 UV-I 274 W/m 10,2 C 12,8 C 11,3 km/h (2 Bft)
25.05.2020 10:10 12,8 C 15,0 C 84 % 1034,9 hPa 0,0 l/m 8,0 km/h (2 Bft) W-NW 292 0 min 1,5 UV-I 274 W/m 10,2 C 11,8 C 12,9 km/h (3 Bft)
25.05.2020 10:11 12,9 C 15,0 C 83 % 1034,9 hPa 0,0 l/m 11,3 km/h (2 Bft) NW 315 0 min 1,4 UV-I 274 W/m 10,1 C 10,2 C 20,9 km/h (4 Bft)
25.05.2020 10:12 12,8 C 14,4 C 82 % 1034,9 hPa 0,0 l/m 8,0 km/h (2 Bft) W 270 0 min 1,4 UV-I 197 W/m 9,8 C 11,8 C 20,9 km/h (4 Bft)
25.05.2020 10:13 12,8 C 14,4 C 83 % 1034,9 hPa 0,0 l/m 9,7 km/h (2 Bft) W-NW 292 0 min 1,5 UV-I 216 W/m 10,0 C 10,8 C 19,3 km/h (3 Bft)
25.05.2020 10:14 12,8 C 14,4 C 83 % 1034,9 hPa 0,0 l/m 11,3 km/h (2 Bft) W-NW 292 0 min 1,8 UV-I 230 W/m 10,0 C 10,1 C 16,1 km/h (3 Bft)
25.05.2020 10:15 12,8 C 14,4 C 82 % 1034,9 hPa 0,0 l/m 4,8 km/h (1 Bft) W 270 0 min 2,0 UV-I 250 W/m 9,8 C 12,8 C 6,4 km/h (2 Bft)
25.05.2020 10:16 12,8 C 14,4 C 83 % 1035,0 hPa 0,0 l/m 4,8 km/h (1 Bft) W 270 0 min 2,0 UV-I 257 W/m 10,0 C 12,8 C 9,7 km/h (2 Bft)
25.05.2020 10:17 12,9 C 15,0 C 84 % 1034,9 hPa 0,0 l/m 1,6 km/h (1 Bft) SW 225 0 min 2,0 UV-I 248 W/m 10,3 C 12,9 C 4,8 km/h (1 Bft)
25.05.2020 10:18 12,9 C 15,0 C 83 % 1035,0 hPa 0,0 l/m 6,4 km/h (2 Bft) N-NW 337 0 min 2,0 UV-I 236 W/m 10,1 C 12,9 C 9,7 km/h (2 Bft)
25.05.2020 10:19 13,0 C 15,0 C 82 % 1034,9 hPa 0,0 l/m 8,0 km/h (2 Bft) N-NW 337 0 min 2,0 UV-I 238 W/m 10,0 C 12,0 C 14,5 km/h (3 Bft)
25.05.2020 10:20 13,0 C 15,0 C 82 % 1034,9 hPa 0,0 l/m 14,5 km/h (3 Bft) NW 315 0 min 2,4 UV-I 281 W/m 10,0 C 9,0 C 19,3 km/h (3 Bft)
25.05.2020 10:21 13,0 C 15,0 C 80 % 1034,9 hPa 0,0 l/m 8,0 km/h (2 Bft) W-NW 292 0 min 2,7 UV-I 346 W/m 9,6 C 12,0 C 14,5 km/h (3 Bft)
25.05.2020 10:22 13,1 C 15,0 C 81 % 1035,0 hPa 0,0 l/m 9,7 km/h (2 Bft) NW 315 0 min 3,0 UV-I 346 W/m 9,9 C 11,2 C 16,1 km/h (3 Bft)
25.05.2020 10:23 13,2 C 15,6 C 81 % 1034,9 hPa 0,0 l/m 12,9 km/h (3 Bft) N-NW 337 0 min 3,0 UV-I 403 W/m 10,0 C 9,8 C 19,3 km/h (3 Bft)
25.05.2020 10:24 13,3 C 15,6 C 81 % 1034,9 hPa 0,0 l/m 11,3 km/h (2 Bft) NW 315 0 min 2,8 UV-I 345 W/m 10,1 C 10,6 C 17,7 km/h (3 Bft)
25.05.2020 10:25 13,3 C 15,6 C 80 % 1034,9 hPa 0,0 l/m 12,9 km/h (3 Bft) N-NW 337 0 min 2,9 UV-I 376 W/m 9,9 C 9,9 C 17,7 km/h (3 Bft)
25.05.2020 10:26 13,3 C 15,6 C 79 % 1034,9 hPa 0,0 l/m 11,3 km/h (2 Bft) W-NW 292 0 min 2,8 UV-I 404 W/m 9,7 C 10,6 C 14,5 km/h (3 Bft)
25.05.2020 10:27 13,4 C 15,6 C 80 % 1034,9 hPa 0,0 l/m 4,8 km/h (1 Bft) W-NW 292 0 min 2,6 UV-I 318 W/m 10,0 C 13,4 C 12,9 km/h (3 Bft)
25.05.2020 10:28 13,5 C 16,1 C 81 % 1034,9 hPa 0,0 l/m 8,0 km/h (2 Bft) W-NW 292 0 min 2,8 UV-I 345 W/m 10,3 C 12,5 C 19,3 km/h (3 Bft)
25.05.2020 10:29 13,5 C 16,1 C 79 % 1034,9 hPa 0,0 l/m 12,9 km/h (3 Bft) NW 315 0 min 2,7 UV-I 369 W/m 9,9 C 10,2 C 17,7 km/h (3 Bft)
25.05.2020 10:30 13,5 C 15,6 C 78 % 1034,9 hPa 0,0 l/m 9,7 km/h (2 Bft) W-NW 292 0 min 2,7 UV-I 367 W/m 9,7 C 11,6 C 17,7 km/h (3 Bft)
25.05.2020 10:31 13,4 C 16,1 C 79 % 1034,9 hPa 0,0 l/m 4,8 km/h (1 Bft) N-NO 22 0 min 2,3 UV-I 274 W/m 9,8 C 13,4 C 8,0 km/h (2 Bft)
25.05.2020 10:32 13,4 C 15,6 C 79 % 1034,9 hPa 0,0 l/m 6,4 km/h (2 Bft) W-NW 292 0 min 2,4 UV-I 272 W/m 9,8 C 13,4 C 12,9 km/h (3 Bft)
25.05.2020 10:33 13,4 C 15,6 C 79 % 1034,9 hPa 0,0 l/m 3,2 km/h (1 Bft) N 360 0 min 2,6 UV-I 309 W/m 9,8 C 13,4 C 6,4 km/h (2 Bft)
25.05.2020 10:34 13,4 C 16,1 C 80 % 1034,9 hPa 0,0 l/m 6,4 km/h (2 Bft) NW 315 0 min 2,7 UV-I 367 W/m 10,0 C 13,4 C 9,7 km/h (2 Bft)
25.05.2020 10:35 13,6 C 16,7 C 80 % 1034,9 hPa 0,0 l/m 9,7 km/h (2 Bft) NW 315 0 min 4,5 UV-I 367 W/m 10,2 C 11,7 C 14,5 km/h (3 Bft)
25.05.2020 10:36 13,7 C 16,7 C 80 % 1034,9 hPa 0,0 l/m 4,8 km/h (1 Bft) W-NW 292 0 min 2,5 UV-I 330 W/m 10,3 C 13,7 C 8,0 km/h (2 Bft)
25.05.2020 10:37 13,7 C 16,1 C 79 % 1034,9 hPa 0,0 l/m 4,8 km/h (1 Bft) W-NW 292 0 min 2,4 UV-I 308 W/m 10,1 C 13,7 C 8,0 km/h (2 Bft)
25.05.2020 10:38 13,8 C 16,1 C 79 % 1034,9 hPa 0,0 l/m 4,8 km/h (1 Bft) W 270 0 min 2,4 UV-I 302 W/m 10,2 C 13,8 C 11,3 km/h (2 Bft)
25.05.2020 10:39 13,8 C 16,1 C 80 % 1035,0 hPa 0,0 l/m 3,2 km/h (1 Bft) S-SW 202 0 min 2,5 UV-I 330 W/m 10,4 C 13,8 C 8,0 km/h (2 Bft)
25.05.2020 10:40 13,8 C 16,1 C 79 % 1035,0 hPa 0,0 l/m 6,4 km/h (2 Bft) W 270 0 min 3,0 UV-I 330 W/m 10,2 C 13,8 C 11,3 km/h (2 Bft)
25.05.2020 10:41 13,7 C 16,1 C 79 % 1034,9 hPa 0,0 l/m 11,3 km/h (2 Bft) W 270 0 min 2,7 UV-I 330 W/m 10,1 C 11,1 C 14,5 km/h (3 Bft)
25.05.2020 10:42 13,7 C 16,1 C 78 % 1035,0 hPa 0,0 l/m 6,4 km/h (2 Bft) W 270 0 min 2,6 UV-I 342 W/m 9,9 C 13,7 C 12,9 km/h (3 Bft)
25.05.2020 10:43 13,6 C 16,1 C 79 % 1035,0 hPa 0,0 l/m 9,7 km/h (2 Bft) W 270 0 min 2,4 UV-I 311 W/m 10,0 C 11,7 C 12,9 km/h (3 Bft)
25.05.2020 10:44 13,6 C 16,1 C 80 % 1034,9 hPa 0,0 l/m 8,0 km/h (2 Bft) W 270 0 min 2,3 UV-I 311 W/m 10,2 C 12,6 C 16,1 km/h (3 Bft)
25.05.2020 10:45 13,7 C 16,1 C 80 % 1035,0 hPa 0,0 l/m 6,4 km/h (2 Bft) W-NW 292 0 min 2,2 UV-I 316 W/m 10,3 C 13,7 C 12,9 km/h (3 Bft)
25.05.2020 10:46 13,7 C 16,1 C 79 % 1034,9 hPa 0,0 l/m 4,8 km/h (1 Bft) N 360 0 min 2,2 UV-I 308 W/m 10,1 C 13,7 C 8,0 km/h (2 Bft)
25.05.2020 10:47 13,7 C 16,1 C 79 % 1035,0 hPa 0,0 l/m 4,8 km/h (1 Bft) W-NW 292 0 min 2,2 UV-I 304 W/m 10,1 C 13,7 C 12,9 km/h (3 Bft)
25.05.2020 10:48 13,7 C 16,7 C 78 % 1034,9 hPa 0,0 l/m 8,0 km/h (2 Bft) W 270 0 min 2,2 UV-I 310 W/m 9,9 C 12,7 C 14,5 km/h (3 Bft)
25.05.2020 10:49 13,7 C 16,7 C 78 % 1034,9 hPa 0,0 l/m 8,0 km/h (2 Bft) NW 315 0 min 2,2 UV-I 315 W/m 9,9 C 12,7 C 14,5 km/h (3 Bft)
25.05.2020 10:50 13,7 C 16,7 C 79 % 1035,0 hPa 0,0 l/m 8,0 km/h (2 Bft) N 360 0 min 2,2 UV-I 299 W/m 10,1 C 12,7 C 12,9 km/h (3 Bft)
25.05.2020 10:51 13,7 C 16,7 C 78 % 1035,0 hPa 0,0 l/m 8,0 km/h (2 Bft) W-NW 292 0 min 2,1 UV-I 278 W/m 9,9 C 12,7 C 12,9 km/h (3 Bft)
25.05.2020 10:52 13,7 C 16,7 C 78 % 1035,0 hPa 0,0 l/m 9,7 km/h (2 Bft) NW 315 0 min 2,3 UV-I 281 W/m 9,9 C 11,8 C 17,7 km/h (3 Bft)
25.05.2020 10:53 13,7 C 16,1 C 78 % 1034,9 hPa 0,0 l/m 9,7 km/h (2 Bft) NW 315 0 min 2,6 UV-I 332 W/m 9,9 C 11,8 C 12,9 km/h (3 Bft)
25.05.2020 10:54 13,8 C 16,1 C 79 % 1035,0 hPa 0,0 l/m 8,0 km/h (2 Bft) NW 315 0 min 2,7 UV-I 363 W/m 10,2 C 12,8 C 16,1 km/h (3 Bft)
25.05.2020 10:55 13,8 C 16,1 C 78 % 1035,0 hPa 0,0 l/m 12,9 km/h (3 Bft) NW 315 0 min 2,6 UV-I 338 W/m 10,0 C 10,5 C 19,3 km/h (3 Bft)
25.05.2020 10:56 13,8 C 16,1 C 77 % 1035,1 hPa 0,0 l/m 8,0 km/h (2 Bft) N 360 0 min 2,3 UV-I 311 W/m 9,8 C 12,8 C 14,5 km/h (3 Bft)
25.05.2020 10:57 13,9 C 16,1 C 78 % 1035,1 hPa 0,0 l/m 11,3 km/h (2 Bft) N-NW 337 0 min 2,3 UV-I 297 W/m 10,1 C 11,3 C 20,9 km/h (4 Bft)
25.05.2020 10:58 13,9 C 16,1 C 78 % 1035,0 hPa 0,0 l/m 9,7 km/h (2 Bft) N 360 0 min 2,4 UV-I 290 W/m 10,1 C 12,0 C 14,5 km/h (3 Bft)
25.05.2020 10:59 13,9 C 16,1 C 77 % 1035,0 hPa 0,0 l/m 11,3 km/h (2 Bft) W-NW 292 0 min 2,5 UV-I 299 W/m 9,9 C 11,3 C 16,1 km/h (3 Bft)
25.05.2020 11:00 13,9 C 16,1 C 77 % 1035,1 hPa 0,0 l/m 8,0 km/h (2 Bft) N-NW 337 0 min 2,7 UV-I 327 W/m 9,9 C 12,9 C 19,3 km/h (3 Bft)
25.05.2020 11:01 13,9 C 16,1 C 76 % 1035,2 hPa 0,0 l/m 16,1 km/h (3 Bft) N-NW 337 0 min 2,9 UV-I 369 W/m 9,7 C 9,5 C 20,9 km/h (4 Bft)
25.05.2020 11:02 13,9 C 16,1 C 77 % 1035,1 hPa 0,0 l/m 11,3 km/h (2 Bft) N-NW 337 0 min 2,9 UV-I 345 W/m 9,9 C 11,3 C 19,3 km/h (3 Bft)
25.05.2020 11:03 13,8 C 16,1 C 76 % 1035,1 hPa 0,0 l/m 9,7 km/h (2 Bft) N-NW 337 0 min 2,8 UV-I 336 W/m 9,6 C 11,9 C 14,5 km/h (3 Bft)
25.05.2020 11:04 13,8 C 16,1 C 77 % 1035,1 hPa 0,0 l/m 8,0 km/h (2 Bft) N-NW 337 0 min 2,8 UV-I 339 W/m 9,8 C 12,8 C 12,9 km/h (3 Bft)
25.05.2020 11:05 13,8 C 16,7 C 76 % 1035,1 hPa 0,0 l/m 11,3 km/h (2 Bft) N 360 0 min 2,9 UV-I 348 W/m 9,6 C 11,2 C 17,7 km/h (3 Bft)
25.05.2020 11:06 13,8 C 16,7 C 76 % 1035,0 hPa 0,0 l/m 12,9 km/h (3 Bft) N-NW 337 0 min 2,9 UV-I 373 W/m 9,6 C 10,5 C 17,7 km/h (3 Bft)
25.05.2020 11:07 13,8 C 16,7 C 76 % 1035,0 hPa 0,0 l/m 14,5 km/h (3 Bft) N 360 0 min 3,0 UV-I 381 W/m 9,6 C 9,9 C 19,3 km/h (3 Bft)
25.05.2020 11:08 13,8 C 16,7 C 76 % 1035,0 hPa 0,0 l/m 12,9 km/h (3 Bft) N 360 0 min 2,9 UV-I 380 W/m 9,6 C 10,5 C 19,3 km/h (3 Bft)
25.05.2020 11:09 13,9 C 16,7 C 77 % 1035,0 hPa 0,0 l/m 8,0 km/h (2 Bft) N 360 0 min 3,0 UV-I 401 W/m 9,9 C 12,9 C 16,1 km/h (3 Bft)
25.05.2020 11:10 14,0 C 17,2 C 77 % 1035,0 hPa 0,0 l/m 11,3 km/h (2 Bft) N-NW 337 0 min 2,8 UV-I 390 W/m 10,0 C 11,4 C 16,1 km/h (3 Bft)
25.05.2020 11:11 14,1 C 16,7 C 75 % 1035,0 hPa 0,0 l/m 9,7 km/h (2 Bft) N 360 0 min 2,7 UV-I 371 W/m 9,7 C 12,3 C 16,1 km/h (3 Bft)
25.05.2020 11:12 14,1 C 16,7 C 75 % 1035,0 hPa 0,0 l/m 6,4 km/h (2 Bft) N 360 0 min 2,5 UV-I 342 W/m 9,7 C 14,1 C 12,9 km/h (3 Bft)
25.05.2020 11:13 14,1 C 16,7 C 76 % 1035,0 hPa 0,0 l/m 16,1 km/h (3 Bft) N-NW 337 0 min 2,4 UV-I 325 W/m 9,9 C 9,7 C 22,5 km/h (4 Bft)
25.05.2020 11:14 14,1 C 16,7 C 74 % 1035,0 hPa 0,0 l/m 14,5 km/h (3 Bft) N 360 0 min 2,6 UV-I 341 W/m 9,5 C 10,3 C 19,3 km/h (3 Bft)
25.05.2020 11:15 14,0 C 16,7 C 74 % 1035,0 hPa 0,0 l/m 14,5 km/h (3 Bft) N 360 0 min 3,0 UV-I 381 W/m 9,4 C 10,2 C 22,5 km/h (4 Bft)
25.05.2020 11:16 14,0 C 16,7 C 75 % 1035,0 hPa 0,0 l/m 16,1 km/h (3 Bft) N 360 0 min 3,2 UV-I 431 W/m 9,6 C 9,6 C 22,5 km/h (4 Bft)
25.05.2020 11:17 14,1 C 16,7 C 76 % 1035,0 hPa 0,0 l/m 17,7 km/h (3 Bft) N 360 0 min 3,5 UV-I 466 W/m 9,9 C 9,2 C 20,9 km/h (4 Bft)
25.05.2020 11:18 14,1 C 17,2 C 76 % 1035,0 hPa 0,0 l/m 17,7 km/h (3 Bft) N 360 0 min 4,3 UV-I 526 W/m 9,9 C 9,2 C 22,5 km/h (4 Bft)
25.05.2020 11:19 14,2 C 17,2 C 76 % 1035,0 hPa 0,0 l/m 14,5 km/h (3 Bft) N 360 0 min 3,8 UV-I 501 W/m 10,0 C 10,4 C 20,9 km/h (4 Bft)
25.05.2020 11:20 14,3 C 17,8 C 75 % 1035,0 hPa 0,0 l/m 11,3 km/h (2 Bft) N 360 0 min 3,7 UV-I 496 W/m 9,9 C 11,8 C 16,1 km/h (3 Bft)
25.05.2020 11:21 14,4 C 18,3 C 75 % 1035,0 hPa 0,0 l/m 4,8 km/h (1 Bft) N-NW 337 0 min 3,8 UV-I 487 W/m 10,0 C 14,4 C 8,0 km/h (2 Bft)
25.05.2020 11:22 14,4 C 18,3 C 75 % 1035,0 hPa 0,0 l/m 3,2 km/h (1 Bft) N 360 0 min 3,6 UV-I 446 W/m 10,0 C 14,4 C 6,4 km/h (2 Bft)
25.05.2020 11:23 14,5 C 18,3 C 74 % 1034,9 hPa 0,0 l/m 3,2 km/h (1 Bft) W 270 0 min 3,5 UV-I 395 W/m 9,9 C 14,5 C 4,8 km/h (1 Bft)
25.05.2020 11:24 14,6 C 18,3 C 76 % 1035,0 hPa 0,0 l/m 6,4 km/h (2 Bft) W-NW 292 0 min 3,6 UV-I 422 W/m 10,4 C 14,6 C 12,9 km/h (3 Bft)
25.05.2020 11:25 14,7 C 18,3 C 74 % 1034,9 hPa 0,0 l/m 4,8 km/h (1 Bft) W-NW 292 0 min 3,7 UV-I 422 W/m 10,1 C 14,7 C 11,3 km/h (2 Bft)
25.05.2020 11:26 14,6 C 18,3 C 73 % 1035,0 hPa 0,0 l/m 3,2 km/h (1 Bft) N 360 0 min 4,9 UV-I 422 W/m 9,8 C 14,6 C 4,8 km/h (1 Bft)
25.05.2020 11:27 14,6 C 18,3 C 75 % 1034,9 hPa 0,0 l/m 3,2 km/h (1 Bft) N 360 0 min 4,1 UV-I 422 W/m 10,2 C 14,6 C 6,4 km/h (2 Bft)
25.05.2020 11:28 14,7 C 18,3 C 75 % 1034,9 hPa 0,0 l/m 8,0 km/h (2 Bft) W-NW 292 0 min 6,6 UV-I 422 W/m 10,3 C 13,8 C 16,1 km/h (3 Bft)
25.05.2020 11:29 14,9 C 19,4 C 74 % 1035,0 hPa 0,0 l/m 9,7 km/h (2 Bft) W 270 0 min 6,8 UV-I 422 W/m 10,3 C 13,1 C 19,3 km/h (3 Bft)
25.05.2020 11:30 15,1 C 20,0 C 74 % 1034,9 hPa 0,0 l/m 6,4 km/h (2 Bft) W 270 0 min 4,2 UV-I 515 W/m 10,5 C 15,1 C 11,3 km/h (2 Bft)
25.05.2020 11:31 15,3 C 19,4 C 75 % 1034,9 hPa 0,0 l/m 8,0 km/h (2 Bft) W 270 0 min 4,3 UV-I 550 W/m 10,9 C 14,4 C 16,1 km/h (3 Bft)
25.05.2020 11:32 15,3 C 20,0 C 73 % 1034,9 hPa 0,0 l/m 6,4 km/h (2 Bft) W-NW 292 0 min 3,3 UV-I 466 W/m 10,5 C 15,3 C 14,5 km/h (3 Bft)
25.05.2020 11:33 15,2 C 19,4 C 72 % 1034,9 hPa 0,0 l/m 11,3 km/h (2 Bft) W-NW 292 0 min 2,7 UV-I 376 W/m 10,2 C 12,8 C 19,3 km/h (3 Bft)
25.05.2020 11:34 15,1 C 18,3 C 72 % 1034,9 hPa 0,0 l/m 9,7 km/h (2 Bft) N-NW 337 0 min 2,2 UV-I 306 W/m 10,1 C 13,4 C 16,1 km/h (3 Bft)
25.05.2020 11:35 14,9 C 17,8 C 73 % 1035,0 hPa 0,0 l/m 4,8 km/h (1 Bft) O 90 0 min 1,9 UV-I 234 W/m 10,1 C 14,9 C 8,0 km/h (2 Bft)
25.05.2020 11:36 14,7 C 17,8 C 71 % 1034,8 hPa 0,0 l/m 8,0 km/h (2 Bft) NW 315 0 min 1,4 UV-I 176 W/m 9,5 C 13,8 C 12,9 km/h (3 Bft)
25.05.2020 11:37 14,6 C 17,2 C 71 % 1035,0 hPa 0,0 l/m 8,0 km/h (2 Bft) NW 315 0 min 1,3 UV-I 144 W/m 9,4 C 13,7 C 14,5 km/h (3 Bft)
25.05.2020 11:38 14,4 C 16,7 C 74 % 1034,9 hPa 0,0 l/m 11,3 km/h (2 Bft) W 270 0 min 0,9 UV-I 123 W/m 9,8 C 11,9 C 14,5 km/h (3 Bft)
25.05.2020 11:39 14,3 C 16,1 C 74 % 1034,9 hPa 0,0 l/m 8,0 km/h (2 Bft) W 270 0 min 0,8 UV-I 116 W/m 9,7 C 13,4 C 12,9 km/h (3 Bft)
25.05.2020 11:40 14,2 C 15,6 C 73 % 1035,0 hPa 0,0 l/m 14,5 km/h (3 Bft) W 270 0 min 0,9 UV-I 118 W/m 9,4 C 10,4 C 22,5 km/h (4 Bft)
25.05.2020 11:41 14,1 C 15,0 C 74 % 1035,0 hPa 0,0 l/m 8,0 km/h (2 Bft) W 270 0 min 0,9 UV-I 127 W/m 9,5 C 13,2 C 12,9 km/h (3 Bft)
25.05.2020 11:42 13,9 C 15,0 C 75 % 1035,0 hPa 0,0 l/m 8,0 km/h (2 Bft) W 270 0 min 1,1 UV-I 137 W/m 9,5 C 12,9 C 11,3 km/h (2 Bft)
25.05.2020 11:43 13,8 C 15,0 C 75 % 1035,0 hPa 0,0 l/m 12,9 km/h (3 Bft) W-SW 247 0 min 1,2 UV-I 137 W/m 9,4 C 10,5 C 19,3 km/h (3 Bft)
25.05.2020 11:44 13,8 C 15,0 C 75 % 1034,9 hPa 0,0 l/m 12,9 km/h (3 Bft) W-SW 247 0 min 1,4 UV-I 169 W/m 9,4 C 10,5 C 16,1 km/h (3 Bft)
25.05.2020 11:45 13,7 C 14,4 C 75 % 1035,0 hPa 0,0 l/m 11,3 km/h (2 Bft) W 270 0 min 1,6 UV-I 192 W/m 9,3 C 11,1 C 17,7 km/h (3 Bft)
25.05.2020 11:46 13,7 C 14,4 C 75 % 1034,9 hPa 0,0 l/m 8,0 km/h (2 Bft) W 270 0 min 1,9 UV-I 214 W/m 9,3 C 12,7 C 16,1 km/h (3 Bft)
25.05.2020 11:47 13,7 C 15,0 C 76 % 1034,9 hPa 0,0 l/m 4,8 km/h (1 Bft) W 270 0 min 1,9 UV-I 251 W/m 9,5 C 13,7 C 9,7 km/h (2 Bft)
25.05.2020 11:48 13,7 C 15,0 C 76 % 1034,9 hPa 0,0 l/m 9,7 km/h (2 Bft) W 270 0 min 2,5 UV-I 294 W/m 9,5 C 11,8 C 12,9 km/h (3 Bft)
25.05.2020 11:49 13,7 C 15,0 C 75 % 1035,0 hPa 0,0 l/m 4,8 km/h (1 Bft) W 270 0 min 2,9 UV-I 327 W/m 9,3 C 13,7 C 8,0 km/h (2 Bft)
25.05.2020 11:50 13,8 C 15,6 C 76 % 1035,0 hPa 0,0 l/m 3,2 km/h (1 Bft) S 180 0 min 3,2 UV-I 373 W/m 9,6 C 13,8 C 6,4 km/h (2 Bft)
25.05.2020 11:51 13,9 C 15,6 C 75 % 1035,0 hPa 0,0 l/m 11,3 km/h (2 Bft) N-NW 337 0 min 4,0 UV-I 436 W/m 9,5 C 11,3 C 16,1 km/h (3 Bft)
25.05.2020 11:52 14,1 C 16,1 C 76 % 1034,9 hPa 0,0 l/m 1,6 km/h (1 Bft) W-NW 292 0 min 3,6 UV-I 464 W/m 9,9 C 14,1 C 3,2 km/h (1 Bft)
25.05.2020 11:53 14,2 C 16,7 C 76 % 1035,0 hPa 0,0 l/m 6,4 km/h (2 Bft) W 270 0 min 3,3 UV-I 402 W/m 10,0 C 14,2 C 11,3 km/h (2 Bft)
25.05.2020 11:54 14,3 C 16,7 C 75 % 1035,0 hPa 0,0 l/m 9,7 km/h (2 Bft) W-NW 292 0 min 3,0 UV-I 357 W/m 9,9 C 12,5 C 14,5 km/h (3 Bft)
25.05.2020 11:55 14,3 C 16,7 C 75 % 1035,0 hPa 0,0 l/m 14,5 km/h (3 Bft) NW 315 0 min 2,7 UV-I 334 W/m 9,9 C 10,5 C 25,7 km/h (4 Bft)
25.05.2020 11:56 14,4 C 16,7 C 73 % 1035,1 hPa 0,0 l/m 8,0 km/h (2 Bft) NW 315 0 min 2,5 UV-I 309 W/m 9,6 C 13,5 C 25,7 km/h (4 Bft)
25.05.2020 11:57 14,4 C 16,7 C 73 % 1035,1 hPa 0,0 l/m 9,7 km/h (2 Bft) NW 315 0 min 2,2 UV-I 285 W/m 9,6 C 12,6 C 14,5 km/h (3 Bft)
25.05.2020 11:58 14,3 C 16,7 C 72 % 1035,1 hPa 0,0 l/m 8,0 km/h (2 Bft) N-NW 337 0 min 2,0 UV-I 245 W/m 9,3 C 13,4 C 12,9 km/h (3 Bft)
25.05.2020 11:59 14,3 C 16,7 C 73 % 1035,0 hPa 0,0 l/m 1,6 km/h (1 Bft) W-NW 292 0 min 1,8 UV-I 220 W/m 9,5 C 14,3 C 4,8 km/h (1 Bft)
25.05.2020 12:00 14,3 C 16,7 C 73 % 1035,0 hPa 0,0 l/m 4,8 km/h (1 Bft) W-NW 292 0 min 1,7 UV-I 209 W/m 9,5 C 14,3 C 12,9 km/h (3 Bft)
25.05.2020 12:01 14,3 C 16,7 C 74 % 1035,0 hPa 0,0 l/m 6,4 km/h (2 Bft) NW 315 0 min 1,5 UV-I 195 W/m 9,7 C 14,3 C 11,3 km/h (2 Bft)
25.05.2020 12:02 14,3 C 16,1 C 73 % 1035,0 hPa 0,0 l/m 4,8 km/h (1 Bft) W 270 0 min 1,3 UV-I 174 W/m 9,5 C 14,3 C 9,7 km/h (2 Bft)
25.05.2020 12:03 14,2 C 16,1 C 74 % 1035,1 hPa 0,0 l/m 6,4 km/h (2 Bft) W 270 0 min 1,2 UV-I 155 W/m 9,6 C 14,2 C 11,3 km/h (2 Bft)
25.05.2020 12:04 14,2 C 16,1 C 73 % 1035,0 hPa 0,0 l/m 12,9 km/h (3 Bft) W-NW 292 0 min 1,1 UV-I 141 W/m 9,4 C 11,0 C 17,7 km/h (3 Bft)
25.05.2020 12:05 14,1 C 15,6 C 74 % 1035,1 hPa 0,0 l/m 6,4 km/h (2 Bft) W 270 0 min 1,0 UV-I 134 W/m 9,5 C 14,1 C 11,3 km/h (2 Bft)
25.05.2020 12:06 14,0 C 15,0 C 74 % 1035,0 hPa 0,0 l/m 4,8 km/h (1 Bft) W 270 0 min 1,0 UV-I 134 W/m 9,4 C 14,0 C 9,7 km/h (2 Bft)
25.05.2020 12:07 13,9 C 15,0 C 74 % 1035,0 hPa 0,0 l/m 4,8 km/h (1 Bft) W 270 0 min 1,0 UV-I 137 W/m 9,3 C 13,9 C 9,7 km/h (2 Bft)
25.05.2020 12:08 13,9 C 15,0 C 75 % 1035,0 hPa 0,0 l/m 8,0 km/h (2 Bft) W-NW 292 0 min 1,1 UV-I 142 W/m 9,5 C 12,9 C 14,5 km/h (3 Bft)
25.05.2020 12:09 13,8 C 15,0 C 74 % 1035,0 hPa 0,0 l/m 8,0 km/h (2 Bft) W 270 0 min 1,2 UV-I 153 W/m 9,2 C 12,8 C 12,9 km/h (3 Bft)
25.05.2020 12:10 13,8 C 14,4 C 75 % 1035,0 hPa 0,0 l/m 9,7 km/h (2 Bft) W 270 0 min 1,3 UV-I 175 W/m 9,4 C 11,9 C 17,7 km/h (3 Bft)
25.05.2020 12:11 13,8 C 14,4 C 76 % 1034,9 hPa 0,0 l/m 4,8 km/h (1 Bft) W 270 0 min 1,6 UV-I 200 W/m 9,6 C 13,8 C 11,3 km/h (2 Bft)
25.05.2020 12:12 13,8 C 15,0 C 75 % 1035,0 hPa 0,0 l/m 9,7 km/h (2 Bft) W 270 0 min 1,8 UV-I 214 W/m 9,4 C 11,9 C 14,5 km/h (3 Bft)
25.05.2020 12:13 13,8 C 15,0 C 75 % 1035,0 hPa 0,0 l/m 4,8 km/h (1 Bft) N-NW 337 0 min 1,9 UV-I 230 W/m 9,4 C 13,8 C 8,0 km/h (2 Bft)
25.05.2020 12:14 13,8 C 15,0 C 75 % 1034,9 hPa 0,0 l/m 8,0 km/h (2 Bft) W-NW 292 0 min 2,1 UV-I 248 W/m 9,4 C 12,8 C 14,5 km/h (3 Bft)
25.05.2020 12:15 13,9 C 15,6 C 76 % 1034,9 hPa 0,0 l/m 6,4 km/h (2 Bft) W 270 0 min 2,4 UV-I 274 W/m 9,7 C 13,9 C 9,7 km/h (2 Bft)
25.05.2020 12:16 14,0 C 15,6 C 76 % 1035,0 hPa 0,0 l/m 6,4 km/h (2 Bft) N-NW 337 0 min 2,7 UV-I 338 W/m 9,8 C 14,0 C 14,5 km/h (3 Bft)
25.05.2020 12:17 14,1 C 16,1 C 75 % 1034,9 hPa 0,0 l/m 9,7 km/h (2 Bft) N-NW 337 0 min 3,3 UV-I 411 W/m 9,7 C 12,3 C 17,7 km/h (3 Bft)
25.05.2020 12:18 14,1 C 16,1 C 75 % 1034,9 hPa 0,0 l/m 9,7 km/h (2 Bft) NW 315 0 min 3,6 UV-I 424 W/m 9,7 C 12,3 C 16,1 km/h (3 Bft)
25.05.2020 12:19 14,2 C 16,7 C 74 % 1034,9 hPa 0,0 l/m 8,0 km/h (2 Bft) W 270 0 min 3,7 UV-I 424 W/m 9,6 C 13,3 C 12,9 km/h (3 Bft)
25.05.2020 12:20 14,3 C 17,2 C 74 % 1034,9 hPa 0,0 l/m 9,7 km/h (2 Bft) NW 315 0 min 3,8 UV-I 448 W/m 9,7 C 12,5 C 16,1 km/h (3 Bft)
25.05.2020 12:21 14,4 C 17,8 C 74 % 1034,9 hPa 0,0 l/m 8,0 km/h (2 Bft) NW 315 0 min 4,1 UV-I 496 W/m 9,8 C 13,5 C 12,9 km/h (3 Bft)
25.05.2020 12:22 14,6 C 18,3 C 75 % 1034,8 hPa 0,0 l/m 4,8 km/h (1 Bft) N-NW 337 0 min 3,9 UV-I 472 W/m 10,2 C 14,6 C 11,3 km/h (2 Bft)
25.05.2020 12:23 14,8 C 18,3 C 76 % 1034,9 hPa 0,0 l/m 3,2 km/h (1 Bft) N 360 0 min 3,4 UV-I 436 W/m 10,6 C 14,8 C 4,8 km/h (1 Bft)
25.05.2020 12:24 14,9 C 18,3 C 76 % 1034,9 hPa 0,0 l/m 4,8 km/h (1 Bft) N-NW 337 0 min 3,2 UV-I 408 W/m 10,7 C 14,9 C 8,0 km/h (2 Bft)
25.05.2020 12:25 14,9 C 18,3 C 73 % 1034,9 hPa 0,0 l/m 6,4 km/h (2 Bft) N 360 0 min 3,0 UV-I 394 W/m 10,1 C 14,9 C 8,0 km/h (2 Bft)
25.05.2020 12:26 14,9 C 18,3 C 74 % 1034,9 hPa 0,0 l/m 6,4 km/h (2 Bft) N 360 0 min 2,7 UV-I 343 W/m 10,3 C 14,9 C 8,0 km/h (2 Bft)
25.05.2020 12:27 14,9 C 18,3 C 75 % 1035,0 hPa 0,0 l/m 6,4 km/h (2 Bft) N-NO 22 0 min 2,5 UV-I 311 W/m 10,5 C 14,9 C 12,9 km/h (3 Bft)
25.05.2020 12:28 15,0 C 18,3 C 74 % 1034,9 hPa 0,0 l/m 4,8 km/h (1 Bft) N 360 0 min 2,3 UV-I 273 W/m 10,4 C 15,0 C 9,7 km/h (2 Bft)
25.05.2020 12:29 15,0 C 17,8 C 74 % 1035,0 hPa 0,0 l/m 11,3 km/h (2 Bft) N 360 0 min 2,0 UV-I 239 W/m 10,4 C 12,6 C 17,7 km/h (3 Bft)
25.05.2020 12:30 14,9 C 17,8 C 72 % 1034,9 hPa 0,0 l/m 9,7 km/h (2 Bft) N-NW 337 0 min 1,7 UV-I 220 W/m 9,9 C 13,1 C 16,1 km/h (3 Bft)
25.05.2020 12:31 14,8 C 17,2 C 71 % 1035,0 hPa 0,0 l/m 16,1 km/h (3 Bft) N 360 0 min 1,6 UV-I 202 W/m 9,6 C 10,6 C 20,9 km/h (4 Bft)
25.05.2020 12:32 14,8 C 17,2 C 72 % 1034,9 hPa 0,0 l/m 9,7 km/h (2 Bft) N 360 0 min 1,5 UV-I 186 W/m 9,8 C 13,0 C 12,9 km/h (3 Bft)
25.05.2020 12:33 14,7 C 16,7 C 71 % 1035,0 hPa 0,0 l/m 8,0 km/h (2 Bft) NW 315 0 min 1,4 UV-I 178 W/m 9,5 C 13,8 C 12,9 km/h (3 Bft)
25.05.2020 12:34 14,6 C 16,7 C 71 % 1035,0 hPa 0,0 l/m 12,9 km/h (3 Bft) N-NW 337 0 min 1,4 UV-I 178 W/m 9,4 C 11,5 C 17,7 km/h (3 Bft)
25.05.2020 12:35 14,6 C 16,1 C 71 % 1034,9 hPa 0,0 l/m 9,7 km/h (2 Bft) NW 315 0 min 1,5 UV-I 190 W/m 9,4 C 12,8 C 14,5 km/h (3 Bft)
25.05.2020 12:36 14,5 C 16,1 C 72 % 1034,9 hPa 0,0 l/m 4,8 km/h (1 Bft) NW 315 0 min 1,7 UV-I 209 W/m 9,5 C 14,5 C 11,3 km/h (2 Bft)
25.05.2020 12:37 14,4 C 16,1 C 72 % 1035,1 hPa 0,0 l/m 6,4 km/h (2 Bft) NW 315 0 min 1,9 UV-I 209 W/m 9,4 C 14,4 C 16,1 km/h (3 Bft)
25.05.2020 12:38 14,4 C 16,1 C 73 % 1035,0 hPa 0,0 l/m 3,2 km/h (1 Bft) W-NW 292 0 min 2,1 UV-I 248 W/m 9,6 C 14,4 C 6,4 km/h (2 Bft)
25.05.2020 12:39 14,4 C 16,7 C 73 % 1035,1 hPa 0,0 l/m 4,8 km/h (1 Bft) NW 315 0 min 2,4 UV-I 290 W/m 9,6 C 14,4 C 8,0 km/h (2 Bft)
25.05.2020 12:40 14,4 C 16,7 C 73 % 1035,0 hPa 0,0 l/m 12,9 km/h (3 Bft) N-NW 337 0 min 2,6 UV-I 327 W/m 9,6 C 11,2 C 17,7 km/h (3 Bft)
25.05.2020 12:41 14,4 C 16,7 C 72 % 1035,0 hPa 0,0 l/m 8,0 km/h (2 Bft) N-NW 337 0 min 3,0 UV-I 345 W/m 9,4 C 13,5 C 12,9 km/h (3 Bft)
25.05.2020 12:42 14,5 C 17,2 C 72 % 1035,0 hPa 0,0 l/m 8,0 km/h (2 Bft) NW 315 0 min 3,2 UV-I 359 W/m 9,5 C 13,6 C 12,9 km/h (3 Bft)
25.05.2020 12:43 14,5 C 17,2 C 72 % 1035,1 hPa 0,0 l/m 6,4 km/h (2 Bft) NW 315 0 min 3,4 UV-I 374 W/m 9,5 C 14,5 C 9,7 km/h (2 Bft)
25.05.2020 12:44 14,6 C 17,2 C 72 % 1035,0 hPa 0,0 l/m 8,0 km/h (2 Bft) NW 315 0 min 3,6 UV-I 396 W/m 9,6 C 13,7 C 14,5 km/h (3 Bft)
25.05.2020 12:45 14,6 C 17,8 C 73 % 1035,0 hPa 0,0 l/m 1,6 km/h (1 Bft) NW 315 0 min 3,9 UV-I 446 W/m 9,8 C 14,6 C 3,2 km/h (1 Bft)
25.05.2020 12:46 14,8 C 17,8 C 74 % 1035,0 hPa 0,0 l/m 9,7 km/h (2 Bft) N-NW 337 0 min 4,2 UV-I 473 W/m 10,2 C 13,0 C 17,7 km/h (3 Bft)
25.05.2020 12:47 14,9 C 18,3 C 72 % 1034,9 hPa 0,0 l/m 11,3 km/h (2 Bft) N-NW 337 0 min 4,3 UV-I 522 W/m 9,9 C 12,4 C 16,1 km/h (3 Bft)
25.05.2020 12:48 14,9 C 18,3 C 71 % 1035,0 hPa 0,0 l/m 11,3 km/h (2 Bft) N-NW 337 0 min 4,2 UV-I 475 W/m 9,7 C 12,4 C 17,7 km/h (3 Bft)
25.05.2020 12:49 14,9 C 18,3 C 70 % 1034,9 hPa 0,0 l/m 8,0 km/h (2 Bft) N-NW 337 0 min 4,1 UV-I 471 W/m 9,5 C 14,0 C 12,9 km/h (3 Bft)
25.05.2020 12:50 14,9 C 18,3 C 70 % 1034,9 hPa 0,0 l/m 8,0 km/h (2 Bft) N 360 0 min 4,1 UV-I 478 W/m 9,5 C 14,0 C 12,9 km/h (3 Bft)
25.05.2020 12:51 15,1 C 18,3 C 72 % 1034,9 hPa 0,0 l/m 19,3 km/h (3 Bft) N 360 0 min 4,2 UV-I 493 W/m 10,1 C 10,1 C 22,5 km/h (4 Bft)
25.05.2020 12:52 15,2 C 18,3 C 70 % 1034,9 hPa 0,0 l/m 11,3 km/h (2 Bft) N 360 0 min 4,2 UV-I 475 W/m 9,8 C 12,8 C 17,7 km/h (3 Bft)
25.05.2020 12:53 15,3 C 18,9 C 70 % 1034,9 hPa 0,0 l/m 11,3 km/h (2 Bft) NW 315 0 min 4,0 UV-I 476 W/m 9,9 C 12,9 C 17,7 km/h (3 Bft)
25.05.2020 12:54 15,3 C 18,9 C 69 % 1034,8 hPa 0,0 l/m 12,9 km/h (3 Bft) N-NW 337 0 min 4,1 UV-I 499 W/m 9,6 C 12,3 C 17,7 km/h (3 Bft)
25.05.2020 12:55 15,3 C 18,9 C 69 % 1034,9 hPa 0,0 l/m 12,9 km/h (3 Bft) NW 315 0 min 3,8 UV-I 499 W/m 9,6 C 12,3 C 20,9 km/h (4 Bft)
25.05.2020 12:56 15,3 C 18,3 C 69 % 1035,0 hPa 0,0 l/m 14,5 km/h (3 Bft) N-NW 337 0 min 3,7 UV-I 443 W/m 9,6 C 11,7 C 17,7 km/h (3 Bft)
25.05.2020 12:57 15,3 C 18,3 C 70 % 1035,0 hPa 0,0 l/m 14,5 km/h (3 Bft) N 360 0 min 3,5 UV-I 411 W/m 9,9 C 11,7 C 24,1 km/h (4 Bft)
25.05.2020 12:58 15,3 C 18,3 C 69 % 1035,0 hPa 0,0 l/m 16,1 km/h (3 Bft) N 360 0 min 3,3 UV-I 385 W/m 9,6 C 11,2 C 22,5 km/h (4 Bft)
25.05.2020 12:59 15,3 C 18,3 C 69 % 1035,0 hPa 0,0 l/m 9,7 km/h (2 Bft) N 360 0 min 3,0 UV-I 385 W/m 9,6 C 13,6 C 14,5 km/h (3 Bft)
25.05.2020 13:00 15,3 C 18,3 C 71 % 1035,0 hPa 0,0 l/m 8,0 km/h (2 Bft) N-NW 337 0 min 2,6 UV-I 320 W/m 10,1 C 14,4 C 12,9 km/h (3 Bft)
25.05.2020 13:01 15,3 C 18,3 C 70 % 1035,0 hPa 0,0 l/m 8,0 km/h (2 Bft) N-NW 337 0 min 2,4 UV-I 281 W/m 9,9 C 14,4 C 20,9 km/h (4 Bft)
25.05.2020 13:02 15,2 C 17,8 C 69 % 1035,0 hPa 0,0 l/m 12,9 km/h (3 Bft) N-NW 337 0 min 2,2 UV-I 253 W/m 9,6 C 12,2 C 19,3 km/h (3 Bft)
25.05.2020 13:03 15,1 C 17,2 C 68 % 1035,2 hPa 0,0 l/m 16,1 km/h (3 Bft) NW 315 0 min 1,9 UV-I 216 W/m 9,2 C 11,0 C 19,3 km/h (3 Bft)
25.05.2020 13:04 15,0 C 16,7 C 69 % 1035,1 hPa 0,0 l/m 6,4 km/h (2 Bft) N-NW 337 0 min 1,6 UV-I 179 W/m 9,4 C 15,0 C 11,3 km/h (2 Bft)
25.05.2020 13:05 14,9 C 16,7 C 70 % 1035,1 hPa 0,0 l/m 8,0 km/h (2 Bft) N 360 0 min 1,3 UV-I 167 W/m 9,5 C 14,0 C 12,9 km/h (3 Bft)
25.05.2020 13:06 14,8 C 16,7 C 71 % 1035,1 hPa 0,0 l/m 9,7 km/h (2 Bft) N 360 0 min 1,4 UV-I 169 W/m 9,6 C 13,0 C 12,9 km/h (3 Bft)
25.05.2020 13:07 14,8 C 16,7 C 71 % 1035,2 hPa 0,0 l/m 8,0 km/h (2 Bft) NW 315 0 min 1,6 UV-I 185 W/m 9,6 C 13,9 C 14,5 km/h (3 Bft)
25.05.2020 13:08 14,7 C 16,7 C 70 % 1035,1 hPa 0,0 l/m 6,4 km/h (2 Bft) N-NW 337 0 min 1,9 UV-I 216 W/m 9,3 C 14,7 C 14,5 km/h (3 Bft)
25.05.2020 13:09 14,7 C 16,1 C 71 % 1035,0 hPa 0,0 l/m 8,0 km/h (2 Bft) N-NW 337 0 min 2,3 UV-I 275 W/m 9,5 C 13,8 C 12,9 km/h (3 Bft)
25.05.2020 13:10 14,7 C 16,1 C 71 % 1035,2 hPa 0,0 l/m 6,4 km/h (2 Bft) N-NW 337 0 min 2,8 UV-I 325 W/m 9,5 C 14,7 C 11,3 km/h (2 Bft)
25.05.2020 13:11 14,7 C 16,7 C 71 % 1035,2 hPa 0,0 l/m 8,0 km/h (2 Bft) N 360 0 min 3,2 UV-I 350 W/m 9,5 C 13,8 C 14,5 km/h (3 Bft)
25.05.2020 13:12 14,8 C 16,7 C 72 % 1035,1 hPa 0,0 l/m 8,0 km/h (2 Bft) NW 315 0 min 3,4 UV-I 369 W/m 9,8 C 13,9 C 14,5 km/h (3 Bft)
25.05.2020 13:13 14,8 C 16,7 C 72 % 1035,2 hPa 0,0 l/m 6,4 km/h (2 Bft) NW 315 0 min 3,5 UV-I 369 W/m 9,8 C 14,8 C 11,3 km/h (2 Bft)
25.05.2020 13:14 14,8 C 17,2 C 70 % 1035,1 hPa 0,0 l/m 9,7 km/h (2 Bft) N-NW 337 0 min 3,7 UV-I 418 W/m 9,4 C 13,0 C 16,1 km/h (3 Bft)
25.05.2020 13:15 14,9 C 17,2 C 71 % 1035,2 hPa 0,0 l/m 6,4 km/h (2 Bft) W-NW 292 0 min 3,9 UV-I 461 W/m 9,7 C 14,9 C 14,5 km/h (3 Bft)
25.05.2020 13:16 15,0 C 17,8 C 71 % 1035,3 hPa 0,0 l/m 11,3 km/h (2 Bft) W-NW 292 0 min 4,0 UV-I 522 W/m 9,8 C 12,6 C 19,3 km/h (3 Bft)
25.05.2020 13:17 15,1 C 17,8 C 70 % 1035,3 hPa 0,0 l/m 9,7 km/h (2 Bft) NW 315 0 min 3,8 UV-I 454 W/m 9,7 C 13,4 C 14,5 km/h (3 Bft)
25.05.2020 13:18 15,2 C 18,3 C 70 % 1035,1 hPa 0,0 l/m 11,3 km/h (2 Bft) NW 315 0 min 3,7 UV-I 432 W/m 9,8 C 12,8 C 17,7 km/h (3 Bft)
25.05.2020 13:19 15,3 C 18,3 C 70 % 1035,2 hPa 0,0 l/m 9,7 km/h (2 Bft) N-NW 337 0 min 3,6 UV-I 443 W/m 9,9 C 13,6 C 16,1 km/h (3 Bft)
25.05.2020 13:20 15,3 C 18,3 C 69 % 1035,2 hPa 0,0 l/m 12,9 km/h (3 Bft) NW 315 0 min 3,1 UV-I 360 W/m 9,6 C 12,3 C 19,3 km/h (3 Bft)
25.05.2020 13:21 15,3 C 18,3 C 70 % 1035,3 hPa 0,0 l/m 11,3 km/h (2 Bft) N-NW 337 0 min 2,8 UV-I 311 W/m 9,9 C 12,9 C 20,9 km/h (4 Bft)
25.05.2020 13:22 15,2 C 17,8 C 69 % 1035,1 hPa 0,0 l/m 11,3 km/h (2 Bft) NW 315 0 min 2,7 UV-I 306 W/m 9,6 C 12,8 C 17,7 km/h (3 Bft)
25.05.2020 13:23 15,2 C 17,8 C 68 % 1035,3 hPa 0,0 l/m 8,0 km/h (2 Bft) N-NW 337 0 min 2,5 UV-I 299 W/m 9,3 C 14,3 C 14,5 km/h (3 Bft)
25.05.2020 13:24 15,1 C 17,2 C 69 % 1035,2 hPa 0,0 l/m 4,8 km/h (1 Bft) W-NW 292 0 min 2,4 UV-I 288 W/m 9,5 C 15,1 C 14,5 km/h (3 Bft)
25.05.2020 13:25 15,1 C 17,2 C 69 % 1035,2 hPa 0,0 l/m 4,8 km/h (1 Bft) NO 45 0 min 2,4 UV-I 281 W/m 9,5 C 15,1 C 9,7 km/h (2 Bft)
25.05.2020 13:26 15,0 C 17,2 C 71 % 1035,1 hPa 0,0 l/m 4,8 km/h (1 Bft) NO 45 0 min 2,3 UV-I 270 W/m 9,8 C 15,0 C 12,9 km/h (3 Bft)
25.05.2020 13:27 15,0 C 17,2 C 70 % 1035,1 hPa 0,0 l/m 12,9 km/h (3 Bft) W-NW 292 0 min 2,3 UV-I 262 W/m 9,6 C 11,9 C 19,3 km/h (3 Bft)
25.05.2020 13:28 14,9 C 17,2 C 70 % 1035,3 hPa 0,0 l/m 12,9 km/h (3 Bft) N-NW 337 0 min 2,2 UV-I 262 W/m 9,5 C 11,8 C 17,7 km/h (3 Bft)
25.05.2020 13:29 14,9 C 17,2 C 68 % 1035,2 hPa 0,0 l/m 11,3 km/h (2 Bft) N-NW 337 0 min 2,2 UV-I 262 W/m 9,0 C 12,4 C 17,7 km/h (3 Bft)
25.05.2020 13:30 14,9 C 16,7 C 70 % 1035,2 hPa 0,0 l/m 12,9 km/h (3 Bft) N-NW 337 0 min 2,2 UV-I 262 W/m 9,5 C 11,8 C 19,3 km/h (3 Bft)
25.05.2020 13:31 14,8 C 16,7 C 69 % 1035,3 hPa 0,0 l/m 14,5 km/h (3 Bft) N-NW 337 0 min 2,2 UV-I 255 W/m 9,2 C 11,1 C 20,9 km/h (4 Bft)
25.05.2020 13:32 14,8 C 16,7 C 69 % 1035,3 hPa 0,0 l/m 9,7 km/h (2 Bft) N-NW 337 0 min 2,1 UV-I 240 W/m 9,2 C 13,0 C 14,5 km/h (3 Bft)
25.05.2020 13:33 14,8 C 16,7 C 69 % 1035,3 hPa 0,0 l/m 9,7 km/h (2 Bft) N-NW 337 0 min 1,9 UV-I 211 W/m 9,2 C 13,0 C 14,5 km/h (3 Bft)
25.05.2020 13:34 14,8 C 16,7 C 70 % 1035,3 hPa 0,0 l/m 8,0 km/h (2 Bft) NW 315 0 min 1,5 UV-I 188 W/m 9,4 C 13,9 C 14,5 km/h (3 Bft)
25.05.2020 13:35 14,8 C 16,1 C 70 % 1035,3 hPa 0,0 l/m 9,7 km/h (2 Bft) NW 315 0 min 1,4 UV-I 171 W/m 9,4 C 13,0 C 17,7 km/h (3 Bft)
25.05.2020 13:36 14,8 C 16,1 C 69 % 1035,3 hPa 0,0 l/m 12,9 km/h (3 Bft) W-NW 292 0 min 1,4 UV-I 162 W/m 9,2 C 11,7 C 20,9 km/h (4 Bft)
25.05.2020 13:37 14,8 C 16,1 C 70 % 1035,3 hPa 0,0 l/m 11,3 km/h (2 Bft) N-NW 337 0 min 1,4 UV-I 163 W/m 9,4 C 12,3 C 16,1 km/h (3 Bft)
25.05.2020 13:38 14,7 C 15,6 C 70 % 1035,3 hPa 0,0 l/m 8,0 km/h (2 Bft) NW 315 0 min 1,4 UV-I 172 W/m 9,3 C 13,8 C 14,5 km/h (3 Bft)
25.05.2020 13:39 14,7 C 15,6 C 69 % 1035,3 hPa 0,0 l/m 6,4 km/h (2 Bft) N-NW 337 0 min 1,5 UV-I 172 W/m 9,1 C 14,7 C 12,9 km/h (3 Bft)
25.05.2020 13:40 14,7 C 15,6 C 71 % 1035,3 hPa 0,0 l/m 11,3 km/h (2 Bft) W-NW 292 0 min 1,3 UV-I 163 W/m 9,5 C 12,2 C 19,3 km/h (3 Bft)
25.05.2020 13:41 14,6 C 15,6 C 70 % 1035,2 hPa 0,0 l/m 8,0 km/h (2 Bft) N-NW 337 0 min 1,2 UV-I 153 W/m 9,2 C 13,7 C 16,1 km/h (3 Bft)
25.05.2020 13:42 14,6 C 15,6 C 71 % 1035,3 hPa 0,0 l/m 6,4 km/h (2 Bft) NW 315 0 min 1,2 UV-I 144 W/m 9,4 C 14,6 C 11,3 km/h (2 Bft)
25.05.2020 13:43 14,6 C 15,6 C 72 % 1035,3 hPa 0,0 l/m 3,2 km/h (1 Bft) W 270 0 min 1,2 UV-I 144 W/m 9,6 C 14,6 C 6,4 km/h (2 Bft)
25.05.2020 13:44 14,6 C 15,6 C 72 % 1035,3 hPa 0,0 l/m 4,8 km/h (1 Bft) W 270 0 min 1,3 UV-I 157 W/m 9,6 C 14,6 C 14,5 km/h (3 Bft)
25.05.2020 13:45 14,6 C 15,6 C 71 % 1035,3 hPa 0,0 l/m 9,7 km/h (2 Bft) NW 315 0 min 1,5 UV-I 176 W/m 9,4 C 12,8 C 16,1 km/h (3 Bft)
25.05.2020 13:46 14,6 C 15,6 C 71 % 1035,2 hPa 0,0 l/m 6,4 km/h (2 Bft) W-NW 292 0 min 1,7 UV-I 192 W/m 9,4 C 14,6 C 14,5 km/h (3 Bft)
25.05.2020 13:47 14,6 C 15,6 C 72 % 1035,3 hPa 0,0 l/m 4,8 km/h (1 Bft) NW 315 0 min 1,8 UV-I 209 W/m 9,6 C 14,6 C 11,3 km/h (2 Bft)
25.05.2020 13:48 14,6 C 15,6 C 72 % 1035,3 hPa 0,0 l/m 6,4 km/h (2 Bft) NW 315 0 min 2,0 UV-I 223 W/m 9,6 C 14,6 C 14,5 km/h (3 Bft)
25.05.2020 13:49 14,6 C 15,6 C 72 % 1035,3 hPa 0,0 l/m 4,8 km/h (1 Bft) W-NW 292 0 min 2,0 UV-I 232 W/m 9,6 C 14,6 C 11,3 km/h (2 Bft)
25.05.2020 13:50 14,6 C 16,1 C 71 % 1035,2 hPa 0,0 l/m 6,4 km/h (2 Bft) N-NW 337 0 min 2,1 UV-I 237 W/m 9,4 C 14,6 C 9,7 km/h (2 Bft)
25.05.2020 13:51 14,6 C 16,1 C 71 % 1035,3 hPa 0,0 l/m 6,4 km/h (2 Bft) N 360 0 min 2,1 UV-I 232 W/m 9,4 C 14,6 C 8,0 km/h (2 Bft)
25.05.2020 13:52 14,6 C 16,1 C 72 % 1035,3 hPa 0,0 l/m 12,9 km/h (3 Bft) N-NW 337 0 min 1,9 UV-I 221 W/m 9,6 C 11,5 C 17,7 km/h (3 Bft)
25.05.2020 13:53 14,6 C 16,1 C 70 % 1035,3 hPa 0,0 l/m 11,3 km/h (2 Bft) N-NW 337 0 min 1,7 UV-I 207 W/m 9,2 C 12,1 C 17,7 km/h (3 Bft)
25.05.2020 13:54 14,6 C 16,1 C 70 % 1035,3 hPa 0,0 l/m 11,3 km/h (2 Bft) NW 315 0 min 1,5 UV-I 186 W/m 9,2 C 12,1 C 16,1 km/h (3 Bft)
25.05.2020 13:55 14,5 C 16,1 C 70 % 1035,2 hPa 0,0 l/m 11,3 km/h (2 Bft) N-NW 337 0 min 1,4 UV-I 164 W/m 9,1 C 12,0 C 16,1 km/h (3 Bft)
25.05.2020 13:56 14,4 C 15,6 C 69 % 1035,2 hPa 0,0 l/m 11,3 km/h (2 Bft) N-NW 337 0 min 1,3 UV-I 148 W/m 8,8 C 11,9 C 16,1 km/h (3 Bft)
25.05.2020 13:57 14,4 C 15,6 C 69 % 1035,3 hPa 0,0 l/m 12,9 km/h (3 Bft) N-NW 337 0 min 1,2 UV-I 139 W/m 8,8 C 11,2 C 17,7 km/h (3 Bft)
25.05.2020 13:58 14,4 C 15,6 C 70 % 1035,3 hPa 0,0 l/m 12,9 km/h (3 Bft) N-NW 337 0 min 1,1 UV-I 130 W/m 9,0 C 11,2 C 17,7 km/h (3 Bft)
25.05.2020 13:59 14,3 C 15,6 C 70 % 1035,3 hPa 0,0 l/m 12,9 km/h (3 Bft) NW 315 0 min 1,0 UV-I 123 W/m 8,9 C 11,1 C 19,3 km/h (3 Bft)
25.05.2020 14:00 14,3 C 15,0 C 70 % 1035,2 hPa 0,0 l/m 9,7 km/h (2 Bft) N 360 0 min 1,0 UV-I 120 W/m 8,9 C 12,5 C 14,5 km/h (3 Bft)
25.05.2020 14:01 14,2 C 15,0 C 70 % 1035,3 hPa 0,0 l/m 11,3 km/h (2 Bft) NW 315 0 min 1,0 UV-I 124 W/m 8,8 C 11,6 C 17,7 km/h (3 Bft)
25.05.2020 14:02 14,2 C 15,0 C 70 % 1035,3 hPa 0,0 l/m 9,7 km/h (2 Bft) N-NW 337 0 min 1,1 UV-I 134 W/m 8,8 C 12,4 C 12,9 km/h (3 Bft)
25.05.2020 14:03 14,2 C 15,0 C 71 % 1035,3 hPa 0,0 l/m 11,3 km/h (2 Bft) N-NW 337 0 min 1,2 UV-I 141 W/m 9,0 C 11,6 C 17,7 km/h (3 Bft)
25.05.2020 14:04 14,2 C 15,0 C 71 % 1035,3 hPa 0,0 l/m 12,9 km/h (3 Bft) NW 315 0 min 1,3 UV-I 148 W/m 9,0 C 11,0 C 22,5 km/h (4 Bft)
25.05.2020 14:05 14,2 C 15,0 C 71 % 1035,3 hPa 0,0 l/m 9,7 km/h (2 Bft) NW 315 0 min 1,3 UV-I 155 W/m 9,0 C 12,4 C 16,1 km/h (3 Bft)
25.05.2020 14:06 14,2 C 15,0 C 72 % 1035,3 hPa 0,0 l/m 8,0 km/h (2 Bft) N 360 0 min 1,4 UV-I 162 W/m 9,2 C 13,3 C 12,9 km/h (3 Bft)
25.05.2020 14:07 14,2 C 15,0 C 72 % 1035,4 hPa 0,0 l/m 6,4 km/h (2 Bft) N 360 0 min 1,5 UV-I 177 W/m 9,2 C 14,2 C 12,9 km/h (3 Bft)
25.05.2020 14:08 14,2 C 15,6 C 72 % 1035,3 hPa 0,0 l/m 12,9 km/h (3 Bft) N 360 0 min 1,7 UV-I 195 W/m 9,2 C 11,0 C 16,1 km/h (3 Bft)
25.05.2020 14:09 14,2 C 15,6 C 72 % 1035,2 hPa 0,0 l/m 6,4 km/h (2 Bft) N 360 0 min 1,8 UV-I 211 W/m 9,2 C 14,2 C 8,0 km/h (2 Bft)
25.05.2020 14:10 14,3 C 15,6 C 72 % 1035,2 hPa 0,0 l/m 4,8 km/h (1 Bft) N-NO 22 0 min 1,9 UV-I 221 W/m 9,3 C 14,3 C 8,0 km/h (2 Bft)
25.05.2020 14:11 14,3 C 15,6 C 73 % 1035,3 hPa 0,0 l/m 6,4 km/h (2 Bft) N 360 0 min 2,0 UV-I 229 W/m 9,5 C 14,3 C 8,0 km/h (2 Bft)
25.05.2020 14:12 14,4 C 16,1 C 73 % 1035,3 hPa 0,0 l/m 4,8 km/h (1 Bft) N-NW 337 0 min 2,1 UV-I 239 W/m 9,6 C 14,4 C 6,4 km/h (2 Bft)
25.05.2020 14:13 14,4 C 16,1 C 72 % 1035,3 hPa 0,0 l/m 8,0 km/h (2 Bft) NW 315 0 min 2,2 UV-I 259 W/m 9,4 C 13,5 C 14,5 km/h (3 Bft)
25.05.2020 14:14 14,4 C 16,1 C 72 % 1035,3 hPa 0,0 l/m 4,8 km/h (1 Bft) N 360 0 min 2,4 UV-I 274 W/m 9,4 C 14,4 C 6,4 km/h (2 Bft)
25.05.2020 14:15 14,5 C 16,1 C 72 % 1035,2 hPa 0,0 l/m 3,2 km/h (1 Bft) N-NW 337 0 min 2,4 UV-I 276 W/m 9,5 C 14,5 C 6,4 km/h (2 Bft)
25.05.2020 14:16 14,6 C 16,7 C 74 % 1035,3 hPa 0,0 l/m 4,8 km/h (1 Bft) NW 315 0 min 2,4 UV-I 274 W/m 10,0 C 14,6 C 9,7 km/h (2 Bft)
25.05.2020 14:17 14,7 C 16,7 C 72 % 1035,3 hPa 0,0 l/m 8,0 km/h (2 Bft) N 360 0 min 2,3 UV-I 269 W/m 9,7 C 13,8 C 12,9 km/h (3 Bft)
25.05.2020 14:18 14,7 C 16,7 C 73 % 1035,3 hPa 0,0 l/m 9,7 km/h (2 Bft) N 360 0 min 2,2 UV-I 258 W/m 9,9 C 12,9 C 14,5 km/h (3 Bft)
25.05.2020 14:19 14,8 C 16,7 C 71 % 1035,2 hPa 0,0 l/m 11,3 km/h (2 Bft) N-NW 337 0 min 2,1 UV-I 238 W/m 9,6 C 12,3 C 16,1 km/h (3 Bft)
25.05.2020 14:20 14,7 C 16,1 C 71 % 1035,2 hPa 0,0 l/m 12,9 km/h (3 Bft) N 360 0 min 1,9 UV-I 214 W/m 9,5 C 11,6 C 17,7 km/h (3 Bft)
25.05.2020 14:21 14,8 C 16,1 C 72 % 1035,2 hPa 0,0 l/m 8,0 km/h (2 Bft) N 360 0 min 1,7 UV-I 199 W/m 9,8 C 13,9 C 12,9 km/h (3 Bft)
25.05.2020 14:22 14,7 C 16,1 C 71 % 1035,2 hPa 0,0 l/m 12,9 km/h (3 Bft) N-NW 337 0 min 1,5 UV-I 181 W/m 9,5 C 11,6 C 16,1 km/h (3 Bft)
25.05.2020 14:23 14,7 C 16,1 C 71 % 1035,2 hPa 0,0 l/m 11,3 km/h (2 Bft) N-NW 337 0 min 1,4 UV-I 163 W/m 9,5 C 12,2 C 19,3 km/h (3 Bft)
25.05.2020 14:24 14,7 C 16,1 C 70 % 1035,1 hPa 0,0 l/m 9,7 km/h (2 Bft) N-NW 337 0 min 1,2 UV-I 149 W/m 9,3 C 12,9 C 14,5 km/h (3 Bft)
25.05.2020 14:25 14,6 C 16,1 C 71 % 1035,1 hPa 0,0 l/m 6,4 km/h (2 Bft) N 360 0 min 1,1 UV-I 129 W/m 9,4 C 14,6 C 9,7 km/h (2 Bft)
25.05.2020 14:26 14,6 C 15,6 C 72 % 1035,1 hPa 0,0 l/m 8,0 km/h (2 Bft) N 360 0 min 1,0 UV-I 113 W/m 9,6 C 13,7 C 11,3 km/h (2 Bft)
25.05.2020 14:27 14,6 C 15,6 C 72 % 1035,0 hPa 0,0 l/m 4,8 km/h (1 Bft) N 360 0 min 0,8 UV-I 104 W/m 9,6 C 14,6 C 8,0 km/h (2 Bft)
25.05.2020 14:28 14,6 C 15,6 C 72 % 1035,1 hPa 0,0 l/m 11,3 km/h (2 Bft) N-NW 337 0 min 0,8 UV-I 95 W/m 9,6 C 12,1 C 16,1 km/h (3 Bft)
25.05.2020 14:29 14,5 C 15,0 C 71 % 1035,2 hPa 0,0 l/m 11,3 km/h (2 Bft) N-NW 337 0 min 0,7 UV-I 88 W/m 9,3 C 12,0 C 16,1 km/h (3 Bft)
25.05.2020 14:30 14,5 C 15,0 C 71 % 1035,1 hPa 0,0 l/m 6,4 km/h (2 Bft) N-NW 337 0 min 0,6 UV-I 81 W/m 9,3 C 14,5 C 9,7 km/h (2 Bft)
25.05.2020 14:31 14,4 C 15,0 C 71 % 1035,2 hPa 0,0 l/m 9,7 km/h (2 Bft) N-NW 337 0 min 0,6 UV-I 77 W/m 9,2 C 12,6 C 12,9 km/h (3 Bft)
25.05.2020 14:32 14,4 C 15,0 C 71 % 1035,3 hPa 0,0 l/m 8,0 km/h (2 Bft) NW 315 0 min 0,6 UV-I 77 W/m 9,2 C 13,5 C 14,5 km/h (3 Bft)
25.05.2020 14:33 14,4 C 15,0 C 71 % 1035,2 hPa 0,0 l/m 9,7 km/h (2 Bft) N 360 0 min 0,6 UV-I 81 W/m 9,2 C 12,6 C 17,7 km/h (3 Bft)
25.05.2020 14:34 14,3 C 15,0 C 71 % 1035,1 hPa 0,0 l/m 8,0 km/h (2 Bft) N-NW 337 0 min 0,7 UV-I 86 W/m 9,1 C 13,4 C 9,7 km/h (2 Bft)
25.05.2020 14:35 14,3 C 15,0 C 71 % 1035,2 hPa 0,0 l/m 6,4 km/h (2 Bft) NW 315 0 min 0,8 UV-I 97 W/m 9,1 C 14,3 C 9,7 km/h (2 Bft)
25.05.2020 14:36 14,3 C 15,0 C 71 % 1035,2 hPa 0,0 l/m 6,4 km/h (2 Bft) N-NW 337 0 min 0,9 UV-I 122 W/m 9,1 C 14,3 C 8,0 km/h (2 Bft)
25.05.2020 14:37 14,3 C 15,0 C 72 % 1035,1 hPa 0,0 l/m 8,0 km/h (2 Bft) N 360 0 min 1,1 UV-I 156 W/m 9,3 C 13,4 C 14,5 km/h (3 Bft)
25.05.2020 14:38 14,4 C 15,0 C 72 % 1035,1 hPa 0,0 l/m 8,0 km/h (2 Bft) NW 315 0 min 1,5 UV-I 183 W/m 9,4 C 13,5 C 12,9 km/h (3 Bft)
25.05.2020 14:39 14,4 C 15,0 C 71 % 1035,2 hPa 0,0 l/m 6,4 km/h (2 Bft) N-NW 337 0 min 1,8 UV-I 213 W/m 9,2 C 14,4 C 9,7 km/h (2 Bft)
25.05.2020 14:40 14,4 C 15,0 C 72 % 1035,1 hPa 0,0 l/m 8,0 km/h (2 Bft) N-NW 337 0 min 2,1 UV-I 243 W/m 9,4 C 13,5 C 12,9 km/h (3 Bft)
25.05.2020 14:41 14,5 C 15,6 C 72 % 1035,1 hPa 0,0 l/m 6,4 km/h (2 Bft) N-NW 337 0 min 2,4 UV-I 274 W/m 9,5 C 14,5 C 8,0 km/h (2 Bft)
25.05.2020 14:42 14,6 C 16,1 C 73 % 1035,2 hPa 0,0 l/m 4,8 km/h (1 Bft) N-NW 337 0 min 2,6 UV-I 312 W/m 9,8 C 14,6 C 9,7 km/h (2 Bft)
25.05.2020 14:43 14,7 C 16,7 C 72 % 1035,2 hPa 0,0 l/m 8,0 km/h (2 Bft) NW 315 0 min 2,9 UV-I 339 W/m 9,7 C 13,8 C 16,1 km/h (3 Bft)
25.05.2020 14:44 14,7 C 16,7 C 71 % 1035,2 hPa 0,0 l/m 8,0 km/h (2 Bft) NW 315 0 min 2,9 UV-I 350 W/m 9,5 C 13,8 C 14,5 km/h (3 Bft)
25.05.2020 14:45 14,8 C 16,7 C 70 % 1035,1 hPa 0,0 l/m 8,0 km/h (2 Bft) N-NW 337 0 min 2,9 UV-I 353 W/m 9,4 C 13,9 C 12,9 km/h (3 Bft)
25.05.2020 14:46 14,9 C 16,7 C 71 % 1035,1 hPa 0,0 l/m 9,7 km/h (2 Bft) N-NW 337 0 min 2,9 UV-I 346 W/m 9,7 C 13,1 C 16,1 km/h (3 Bft)
25.05.2020 14:47 15,0 C 17,2 C 72 % 1035,2 hPa 0,0 l/m 3,2 km/h (1 Bft) N-NW 337 0 min 2,8 UV-I 338 W/m 10,0 C 15,0 C 4,8 km/h (1 Bft)
25.05.2020 14:48 15,1 C 17,8 C 71 % 1035,1 hPa 0,0 l/m 6,4 km/h (2 Bft) NW 315 0 min 2,7 UV-I 327 W/m 9,9 C 15,1 C 8,0 km/h (2 Bft)
25.05.2020 14:49 15,1 C 17,8 C 70 % 1035,0 hPa 0,0 l/m 4,8 km/h (1 Bft) NW 315 0 min 2,7 UV-I 325 W/m 9,7 C 15,1 C 8,0 km/h (2 Bft)
25.05.2020 14:50 15,2 C 17,8 C 72 % 1035,1 hPa 0,0 l/m 4,8 km/h (1 Bft) N-NW 337 0 min 2,7 UV-I 327 W/m 10,2 C 15,2 C 8,0 km/h (2 Bft)
25.05.2020 14:51 15,3 C 18,3 C 70 % 1035,1 hPa 0,0 l/m 8,0 km/h (2 Bft) N-NW 337 0 min 2,7 UV-I 325 W/m 9,9 C 14,4 C 12,9 km/h (3 Bft)
25.05.2020 14:52 15,3 C 18,3 C 70 % 1035,1 hPa 0,0 l/m 3,2 km/h (1 Bft) N 360 0 min 2,6 UV-I 316 W/m 9,9 C 15,3 C 6,4 km/h (2 Bft)
25.05.2020 14:53 15,3 C 18,3 C 70 % 1035,1 hPa 0,0 l/m 3,2 km/h (1 Bft) N 360 0 min 2,4 UV-I 301 W/m 9,9 C 15,3 C 8,0 km/h (2 Bft)
25.05.2020 14:54 15,4 C 17,8 C 71 % 1035,1 hPa 0,0 l/m 9,7 km/h (2 Bft) N 360 0 min 2,3 UV-I 273 W/m 10,2 C 13,7 C 17,7 km/h (3 Bft)
25.05.2020 14:55 15,3 C 17,8 C 69 % 1035,1 hPa 0,0 l/m 9,7 km/h (2 Bft) N-NW 337 0 min 2,1 UV-I 250 W/m 9,6 C 13,6 C 14,5 km/h (3 Bft)
25.05.2020 14:56 15,3 C 17,8 C 69 % 1035,1 hPa 0,0 l/m 11,3 km/h (2 Bft) N-NW 337 0 min 1,9 UV-I 237 W/m 9,6 C 12,9 C 17,7 km/h (3 Bft)
25.05.2020 14:57 15,3 C 17,8 C 69 % 1035,1 hPa 0,0 l/m 9,7 km/h (2 Bft) NW 315 0 min 1,8 UV-I 230 W/m 9,6 C 13,6 C 16,1 km/h (3 Bft)
25.05.2020 14:58 15,2 C 17,2 C 69 % 1035,2 hPa 0,0 l/m 11,3 km/h (2 Bft) N-NW 337 0 min 1,8 UV-I 229 W/m 9,6 C 12,8 C 17,7 km/h (3 Bft)
25.05.2020 14:59 15,1 C 17,2 C 68 % 1035,1 hPa 0,0 l/m 11,3 km/h (2 Bft) N-NW 337 0 min 1,8 UV-I 229 W/m 9,2 C 12,7 C 16,1 km/h (3 Bft)
25.05.2020 15:00 15,1 C 17,2 C 68 % 1035,0 hPa 0,0 l/m 9,7 km/h (2 Bft) NW 315 0 min 1,9 UV-I 234 W/m 9,2 C 13,4 C 12,9 km/h (3 Bft)
25.05.2020 15:01 15,0 C 16,7 C 69 % 1035,2 hPa 0,0 l/m 9,7 km/h (2 Bft) N 360 0 min 2,0 UV-I 250 W/m 9,4 C 13,3 C 17,7 km/h (3 Bft)
25.05.2020 15:02 15,1 C 17,2 C 70 % 1035,0 hPa 0,0 l/m 4,8 km/h (1 Bft) N 360 0 min 2,1 UV-I 260 W/m 9,7 C 15,1 C 12,9 km/h (3 Bft)
25.05.2020 15:03 15,1 C 17,2 C 69 % 1035,1 hPa 0,0 l/m 9,7 km/h (2 Bft) N-NW 337 0 min 2,2 UV-I 274 W/m 9,5 C 13,4 C 16,1 km/h (3 Bft)
25.05.2020 15:04 15,1 C 17,2 C 69 % 1035,1 hPa 0,0 l/m 12,9 km/h (3 Bft) N 360 0 min 2,4 UV-I 288 W/m 9,5 C 12,0 C 22,5 km/h (4 Bft)
25.05.2020 15:05 15,1 C 17,2 C 70 % 1035,2 hPa 0,0 l/m 17,7 km/h (3 Bft) N 360 0 min 2,5 UV-I 306 W/m 9,7 C 10,5 C 22,5 km/h (4 Bft)
25.05.2020 15:06 15,1 C 17,2 C 68 % 1035,2 hPa 0,0 l/m 14,5 km/h (3 Bft) N 360 0 min 2,7 UV-I 335 W/m 9,2 C 11,5 C 19,3 km/h (3 Bft)
25.05.2020 15:07 15,2 C 17,8 C 70 % 1035,0 hPa 0,0 l/m 8,0 km/h (2 Bft) N-NW 337 0 min 2,9 UV-I 367 W/m 9,8 C 14,3 C 14,5 km/h (3 Bft)
25.05.2020 15:08 15,2 C 17,8 C 68 % 1035,2 hPa 0,0 l/m 9,7 km/h (2 Bft) N-NW 337 0 min 3,4 UV-I 445 W/m 9,3 C 13,5 C 14,5 km/h (3 Bft)
25.05.2020 15:09 15,2 C 17,8 C 68 % 1035,1 hPa 0,0 l/m 14,5 km/h (3 Bft) N 360 0 min 3,3 UV-I 471 W/m 9,3 C 11,6 C 19,3 km/h (3 Bft)
25.05.2020 15:10 15,3 C 17,8 C 68 % 1035,1 hPa 0,0 l/m 11,3 km/h (2 Bft) N-NW 337 0 min 3,2 UV-I 397 W/m 9,4 C 12,9 C 19,3 km/h (3 Bft)
25.05.2020 15:11 15,3 C 18,3 C 67 % 1035,1 hPa 0,0 l/m 12,9 km/h (3 Bft) N-NW 337 0 min 3,3 UV-I 397 W/m 9,2 C 12,3 C 16,1 km/h (3 Bft)
25.05.2020 15:12 15,4 C 18,3 C 68 % 1035,0 hPa 0,0 l/m 11,3 km/h (2 Bft) N 360 0 min 3,3 UV-I 395 W/m 9,5 C 13,0 C 19,3 km/h (3 Bft)
25.05.2020 15:13 15,4 C 18,3 C 68 % 1035,0 hPa 0,0 l/m 11,3 km/h (2 Bft) N 360 0 min 3,3 UV-I 381 W/m 9,5 C 13,0 C 16,1 km/h (3 Bft)
25.05.2020 15:14 15,4 C 18,9 C 68 % 1034,9 hPa 0,0 l/m 8,0 km/h (2 Bft) N-NW 337 0 min 3,3 UV-I 380 W/m 9,5 C 14,5 C 14,5 km/h (3 Bft)
25.05.2020 15:15 15,6 C 18,9 C 69 % 1035,0 hPa 0,0 l/m 9,7 km/h (2 Bft) N-NW 337 0 min 3,5 UV-I 410 W/m 9,9 C 13,9 C 14,5 km/h (3 Bft)
25.05.2020 15:16 15,6 C 18,9 C 68 % 1035,0 hPa 0,0 l/m 9,7 km/h (2 Bft) N-NW 337 0 min 3,5 UV-I 406 W/m 9,7 C 13,9 C 14,5 km/h (3 Bft)
25.05.2020 15:17 15,7 C 18,9 C 69 % 1034,9 hPa 0,0 l/m 9,7 km/h (2 Bft) N-NW 337 0 min 3,7 UV-I 467 W/m 10,0 C 14,0 C 14,5 km/h (3 Bft)
25.05.2020 15:18 15,8 C 18,9 C 68 % 1035,0 hPa 0,0 l/m 8,0 km/h (2 Bft) N-NW 337 0 min 4,1 UV-I 480 W/m 9,9 C 14,9 C 14,5 km/h (3 Bft)
25.05.2020 15:19 15,8 C 19,4 C 68 % 1034,9 hPa 0,0 l/m 6,4 km/h (2 Bft) N-NW 337 0 min 4,0 UV-I 494 W/m 9,9 C 15,8 C 9,7 km/h (2 Bft)
25.05.2020 15:20 15,9 C 19,4 C 69 % 1035,0 hPa 0,0 l/m 12,9 km/h (3 Bft) N 360 0 min 5,2 UV-I 538 W/m 10,2 C 13,0 C 17,7 km/h (3 Bft)
25.05.2020 15:21 16,0 C 20,0 C 67 % 1034,8 hPa 0,0 l/m 12,9 km/h (3 Bft) N 360 0 min 4,3 UV-I 555 W/m 9,9 C 13,1 C 16,1 km/h (3 Bft)
25.05.2020 15:22 16,1 C 20,6 C 70 % 1034,9 hPa 0,0 l/m 11,3 km/h (2 Bft) N-NO 22 0 min 5,8 UV-I 555 W/m 10,6 C 13,8 C 16,1 km/h (3 Bft)
25.05.2020 15:23 16,2 C 21,1 C 70 % 1034,9 hPa 0,0 l/m 9,7 km/h (2 Bft) N-NO 22 0 min 4,0 UV-I 503 W/m 10,7 C 14,6 C 14,5 km/h (3 Bft)
25.05.2020 15:24 16,3 C 21,1 C 70 % 1034,9 hPa 0,0 l/m 9,7 km/h (2 Bft) N-NO 22 0 min 4,0 UV-I 476 W/m 10,8 C 14,7 C 16,1 km/h (3 Bft)
25.05.2020 15:25 16,4 C 21,1 C 69 % 1034,9 hPa 0,0 l/m 11,3 km/h (2 Bft) N-NO 22 0 min 3,5 UV-I 434 W/m 10,7 C 14,1 C 16,1 km/h (3 Bft)
25.05.2020 15:26 16,4 C 20,6 C 69 % 1034,8 hPa 0,0 l/m 11,3 km/h (2 Bft) N 360 0 min 3,4 UV-I 448 W/m 10,7 C 14,1 C 17,7 km/h (3 Bft)
25.05.2020 15:27 16,4 C 20,6 C 68 % 1034,9 hPa 0,0 l/m 11,3 km/h (2 Bft) N 360 0 min 3,1 UV-I 374 W/m 10,5 C 14,1 C 14,5 km/h (3 Bft)
25.05.2020 15:28 16,4 C 20,0 C 67 % 1034,9 hPa 0,0 l/m 8,0 km/h (2 Bft) N-NO 22 0 min 2,8 UV-I 336 W/m 10,3 C 15,6 C 12,9 km/h (3 Bft)
25.05.2020 15:29 16,3 C 19,4 C 68 % 1034,8 hPa 0,0 l/m 12,9 km/h (3 Bft) N-NO 22 0 min 2,6 UV-I 303 W/m 10,4 C 13,4 C 17,7 km/h (3 Bft)
25.05.2020 15:30 16,2 C 19,4 C 68 % 1034,8 hPa 0,0 l/m 12,9 km/h (3 Bft) N-NO 22 0 min 2,5 UV-I 290 W/m 10,3 C 13,3 C 16,1 km/h (3 Bft)
25.05.2020 15:31 16,1 C 18,9 C 67 % 1034,8 hPa 0,0 l/m 8,0 km/h (2 Bft) N 360 0 min 2,5 UV-I 295 W/m 10,0 C 15,3 C 14,5 km/h (3 Bft)
25.05.2020 15:32 16,1 C 18,9 C 68 % 1034,8 hPa 0,0 l/m 9,7 km/h (2 Bft) N 360 0 min 2,6 UV-I 304 W/m 10,2 C 14,5 C 14,5 km/h (3 Bft)
25.05.2020 15:33 15,9 C 18,3 C 67 % 1034,9 hPa 0,0 l/m 9,7 km/h (2 Bft) N 360 0 min 2,5 UV-I 301 W/m 9,8 C 14,2 C 14,5 km/h (3 Bft)
25.05.2020 15:34 15,9 C 18,3 C 68 % 1034,9 hPa 0,0 l/m 9,7 km/h (2 Bft) N 360 0 min 2,4 UV-I 281 W/m 10,0 C 14,2 C 14,5 km/h (3 Bft)
25.05.2020 15:35 15,8 C 18,3 C 69 % 1034,8 hPa 0,0 l/m 8,0 km/h (2 Bft) N 360 0 min 2,2 UV-I 251 W/m 10,1 C 14,9 C 12,9 km/h (3 Bft)
25.05.2020 15:36 15,8 C 18,3 C 70 % 1034,8 hPa 0,0 l/m 11,3 km/h (2 Bft) N 360 0 min 2,2 UV-I 237 W/m 10,3 C 13,5 C 16,1 km/h (3 Bft)
25.05.2020 15:37 15,8 C 18,3 C 69 % 1034,9 hPa 0,0 l/m 9,7 km/h (2 Bft) N 360 0 min 2,1 UV-I 239 W/m 10,1 C 14,1 C 14,5 km/h (3 Bft)
25.05.2020 15:38 15,8 C 17,8 C 69 % 1034,8 hPa 0,0 l/m 8,0 km/h (2 Bft) N-NW 337 0 min 2,1 UV-I 239 W/m 10,1 C 14,9 C 17,7 km/h (3 Bft)
25.05.2020 15:39 15,8 C 17,8 C 67 % 1034,9 hPa 0,0 l/m 16,1 km/h (3 Bft) N-NW 337 0 min 2,1 UV-I 234 W/m 9,7 C 11,8 C 20,9 km/h (4 Bft)
25.05.2020 15:40 15,7 C 17,2 C 67 % 1034,9 hPa 0,0 l/m 17,7 km/h (3 Bft) N-NW 337 0 min 2,0 UV-I 218 W/m 9,6 C 11,2 C 25,7 km/h (4 Bft)
25.05.2020 15:41 15,7 C 17,2 C 68 % 1034,8 hPa 0,0 l/m 12,9 km/h (3 Bft) N-NO 22 0 min 1,9 UV-I 203 W/m 9,8 C 12,7 C 19,3 km/h (3 Bft)
25.05.2020 15:42 15,7 C 17,2 C 68 % 1034,9 hPa 0,0 l/m 6,4 km/h (2 Bft) N 360 0 min 1,8 UV-I 197 W/m 9,8 C 15,7 C 11,3 km/h (2 Bft)
25.05.2020 15:43 15,6 C 17,2 C 70 % 1034,9 hPa 0,0 l/m 9,7 km/h (2 Bft) N 360 0 min 1,8 UV-I 200 W/m 10,1 C 13,9 C 14,5 km/h (3 Bft)
25.05.2020 15:44 15,6 C 16,7 C 69 % 1034,9 hPa 0,0 l/m 4,8 km/h (1 Bft) N-NW 337 0 min 1,9 UV-I 213 W/m 9,9 C 15,6 C 8,0 km/h (2 Bft)
25.05.2020 15:45 15,7 C 17,2 C 69 % 1034,9 hPa 0,0 l/m 3,2 km/h (1 Bft) N-NW 337 0 min 2,1 UV-I 232 W/m 10,0 C 15,7 C 4,8 km/h (1 Bft)
25.05.2020 15:46 15,7 C 17,2 C 69 % 1034,8 hPa 0,0 l/m 8,0 km/h (2 Bft) N-NW 337 0 min 2,3 UV-I 257 W/m 10,0 C 14,8 C 19,3 km/h (3 Bft)
25.05.2020 15:47 15,7 C 17,2 C 68 % 1034,8 hPa 0,0 l/m 12,9 km/h (3 Bft) N 360 0 min 2,5 UV-I 290 W/m 9,8 C 12,7 C 16,1 km/h (3 Bft)
25.05.2020 15:48 15,7 C 17,2 C 68 % 1034,9 hPa 0,0 l/m 9,7 km/h (2 Bft) N 360 0 min 3,8 UV-I 302 W/m 9,8 C 14,0 C 12,9 km/h (3 Bft)
25.05.2020 15:49 15,8 C 18,3 C 69 % 1034,8 hPa 0,0 l/m 3,2 km/h (1 Bft) N 360 0 min 3,7 UV-I 302 W/m 10,1 C 15,8 C 8,0 km/h (2 Bft)
25.05.2020 15:50 15,9 C 18,9 C 67 % 1034,8 hPa 0,0 l/m 9,7 km/h (2 Bft) N 360 0 min 2,1 UV-I 302 W/m 9,8 C 14,2 C 16,1 km/h (3 Bft)
25.05.2020 15:51 15,9 C 18,3 C 68 % 1034,8 hPa 0,0 l/m 8,0 km/h (2 Bft) N 360 0 min 1,9 UV-I 227 W/m 10,0 C 15,0 C 12,9 km/h (3 Bft)
25.05.2020 15:52 15,9 C 18,3 C 67 % 1034,8 hPa 0,0 l/m 8,0 km/h (2 Bft) N 360 0 min 1,8 UV-I 218 W/m 9,8 C 15,0 C 12,9 km/h (3 Bft)
25.05.2020 15:53 15,9 C 18,3 C 69 % 1034,8 hPa 0,0 l/m 8,0 km/h (2 Bft) N-NW 337 0 min 1,7 UV-I 207 W/m 10,2 C 15,0 C 14,5 km/h (3 Bft)
25.05.2020 15:54 15,9 C 17,8 C 68 % 1034,8 hPa 0,0 l/m 11,3 km/h (2 Bft) N-NW 337 0 min 1,6 UV-I 202 W/m 10,0 C 13,6 C 16,1 km/h (3 Bft)
25.05.2020 15:55 15,8 C 17,8 C 69 % 1034,9 hPa 0,0 l/m 6,4 km/h (2 Bft) N-NW 337 0 min 1,6 UV-I 206 W/m 10,1 C 15,8 C 12,9 km/h (3 Bft)
25.05.2020 15:56 15,8 C 17,8 C 69 % 1034,9 hPa 0,0 l/m 3,2 km/h (1 Bft) W-NW 292 0 min 1,7 UV-I 220 W/m 10,1 C 15,8 C 6,4 km/h (2 Bft)
25.05.2020 15:57 15,8 C 17,8 C 69 % 1034,8 hPa 0,0 l/m 9,7 km/h (2 Bft) W 270 0 min 1,9 UV-I 257 W/m 10,1 C 14,1 C 16,1 km/h (3 Bft)
25.05.2020 15:58 15,7 C 17,8 C 70 % 1034,8 hPa 0,0 l/m 9,7 km/h (2 Bft) W-SW 247 0 min 1,9 UV-I 239 W/m 10,2 C 14,0 C 17,7 km/h (3 Bft)
25.05.2020 15:59 15,6 C 17,8 C 69 % 1034,9 hPa 0,0 l/m 6,4 km/h (2 Bft) W-SW 247 0 min 1,6 UV-I 202 W/m 9,9 C 15,6 C 9,7 km/h (2 Bft)
25.05.2020 16:00 15,6 C 17,8 C 71 % 1034,9 hPa 0,0 l/m 4,8 km/h (1 Bft) W 270 0 min 1,4 UV-I 185 W/m 10,4 C 15,6 C 9,7 km/h (2 Bft)
25.05.2020 16:01 15,6 C 17,2 C 69 % 1034,8 hPa 0,0 l/m 9,7 km/h (2 Bft) W 270 0 min 1,2 UV-I 165 W/m 9,9 C 13,9 C 12,9 km/h (3 Bft)
25.05.2020 16:02 15,5 C 17,2 C 71 % 1034,8 hPa 0,0 l/m 6,4 km/h (2 Bft) W-SW 247 0 min 1,0 UV-I 144 W/m 10,3 C 15,5 C 11,3 km/h (2 Bft)
25.05.2020 16:03 15,5 C 16,7 C 70 % 1034,8 hPa 0,0 l/m 6,4 km/h (2 Bft) W-SW 247 0 min 0,9 UV-I 128 W/m 10,1 C 15,5 C 12,9 km/h (3 Bft)
25.05.2020 16:04 15,4 C 16,7 C 71 % 1034,9 hPa 0,0 l/m 4,8 km/h (1 Bft) W 270 0 min 0,8 UV-I 116 W/m 10,2 C 15,4 C 9,7 km/h (2 Bft)
25.05.2020 16:05 15,4 C 16,7 C 70 % 1034,8 hPa 0,0 l/m 4,8 km/h (1 Bft) W 270 0 min 0,8 UV-I 114 W/m 10,0 C 15,4 C 9,7 km/h (2 Bft)
25.05.2020 16:06 15,3 C 16,1 C 71 % 1034,7 hPa 0,0 l/m 9,7 km/h (2 Bft) W 270 0 min 0,9 UV-I 118 W/m 10,1 C 13,6 C 14,5 km/h (3 Bft)
25.05.2020 16:07 15,3 C 16,1 C 70 % 1034,8 hPa 0,0 l/m 8,0 km/h (2 Bft) W-SW 247 0 min 0,9 UV-I 118 W/m 9,9 C 14,4 C 11,3 km/h (2 Bft)
25.05.2020 16:08 15,2 C 16,1 C 71 % 1034,8 hPa 0,0 l/m 6,4 km/h (2 Bft) W 270 0 min 0,9 UV-I 118 W/m 10,0 C 15,2 C 11,3 km/h (2 Bft)
25.05.2020 16:09 15,2 C 16,1 C 70 % 1034,8 hPa 0,0 l/m 6,4 km/h (2 Bft) W 270 0 min 0,8 UV-I 114 W/m 9,8 C 15,2 C 9,7 km/h (2 Bft)
25.05.2020 16:10 15,1 C 15,6 C 70 % 1034,8 hPa 0,0 l/m 6,4 km/h (2 Bft) W-SW 247 0 min 0,8 UV-I 102 W/m 9,7 C 15,1 C 9,7 km/h (2 Bft)
25.05.2020 16:11 15,1 C 15,6 C 71 % 1034,8 hPa 0,0 l/m 6,4 km/h (2 Bft) W-NW 292 0 min 0,7 UV-I 86 W/m 9,9 C 15,1 C 11,3 km/h (2 Bft)
25.05.2020 16:12 15,1 C 15,6 C 70 % 1034,8 hPa 0,0 l/m 4,8 km/h (1 Bft) NW 315 0 min 0,5 UV-I 79 W/m 9,7 C 15,1 C 6,4 km/h (2 Bft)
25.05.2020 16:13 15,1 C 15,6 C 71 % 1034,8 hPa 0,0 l/m 4,8 km/h (1 Bft) NW 315 0 min 0,5 UV-I 72 W/m 9,9 C 15,1 C 8,0 km/h (2 Bft)
25.05.2020 16:14 15,1 C 15,6 C 71 % 1034,7 hPa 0,0 l/m 9,7 km/h (2 Bft) W-NW 292 0 min 0,5 UV-I 69 W/m 9,9 C 13,4 C 20,9 km/h (4 Bft)
25.05.2020 16:15 15,0 C 15,6 C 70 % 1034,8 hPa 0,0 l/m 4,8 km/h (1 Bft) N-NW 337 0 min 0,5 UV-I 72 W/m 9,6 C 15,0 C 8,0 km/h (2 Bft)
25.05.2020 16:16 14,9 C 15,6 C 71 % 1034,7 hPa 0,0 l/m 3,2 km/h (1 Bft) N-NW 337 0 min 0,5 UV-I 83 W/m 9,7 C 14,9 C 6,4 km/h (2 Bft)
25.05.2020 16:17 14,9 C 15,6 C 71 % 1034,7 hPa 0,0 l/m 11,3 km/h (2 Bft) NW 315 0 min 0,7 UV-I 100 W/m 9,7 C 12,4 C 17,7 km/h (3 Bft)
25.05.2020 16:18 14,9 C 15,6 C 70 % 1034,8 hPa 0,0 l/m 8,0 km/h (2 Bft) W-NW 292 0 min 0,9 UV-I 116 W/m 9,5 C 14,0 C 12,9 km/h (3 Bft)
25.05.2020 16:19 14,9 C 15,0 C 70 % 1034,8 hPa 0,0 l/m 8,0 km/h (2 Bft) N 360 0 min 1,0 UV-I 135 W/m 9,5 C 14,0 C 14,5 km/h (3 Bft)
25.05.2020 16:20 14,9 C 15,6 C 71 % 1034,7 hPa 0,0 l/m 9,7 km/h (2 Bft) N-NW 337 0 min 1,2 UV-I 155 W/m 9,7 C 13,1 C 12,9 km/h (3 Bft)
25.05.2020 16:21 14,9 C 15,6 C 70 % 1034,7 hPa 0,0 l/m 11,3 km/h (2 Bft) W-NW 292 0 min 1,3 UV-I 179 W/m 9,5 C 12,4 C 17,7 km/h (3 Bft)
25.05.2020 16:22 14,9 C 15,6 C 70 % 1034,7 hPa 0,0 l/m 11,3 km/h (2 Bft) NW 315 0 min 1,5 UV-I 215 W/m 9,5 C 12,4 C 17,7 km/h (3 Bft)
25.05.2020 16:23 15,0 C 15,6 C 71 % 1034,6 hPa 0,0 l/m 8,0 km/h (2 Bft) NW 315 0 min 1,7 UV-I 237 W/m 9,8 C 14,1 C 16,1 km/h (3 Bft)
25.05.2020 16:24 15,1 C 16,1 C 71 % 1034,7 hPa 0,0 l/m 4,8 km/h (1 Bft) NW 315 0 min 1,8 UV-I 250 W/m 9,9 C 15,1 C 9,7 km/h (2 Bft)
25.05.2020 16:25 15,2 C 16,7 C 71 % 1034,7 hPa 0,0 l/m 6,4 km/h (2 Bft) NW 315 0 min 2,0 UV-I 264 W/m 10,0 C 15,2 C 12,9 km/h (3 Bft)
25.05.2020 16:26 15,2 C 16,7 C 71 % 1034,6 hPa 0,0 l/m 4,8 km/h (1 Bft) W 270 0 min 2,1 UV-I 283 W/m 10,0 C 15,2 C 12,9 km/h (3 Bft)
25.05.2020 16:27 15,3 C 17,2 C 71 % 1034,6 hPa 0,0 l/m 8,0 km/h (2 Bft) W 270 0 min 2,3 UV-I 308 W/m 10,1 C 14,4 C 14,5 km/h (3 Bft)
25.05.2020 16:28 15,4 C 17,2 C 70 % 1034,6 hPa 0,0 l/m 6,4 km/h (2 Bft) W-NW 292 0 min 2,5 UV-I 345 W/m 10,0 C 15,4 C 9,7 km/h (2 Bft)
25.05.2020 16:29 15,5 C 17,8 C 71 % 1034,6 hPa 0,0 l/m 3,2 km/h (1 Bft) W-NW 292 0 min 3,5 UV-I 355 W/m 10,3 C 15,5 C 6,4 km/h (2 Bft)
25.05.2020 16:30 15,7 C 19,4 C 71 % 1034,6 hPa 0,0 l/m 1,6 km/h (1 Bft) NW 315 0 min 3,6 UV-I 355 W/m 10,5 C 15,7 C 4,8 km/h (1 Bft)
25.05.2020 16:31 15,8 C 20,0 C 71 % 1034,5 hPa 0,0 l/m 4,8 km/h (1 Bft) N 360 0 min 2,8 UV-I 355 W/m 10,6 C 15,8 C 8,0 km/h (2 Bft)
25.05.2020 16:32 16,0 C 20,0 C 70 % 1034,6 hPa 0,0 l/m 8,0 km/h (2 Bft) NW 315 0 min 2,7 UV-I 403 W/m 10,5 C 15,2 C 14,5 km/h (3 Bft)
25.05.2020 16:33 16,1 C 20,0 C 69 % 1034,6 hPa 0,0 l/m 6,4 km/h (2 Bft) NW 315 0 min 2,7 UV-I 369 W/m 10,4 C 16,1 C 11,3 km/h (2 Bft)
25.05.2020 16:34 16,2 C 20,0 C 69 % 1034,6 hPa 0,0 l/m 11,3 km/h (2 Bft) NW 315 0 min 2,6 UV-I 357 W/m 10,5 C 13,9 C 17,7 km/h (3 Bft)
25.05.2020 16:35 16,1 C 19,4 C 68 % 1034,6 hPa 0,0 l/m 8,0 km/h (2 Bft) NW 315 0 min 2,6 UV-I 362 W/m 10,2 C 15,3 C 12,9 km/h (3 Bft)
25.05.2020 16:36 16,1 C 20,0 C 69 % 1034,6 hPa 0,0 l/m 4,8 km/h (1 Bft) N-NW 337 0 min 2,6 UV-I 360 W/m 10,4 C 16,1 C 6,4 km/h (2 Bft)
25.05.2020 16:37 16,2 C 20,0 C 68 % 1034,6 hPa 0,0 l/m 9,7 km/h (2 Bft) NW 315 0 min 2,7 UV-I 390 W/m 10,3 C 14,6 C 17,7 km/h (3 Bft)
25.05.2020 16:38 16,2 C 20,0 C 69 % 1034,5 hPa 0,0 l/m 6,4 km/h (2 Bft) NW 315 0 min 2,8 UV-I 404 W/m 10,5 C 16,2 C 14,5 km/h (3 Bft)
25.05.2020 16:39 16,2 C 20,0 C 68 % 1034,6 hPa 0,0 l/m 11,3 km/h (2 Bft) N-NW 337 0 min 3,0 UV-I 404 W/m 10,3 C 13,9 C 16,1 km/h (3 Bft)
25.05.2020 16:40 16,2 C 20,0 C 67 % 1034,5 hPa 0,0 l/m 8,0 km/h (2 Bft) NW 315 0 min 3,1 UV-I 506 W/m 10,1 C 15,4 C 12,9 km/h (3 Bft)
25.05.2020 16:41 16,3 C 20,0 C 68 % 1034,5 hPa 0,0 l/m 4,8 km/h (1 Bft) N 360 0 min 4,3 UV-I 506 W/m 10,4 C 16,3 C 11,3 km/h (2 Bft)
25.05.2020 16:42 16,4 C 21,1 C 69 % 1034,5 hPa 0,0 l/m 4,8 km/h (1 Bft) N-NW 337 1 min 4,1 UV-I 882 W/m 10,7 C 16,4 C 9,7 km/h (2 Bft)
25.05.2020 16:43 16,7 C 22,2 C 69 % 1034,5 hPa 0,0 l/m 8,0 km/h (2 Bft) W-NW 292 1 min 4,9 UV-I 674 W/m 11,0 C 15,9 C 17,7 km/h (3 Bft)
25.05.2020 16:44 16,9 C 23,3 C 66 % 1034,5 hPa 0,0 l/m 6,4 km/h (2 Bft) NW 315 1 min 3,1 UV-I 914 W/m 10,5 C 16,9 C 14,5 km/h (3 Bft)
25.05.2020 16:45 16,9 C 23,3 C 65 % 1034,5 hPa 0,0 l/m 9,7 km/h (2 Bft) NW 315 0 min 4,7 UV-I 563 W/m 10,3 C 15,3 C 16,1 km/h (3 Bft)
25.05.2020 16:46 16,9 C 23,9 C 66 % 1034,4 hPa 0,0 l/m 4,8 km/h (1 Bft) W-NW 292 0 min 3,4 UV-I 563 W/m 10,5 C 16,9 C 11,3 km/h (2 Bft)
25.05.2020 16:47 16,9 C 23,9 C 65 % 1034,5 hPa 0,0 l/m 8,0 km/h (2 Bft) N-NW 337 0 min 3,3 UV-I 563 W/m 10,3 C 16,1 C 12,9 km/h (3 Bft)
25.05.2020 16:48 16,8 C 23,9 C 65 % 1034,4 hPa 0,0 l/m 6,4 km/h (2 Bft) W-NW 292 0 min 2,9 UV-I 563 W/m 10,2 C 16,8 C 12,9 km/h (3 Bft)
25.05.2020 16:49 16,8 C 23,3 C 65 % 1034,4 hPa 0,0 l/m 9,7 km/h (2 Bft) W-NW 292 0 min 4,1 UV-I 417 W/m 10,2 C 15,2 C 14,5 km/h (3 Bft)
25.05.2020 16:50 16,8 C 23,3 C 65 % 1034,4 hPa 0,0 l/m 8,0 km/h (2 Bft) NW 315 0 min 2,7 UV-I 360 W/m 10,2 C 16,0 C 12,9 km/h (3 Bft)
25.05.2020 16:51 16,8 C 22,8 C 65 % 1034,4 hPa 0,0 l/m 3,2 km/h (1 Bft) NW 315 0 min 3,9 UV-I 360 W/m 10,2 C 16,8 C 6,4 km/h (2 Bft)
25.05.2020 16:52 16,8 C 22,2 C 66 % 1034,3 hPa 0,0 l/m 4,8 km/h (1 Bft) W-NW 292 0 min 2,3 UV-I 302 W/m 10,4 C 16,8 C 6,4 km/h (2 Bft)
25.05.2020 16:53 16,8 C 21,7 C 66 % 1034,4 hPa 0,0 l/m 3,2 km/h (1 Bft) W-NW 292 0 min 1,9 UV-I 274 W/m 10,4 C 16,8 C 6,4 km/h (2 Bft)
25.05.2020 16:54 16,7 C 21,1 C 65 % 1034,4 hPa 0,0 l/m 1,6 km/h (1 Bft) O 90 0 min 1,8 UV-I 258 W/m 10,1 C 16,7 C 3,2 km/h (1 Bft)
25.05.2020 16:55 16,7 C 20,6 C 67 % 1034,4 hPa 0,0 l/m 1,6 km/h (1 Bft) O 90 0 min 1,7 UV-I 246 W/m 10,5 C 16,7 C 3,2 km/h (1 Bft)
25.05.2020 16:56 16,7 C 20,0 C 67 % 1034,4 hPa 0,0 l/m 3,2 km/h (1 Bft) NO 45 0 min 1,6 UV-I 234 W/m 10,5 C 16,7 C 11,3 km/h (2 Bft)
25.05.2020 16:57 16,7 C 19,4 C 66 % 1034,5 hPa 0,0 l/m 9,7 km/h (2 Bft) NW 315 0 min 1,5 UV-I 218 W/m 10,3 C 15,1 C 16,1 km/h (3 Bft)
25.05.2020 16:58 16,6 C 19,4 C 65 % 1034,5 hPa 0,0 l/m 8,0 km/h (2 Bft) W-NW 292 0 min 1,5 UV-I 202 W/m 10,0 C 15,8 C 12,9 km/h (3 Bft)
25.05.2020 16:59 16,4 C 18,9 C 65 % 1034,4 hPa 0,0 l/m 6,4 km/h (2 Bft) NW 315 0 min 1,4 UV-I 195 W/m 9,8 C 16,4 C 9,7 km/h (2 Bft)
25.05.2020 17:00 16,3 C 18,3 C 65 % 1034,4 hPa 0,0 l/m 6,4 km/h (2 Bft) W-NW 292 0 min 1,3 UV-I 188 W/m 9,7 C 16,3 C 11,3 km/h (2 Bft)
25.05.2020 17:01 16,1 C 18,3 C 66 % 1034,4 hPa 0,0 l/m 6,4 km/h (2 Bft) W-NW 292 0 min 1,3 UV-I 183 W/m 9,7 C 16,1 C 9,7 km/h (2 Bft)
25.05.2020 17:02 16,1 C 17,8 C 67 % 1034,5 hPa 0,0 l/m 6,4 km/h (2 Bft) W-NW 292 0 min 1,2 UV-I 178 W/m 10,0 C 16,1 C 9,7 km/h (2 Bft)
25.05.2020 17:03 15,9 C 17,8 C 66 % 1034,5 hPa 0,0 l/m 3,2 km/h (1 Bft) W-NW 292 0 min 1,2 UV-I 174 W/m 9,6 C 15,9 C 6,4 km/h (2 Bft)
25.05.2020 17:04 15,9 C 17,8 C 67 % 1034,4 hPa 0,0 l/m 3,2 km/h (1 Bft) NW 315 0 min 1,3 UV-I 176 W/m 9,8 C 15,9 C 8,0 km/h (2 Bft)
25.05.2020 17:05 15,9 C 17,8 C 67 % 1034,4 hPa 0,0 l/m 1,6 km/h (1 Bft) NW 315 0 min 1,3 UV-I 181 W/m 9,8 C 15,9 C 3,2 km/h (1 Bft)
25.05.2020 17:06 15,9 C 17,8 C 68 % 1034,4 hPa 0,0 l/m 3,2 km/h (1 Bft) NW 315 0 min 1,3 UV-I 188 W/m 10,0 C 15,9 C 4,8 km/h (1 Bft)
25.05.2020 17:07 15,9 C 17,8 C 68 % 1034,3 hPa 0,0 l/m 1,6 km/h (1 Bft) W-NW 292 0 min 1,4 UV-I 195 W/m 10,0 C 15,9 C 6,4 km/h (2 Bft)
25.05.2020 17:08 15,9 C 17,8 C 67 % 1034,4 hPa 0,0 l/m 1,6 km/h (1 Bft) NW 315 0 min 1,4 UV-I 197 W/m 9,8 C 15,9 C 4,8 km/h (1 Bft)
25.05.2020 17:09 15,9 C 17,8 C 68 % 1034,4 hPa 0,0 l/m 6,4 km/h (2 Bft) NW 315 0 min 1,3 UV-I 187 W/m 10,0 C 15,9 C 14,5 km/h (3 Bft)
25.05.2020 17:10 15,9 C 17,8 C 68 % 1034,5 hPa 0,0 l/m 8,0 km/h (2 Bft) NW 315 0 min 1,3 UV-I 178 W/m 10,0 C 15,0 C 12,9 km/h (3 Bft)
25.05.2020 17:11 15,9 C 17,2 C 67 % 1034,5 hPa 0,0 l/m 12,9 km/h (3 Bft) N-NW 337 0 min 1,3 UV-I 176 W/m 9,8 C 13,0 C 17,7 km/h (3 Bft)
25.05.2020 17:12 15,9 C 17,2 C 66 % 1034,4 hPa 0,0 l/m 11,3 km/h (2 Bft) N-NW 337 0 min 1,3 UV-I 178 W/m 9,6 C 13,6 C 16,1 km/h (3 Bft)
25.05.2020 17:13 15,9 C 17,2 C 66 % 1034,5 hPa 0,0 l/m 8,0 km/h (2 Bft) NW 315 0 min 1,3 UV-I 179 W/m 9,6 C 15,0 C 14,5 km/h (3 Bft)
25.05.2020 17:14 15,9 C 17,2 C 66 % 1034,5 hPa 0,0 l/m 6,4 km/h (2 Bft) W-NW 292 0 min 1,3 UV-I 181 W/m 9,6 C 15,9 C 12,9 km/h (3 Bft)
25.05.2020 17:15 15,9 C 17,2 C 66 % 1034,5 hPa 0,0 l/m 6,4 km/h (2 Bft) NW 315 0 min 1,4 UV-I 182 W/m 9,6 C 15,9 C 12,9 km/h (3 Bft)
25.05.2020 17:16 15,9 C 17,2 C 67 % 1034,5 hPa 0,0 l/m 3,2 km/h (1 Bft) NW 315 0 min 1,4 UV-I 188 W/m 9,8 C 15,9 C 6,4 km/h (2 Bft)
25.05.2020 17:17 15,9 C 17,2 C 66 % 1034,5 hPa 0,0 l/m 9,7 km/h (2 Bft) NW 315 0 min 1,5 UV-I 199 W/m 9,6 C 14,2 C 16,1 km/h (3 Bft)
25.05.2020 17:18 15,9 C 17,2 C 66 % 1034,6 hPa 0,0 l/m 8,0 km/h (2 Bft) W-NW 292 0 min 1,6 UV-I 213 W/m 9,6 C 15,0 C 16,1 km/h (3 Bft)
25.05.2020 17:19 15,9 C 17,2 C 67 % 1034,6 hPa 0,0 l/m 6,4 km/h (2 Bft) W-NW 292 0 min 1,7 UV-I 232 W/m 9,8 C 15,9 C 12,9 km/h (3 Bft)
25.05.2020 17:20 16,0 C 17,2 C 67 % 1034,7 hPa 0,0 l/m 8,0 km/h (2 Bft) N-NW 337 0 min 1,8 UV-I 260 W/m 9,9 C 15,2 C 14,5 km/h (3 Bft)
25.05.2020 17:21 16,1 C 17,8 C 67 % 1034,6 hPa 0,0 l/m 8,0 km/h (2 Bft) N-NW 337 0 min 1,9 UV-I 274 W/m 10,0 C 15,3 C 12,9 km/h (3 Bft)
25.05.2020 17:22 16,1 C 17,8 C 68 % 1034,7 hPa 0,0 l/m 4,8 km/h (1 Bft) N 360 0 min 2,1 UV-I 288 W/m 10,2 C 16,1 C 11,3 km/h (2 Bft)
25.05.2020 17:23 16,2 C 18,3 C 68 % 1034,6 hPa 0,0 l/m 8,0 km/h (2 Bft) N 360 0 min 2,2 UV-I 311 W/m 10,3 C 15,4 C 14,5 km/h (3 Bft)
25.05.2020 17:24 16,2 C 18,3 C 67 % 1034,6 hPa 0,0 l/m 4,8 km/h (1 Bft) NW 315 0 min 2,4 UV-I 367 W/m 10,1 C 16,2 C 12,9 km/h (3 Bft)
25.05.2020 17:25 16,3 C 18,9 C 65 % 1034,7 hPa 0,0 l/m 11,3 km/h (2 Bft) N-NW 337 0 min 3,7 UV-I 367 W/m 9,7 C 14,0 C 19,3 km/h (3 Bft)
25.05.2020 17:26 16,4 C 20,6 C 65 % 1034,7 hPa 0,0 l/m 14,5 km/h (3 Bft) N-NW 337 0 min 2,7 UV-I 367 W/m 9,8 C 13,0 C 16,1 km/h (3 Bft)
25.05.2020 17:27 16,4 C 20,0 C 64 % 1034,7 hPa 0,0 l/m 8,0 km/h (2 Bft) N-NW 337 0 min 2,8 UV-I 401 W/m 9,6 C 15,6 C 12,9 km/h (3 Bft)
25.05.2020 17:28 16,5 C 20,6 C 66 % 1034,7 hPa 0,0 l/m 11,3 km/h (2 Bft) N 360 0 min 3,1 UV-I 492 W/m 10,1 C 14,3 C 17,7 km/h (3 Bft)
25.05.2020 17:29 16,6 C 20,6 C 65 % 1034,7 hPa 0,0 l/m 16,1 km/h (3 Bft) N 360 0 min 2,5 UV-I 492 W/m 10,0 C 12,8 C 19,3 km/h (3 Bft)
25.05.2020 17:30 16,5 C 20,6 C 65 % 1034,7 hPa 0,0 l/m 14,5 km/h (3 Bft) N 360 0 min 2,1 UV-I 267 W/m 9,9 C 13,2 C 24,1 km/h (4 Bft)
25.05.2020 17:31 16,4 C 20,0 C 65 % 1034,6 hPa 0,0 l/m 6,4 km/h (2 Bft) N-NO 22 0 min 2,0 UV-I 244 W/m 9,8 C 16,4 C 14,5 km/h (3 Bft)
25.05.2020 17:32 16,4 C 20,0 C 66 % 1034,6 hPa 0,0 l/m 8,0 km/h (2 Bft) N 360 0 min 2,2 UV-I 244 W/m 10,0 C 15,6 C 14,5 km/h (3 Bft)
25.05.2020 17:33 16,4 C 20,0 C 65 % 1034,6 hPa 0,0 l/m 6,4 km/h (2 Bft) N-NW 337 0 min 1,9 UV-I 214 W/m 9,8 C 16,4 C 9,7 km/h (2 Bft)
25.05.2020 17:34 16,3 C 20,0 C 66 % 1034,6 hPa 0,0 l/m 6,4 km/h (2 Bft) N-NW 337 0 min 1,9 UV-I 223 W/m 9,9 C 16,3 C 14,5 km/h (3 Bft)
25.05.2020 17:35 16,4 C 19,4 C 65 % 1034,7 hPa 0,0 l/m 9,7 km/h (2 Bft) W-NW 292 0 min 1,9 UV-I 236 W/m 9,8 C 14,8 C 14,5 km/h (3 Bft)
25.05.2020 17:36 16,3 C 19,4 C 65 % 1034,6 hPa 0,0 l/m 6,4 km/h (2 Bft) W-NW 292 0 min 1,9 UV-I 246 W/m 9,7 C 16,3 C 11,3 km/h (2 Bft)
25.05.2020 17:37 16,3 C 18,9 C 65 % 1034,6 hPa 0,0 l/m 4,8 km/h (1 Bft) NW 315 0 min 1,9 UV-I 250 W/m 9,7 C 16,3 C 11,3 km/h (2 Bft)
25.05.2020 17:38 16,3 C 18,9 C 66 % 1034,7 hPa 0,0 l/m 8,0 km/h (2 Bft) N 360 0 min 1,8 UV-I 237 W/m 9,9 C 15,5 C 11,3 km/h (2 Bft)
25.05.2020 17:39 16,2 C 18,3 C 64 % 1034,7 hPa 0,0 l/m 11,3 km/h (2 Bft) N-NW 337 0 min 1,8 UV-I 227 W/m 9,4 C 13,9 C 14,5 km/h (3 Bft)
25.05.2020 17:40 16,2 C 18,3 C 65 % 1034,6 hPa 0,0 l/m 9,7 km/h (2 Bft) N 360 0 min 1,9 UV-I 257 W/m 9,6 C 14,6 C 12,9 km/h (3 Bft)
25.05.2020 17:41 16,2 C 18,3 C 65 % 1034,6 hPa 0,0 l/m 12,9 km/h (3 Bft) N-NW 337 0 min 1,6 UV-I 304 W/m 9,6 C 13,3 C 22,5 km/h (4 Bft)
25.05.2020 17:42 16,3 C 18,3 C 64 % 1034,6 hPa 0,0 l/m 16,1 km/h (3 Bft) NW 315 0 min 1,6 UV-I 304 W/m 9,5 C 12,4 C 24,1 km/h (4 Bft)
25.05.2020 17:43 16,2 C 17,8 C 64 % 1034,5 hPa 0,0 l/m 12,9 km/h (3 Bft) W-NW 292 0 min 1,6 UV-I 192 W/m 9,4 C 13,3 C 19,3 km/h (3 Bft)
25.05.2020 17:44 16,2 C 17,8 C 63 % 1034,6 hPa 0,0 l/m 11,3 km/h (2 Bft) W-NW 292 0 min 1,6 UV-I 197 W/m 9,1 C 13,9 C 19,3 km/h (3 Bft)
25.05.2020 17:45 16,1 C 17,8 C 64 % 1034,5 hPa 0,0 l/m 12,9 km/h (3 Bft) W-NW 292 0 min 1,7 UV-I 202 W/m 9,3 C 13,2 C 20,9 km/h (4 Bft)
25.05.2020 17:46 16,1 C 17,8 C 64 % 1034,5 hPa 0,0 l/m 9,7 km/h (2 Bft) W-NW 292 0 min 2,0 UV-I 202 W/m 9,3 C 14,5 C 19,3 km/h (3 Bft)
25.05.2020 17:47 16,1 C 18,3 C 64 % 1034,6 hPa 0,0 l/m 14,5 km/h (3 Bft) N-NW 337 0 min 1,9 UV-I 236 W/m 9,3 C 12,7 C 16,1 km/h (3 Bft)
25.05.2020 17:48 16,1 C 18,3 C 65 % 1034,5 hPa 0,0 l/m 12,9 km/h (3 Bft) NW 315 0 min 1,9 UV-I 237 W/m 9,5 C 13,2 C 22,5 km/h (4 Bft)
25.05.2020 17:49 16,2 C 18,3 C 64 % 1034,5 hPa 0,0 l/m 11,3 km/h (2 Bft) N-NW 337 0 min 1,9 UV-I 214 W/m 9,4 C 13,9 C 20,9 km/h (4 Bft)
25.05.2020 17:50 16,2 C 18,3 C 64 % 1034,5 hPa 0,0 l/m 12,9 km/h (3 Bft) N-NW 337 0 min 1,9 UV-I 240 W/m 9,4 C 13,3 C 19,3 km/h (3 Bft)
25.05.2020 17:51 16,1 C 18,3 C 63 % 1034,4 hPa 0,0 l/m 11,3 km/h (2 Bft) N-NW 337 0 min 2,1 UV-I 179 W/m 9,1 C 13,8 C 16,1 km/h (3 Bft)
25.05.2020 17:52 16,2 C 18,9 C 64 % 1034,4 hPa 0,0 l/m 11,3 km/h (2 Bft) NW 315 0 min 1,8 UV-I 163 W/m 9,4 C 13,9 C 17,7 km/h (3 Bft)
25.05.2020 17:53 16,2 C 18,3 C 64 % 1034,5 hPa 0,0 l/m 11,3 km/h (2 Bft) N-NW 337 0 min 1,9 UV-I 193 W/m 9,4 C 13,9 C 19,3 km/h (3 Bft)
25.05.2020 17:54 16,2 C 19,4 C 65 % 1034,5 hPa 0,0 l/m 6,4 km/h (2 Bft) N 360 0 min 2,5 UV-I 193 W/m 9,6 C 16,2 C 9,7 km/h (2 Bft)
25.05.2020 17:55 16,4 C 20,6 C 65 % 1034,4 hPa 0,0 l/m 6,4 km/h (2 Bft) W-NW 292 1 min 2,8 UV-I 636 W/m 9,8 C 16,4 C 11,3 km/h (2 Bft)
25.05.2020 17:56 16,6 C 20,6 C 66 % 1034,4 hPa 0,0 l/m 4,8 km/h (1 Bft) W-NW 292 1 min 2,7 UV-I 664 W/m 10,2 C 16,6 C 6,4 km/h (2 Bft)
25.05.2020 17:57 16,8 C 22,8 C 64 % 1034,6 hPa 0,0 l/m 8,0 km/h (2 Bft) W-NW 292 1 min 2,5 UV-I 619 W/m 10,0 C 16,0 C 11,3 km/h (2 Bft)
25.05.2020 17:58 16,9 C 23,3 C 63 % 1034,5 hPa 0,0 l/m 4,8 km/h (1 Bft) N-NW 337 0 min 2,4 UV-I 552 W/m 9,8 C 16,9 C 14,5 km/h (3 Bft)
25.05.2020 17:59 17,0 C 23,3 C 65 % 1034,5 hPa 0,0 l/m 8,0 km/h (2 Bft) W-NW 292 0 min 1,7 UV-I 584 W/m 10,4 C 16,2 C 14,5 km/h (3 Bft)
25.05.2020 18:00 17,1 C 22,8 C 63 % 1034,5 hPa 0,0 l/m 4,8 km/h (1 Bft) NW 315 0 min 1,8 UV-I 584 W/m 10,0 C 17,1 C 8,0 km/h (2 Bft)
25.05.2020 18:01 17,1 C 22,8 C 64 % 1034,5 hPa 0,0 l/m 6,4 km/h (2 Bft) N-NW 337 0 min 1,4 UV-I 232 W/m 10,2 C 17,1 C 9,7 km/h (2 Bft)
25.05.2020 18:02 17,1 C 21,7 C 64 % 1034,5 hPa 0,0 l/m 6,4 km/h (2 Bft) N-NW 337 0 min 1,3 UV-I 221 W/m 10,2 C 17,1 C 14,5 km/h (3 Bft)
25.05.2020 18:03 17,0 C 21,1 C 63 % 1034,5 hPa 0,0 l/m 16,1 km/h (3 Bft) N-NW 337 0 min 1,3 UV-I 220 W/m 9,9 C 13,3 C 19,3 km/h (3 Bft)
25.05.2020 18:04 16,9 C 20,6 C 62 % 1034,5 hPa 0,0 l/m 14,5 km/h (3 Bft) N 360 0 min 1,3 UV-I 220 W/m 9,6 C 13,6 C 19,3 km/h (3 Bft)
25.05.2020 18:05 16,8 C 20,0 C 63 % 1034,5 hPa 0,0 l/m 12,9 km/h (3 Bft) N 360 0 min 1,7 UV-I 220 W/m 9,7 C 14,0 C 17,7 km/h (3 Bft)
25.05.2020 18:06 16,7 C 20,0 C 64 % 1034,5 hPa 0,0 l/m 12,9 km/h (3 Bft) NW 315 0 min 1,4 UV-I 520 W/m 9,9 C 13,9 C 16,1 km/h (3 Bft)
25.05.2020 18:07 16,7 C 20,0 C 63 % 1034,5 hPa 0,0 l/m 6,4 km/h (2 Bft) N 360 0 min 1,4 UV-I 520 W/m 9,6 C 16,7 C 8,0 km/h (2 Bft)
25.05.2020 18:08 16,6 C 20,6 C 63 % 1034,5 hPa 0,0 l/m 4,8 km/h (1 Bft) N 360 0 min 1,3 UV-I 221 W/m 9,5 C 16,6 C 6,4 km/h (2 Bft)
25.05.2020 18:09 16,6 C 20,0 C 64 % 1034,5 hPa 0,0 l/m 9,7 km/h (2 Bft) N 360 0 min 1,1 UV-I 206 W/m 9,8 C 15,0 C 12,9 km/h (3 Bft)
25.05.2020 18:10 16,6 C 20,0 C 65 % 1034,5 hPa 0,0 l/m 8,0 km/h (2 Bft) NW 315 0 min 1,0 UV-I 188 W/m 10,0 C 15,8 C 16,1 km/h (3 Bft)
25.05.2020 18:11 16,6 C 19,4 C 65 % 1034,5 hPa 0,0 l/m 6,4 km/h (2 Bft) N 360 0 min 1,0 UV-I 190 W/m 10,0 C 16,6 C 12,9 km/h (3 Bft)
25.05.2020 18:12 16,6 C 18,9 C 65 % 1034,5 hPa 0,0 l/m 12,9 km/h (3 Bft) N-NW 337 0 min 1,1 UV-I 204 W/m 10,0 C 13,8 C 16,1 km/h (3 Bft)
25.05.2020 18:13 16,5 C 18,9 C 64 % 1034,5 hPa 0,0 l/m 9,7 km/h (2 Bft) N 360 0 min 1,2 UV-I 201 W/m 9,7 C 14,9 C 14,5 km/h (3 Bft)
25.05.2020 18:14 16,4 C 18,9 C 65 % 1034,5 hPa 0,0 l/m 4,8 km/h (1 Bft) N-NW 337 0 min 1,2 UV-I 176 W/m 9,8 C 16,4 C 9,7 km/h (2 Bft)
25.05.2020 18:15 16,4 C 18,3 C 65 % 1034,4 hPa 0,0 l/m 11,3 km/h (2 Bft) N-NW 337 0 min 1,2 UV-I 160 W/m 9,8 C 14,1 C 16,1 km/h (3 Bft)
25.05.2020 18:16 16,4 C 18,3 C 65 % 1034,5 hPa 0,0 l/m 9,7 km/h (2 Bft) N 360 0 min 1,2 UV-I 148 W/m 9,8 C 14,8 C 16,1 km/h (3 Bft)
25.05.2020 18:17 16,3 C 17,8 C 66 % 1034,4 hPa 0,0 l/m 9,7 km/h (2 Bft) N-NW 337 0 min 1,3 UV-I 134 W/m 9,9 C 14,7 C 16,1 km/h (3 Bft)
25.05.2020 18:18 16,3 C 17,8 C 66 % 1034,5 hPa 0,0 l/m 8,0 km/h (2 Bft) N-NW 337 0 min 1,3 UV-I 127 W/m 9,9 C 15,5 C 12,9 km/h (3 Bft)
25.05.2020 18:19 16,2 C 17,8 C 64 % 1034,5 hPa 0,0 l/m 11,3 km/h (2 Bft) N 360 0 min 1,3 UV-I 137 W/m 9,4 C 13,9 C 17,7 km/h (3 Bft)
25.05.2020 18:20 16,2 C 17,8 C 65 % 1034,5 hPa 0,0 l/m 14,5 km/h (3 Bft) N 360 0 min 1,7 UV-I 137 W/m 9,6 C 12,8 C 20,9 km/h (4 Bft)
25.05.2020 18:21 16,2 C 18,3 C 65 % 1034,5 hPa 0,0 l/m 11,3 km/h (2 Bft) N 360 0 min 2,0 UV-I 137 W/m 9,6 C 13,9 C 14,5 km/h (3 Bft)
25.05.2020 18:22 16,2 C 18,3 C 66 % 1034,6 hPa 0,0 l/m 6,4 km/h (2 Bft) N-NW 337 0 min 1,3 UV-I 137 W/m 9,8 C 16,2 C 11,3 km/h (2 Bft)
25.05.2020 18:23 16,3 C 18,3 C 65 % 1034,6 hPa 0,0 l/m 6,4 km/h (2 Bft) N-NW 337 0 min 1,3 UV-I 128 W/m 9,7 C 16,3 C 9,7 km/h (2 Bft)
25.05.2020 18:24 16,3 C 18,3 C 66 % 1034,5 hPa 0,0 l/m 8,0 km/h (2 Bft) N-NW 337 0 min 1,2 UV-I 111 W/m 9,9 C 15,5 C 14,5 km/h (3 Bft)
25.05.2020 18:25 16,2 C 17,8 C 65 % 1034,5 hPa 0,0 l/m 8,0 km/h (2 Bft) W-NW 292 0 min 1,2 UV-I 96 W/m 9,6 C 15,4 C 16,1 km/h (3 Bft)
25.05.2020 18:26 16,1 C 17,2 C 65 % 1034,5 hPa 0,0 l/m 9,7 km/h (2 Bft) N-NW 337 0 min 1,1 UV-I 88 W/m 9,5 C 14,5 C 14,5 km/h (3 Bft)
25.05.2020 18:27 16,0 C 17,2 C 65 % 1034,6 hPa 0,0 l/m 8,0 km/h (2 Bft) N 360 0 min 1,0 UV-I 88 W/m 9,4 C 15,2 C 12,9 km/h (3 Bft)
25.05.2020 18:28 15,9 C 16,7 C 66 % 1034,5 hPa 0,0 l/m 9,7 km/h (2 Bft) N 360 0 min 1,0 UV-I 90 W/m 9,6 C 14,2 C 16,1 km/h (3 Bft)
25.05.2020 18:29 15,8 C 16,7 C 66 % 1034,6 hPa 0,0 l/m 8,0 km/h (2 Bft) N-NW 337 0 min 1,0 UV-I 95 W/m 9,5 C 14,9 C 12,9 km/h (3 Bft)
25.05.2020 18:30 15,8 C 16,1 C 67 % 1034,6 hPa 0,0 l/m 9,7 km/h (2 Bft) N-NW 337 0 min 1,2 UV-I 146 W/m 9,7 C 14,1 C 16,1 km/h (3 Bft)
25.05.2020 18:31 15,7 C 16,1 C 67 % 1034,7 hPa 0,0 l/m 8,0 km/h (2 Bft) N 360 0 min 1,1 UV-I 135 W/m 9,6 C 14,8 C 14,5 km/h (3 Bft)
25.05.2020 18:32 15,7 C 16,1 C 66 % 1034,6 hPa 0,0 l/m 9,7 km/h (2 Bft) NW 315 0 min 1,0 UV-I 118 W/m 9,4 C 14,0 C 16,1 km/h (3 Bft)
25.05.2020 18:33 15,7 C 16,1 C 66 % 1034,6 hPa 0,0 l/m 11,3 km/h (2 Bft) N-NW 337 0 min 1,0 UV-I 121 W/m 9,4 C 13,3 C 16,1 km/h (3 Bft)
25.05.2020 18:34 15,7 C 16,1 C 67 % 1034,7 hPa 0,0 l/m 11,3 km/h (2 Bft) N-NW 337 0 min 1,0 UV-I 130 W/m 9,6 C 13,3 C 16,1 km/h (3 Bft)
25.05.2020 18:35 15,7 C 16,1 C 67 % 1034,6 hPa 0,0 l/m 6,4 km/h (2 Bft) N 360 0 min 1,1 UV-I 141 W/m 9,6 C 15,7 C 12,9 km/h (3 Bft)
25.05.2020 18:36 15,7 C 16,1 C 68 % 1034,7 hPa 0,0 l/m 6,4 km/h (2 Bft) N-NW 337 0 min 1,1 UV-I 146 W/m 9,8 C 15,7 C 8,0 km/h (2 Bft)
25.05.2020 18:37 15,7 C 16,7 C 67 % 1034,7 hPa 0,0 l/m 4,8 km/h (1 Bft) N-NW 337 0 min 1,1 UV-I 139 W/m 9,6 C 15,7 C 9,7 km/h (2 Bft)
25.05.2020 18:38 15,7 C 16,7 C 67 % 1034,6 hPa 0,0 l/m 6,4 km/h (2 Bft) N-NW 337 0 min 1,1 UV-I 121 W/m 9,6 C 15,7 C 11,3 km/h (2 Bft)
25.05.2020 18:39 15,7 C 16,1 C 67 % 1034,6 hPa 0,0 l/m 4,8 km/h (1 Bft) N-NW 337 0 min 1,1 UV-I 121 W/m 9,6 C 15,7 C 9,7 km/h (2 Bft)
25.05.2020 18:40 15,7 C 16,7 C 67 % 1034,7 hPa 0,0 l/m 8,0 km/h (2 Bft) N-NW 337 0 min 1,6 UV-I 121 W/m 9,6 C 14,8 C 14,5 km/h (3 Bft)
25.05.2020 18:41 15,7 C 16,7 C 67 % 1034,7 hPa 0,0 l/m 4,8 km/h (1 Bft) NW 315 0 min 1,2 UV-I 121 W/m 9,6 C 15,7 C 8,0 km/h (2 Bft)
25.05.2020 18:42 15,8 C 16,7 C 67 % 1034,7 hPa 0,0 l/m 8,0 km/h (2 Bft) NW 315 0 min 1,3 UV-I 157 W/m 9,7 C 14,9 C 12,9 km/h (3 Bft)
25.05.2020 18:43 15,8 C 16,7 C 67 % 1034,7 hPa 0,0 l/m 8,0 km/h (2 Bft) W-NW 292 0 min 1,2 UV-I 104 W/m 9,7 C 14,9 C 12,9 km/h (3 Bft)
25.05.2020 18:44 15,8 C 16,7 C 67 % 1034,7 hPa 0,0 l/m 9,7 km/h (2 Bft) NW 315 0 min 1,1 UV-I 93 W/m 9,7 C 14,1 C 16,1 km/h (3 Bft)
25.05.2020 18:45 15,8 C 16,7 C 66 % 1034,6 hPa 0,0 l/m 11,3 km/h (2 Bft) N-NW 337 0 min 1,0 UV-I 90 W/m 9,5 C 13,5 C 16,1 km/h (3 Bft)
25.05.2020 18:46 15,7 C 16,1 C 67 % 1034,6 hPa 0,0 l/m 8,0 km/h (2 Bft) NW 315 0 min 1,0 UV-I 90 W/m 9,6 C 14,8 C 16,1 km/h (3 Bft)
25.05.2020 18:47 15,7 C 16,1 C 67 % 1034,6 hPa 0,0 l/m 9,7 km/h (2 Bft) NW 315 0 min 1,0 UV-I 93 W/m 9,6 C 14,0 C 17,7 km/h (3 Bft)
25.05.2020 18:48 15,6 C 16,1 C 66 % 1034,6 hPa 0,0 l/m 12,9 km/h (3 Bft) N-NW 337 0 min 1,0 UV-I 97 W/m 9,3 C 12,6 C 16,1 km/h (3 Bft)
25.05.2020 18:49 15,6 C 16,1 C 66 % 1034,6 hPa 0,0 l/m 6,4 km/h (2 Bft) N-NW 337 0 min 1,3 UV-I 269 W/m 9,3 C 15,6 C 9,7 km/h (2 Bft)
25.05.2020 18:50 15,6 C 16,1 C 67 % 1034,7 hPa 0,0 l/m 3,2 km/h (1 Bft) W-NW 292 0 min 1,0 UV-I 269 W/m 9,5 C 15,6 C 8,0 km/h (2 Bft)
25.05.2020 18:51 15,6 C 16,1 C 67 % 1034,6 hPa 0,0 l/m 9,7 km/h (2 Bft) N-NW 337 0 min 0,9 UV-I 107 W/m 9,5 C 13,9 C 16,1 km/h (3 Bft)
25.05.2020 18:52 15,6 C 16,1 C 67 % 1034,6 hPa 0,0 l/m 4,8 km/h (1 Bft) NW 315 0 min 0,9 UV-I 97 W/m 9,5 C 15,6 C 12,9 km/h (3 Bft)
25.05.2020 18:53 15,6 C 16,1 C 67 % 1034,6 hPa 0,0 l/m 8,0 km/h (2 Bft) W-NW 292 0 min 0,9 UV-I 91 W/m 9,5 C 14,7 C 11,3 km/h (2 Bft)
25.05.2020 18:54 15,5 C 16,1 C 66 % 1034,6 hPa 0,0 l/m 9,7 km/h (2 Bft) W-NW 292 0 min 0,9 UV-I 89 W/m 9,2 C 13,8 C 16,1 km/h (3 Bft)
25.05.2020 18:55 15,4 C 16,1 C 66 % 1034,6 hPa 0,0 l/m 4,8 km/h (1 Bft) NW 315 0 min 0,8 UV-I 86 W/m 9,1 C 15,4 C 11,3 km/h (2 Bft)
25.05.2020 18:56 15,4 C 15,6 C 67 % 1034,7 hPa 0,0 l/m 6,4 km/h (2 Bft) NW 315 0 min 0,8 UV-I 81 W/m 9,3 C 15,4 C 9,7 km/h (2 Bft)
25.05.2020 18:57 15,3 C 15,6 C 67 % 1034,6 hPa 0,0 l/m 6,4 km/h (2 Bft) NW 315 0 min 0,8 UV-I 77 W/m 9,2 C 15,3 C 11,3 km/h (2 Bft)
25.05.2020 18:58 15,3 C 15,6 C 67 % 1034,6 hPa 0,0 l/m 4,8 km/h (1 Bft) NW 315 0 min 0,8 UV-I 74 W/m 9,2 C 15,3 C 8,0 km/h (2 Bft)
25.05.2020 18:59 15,3 C 15,6 C 67 % 1034,6 hPa 0,0 l/m 6,4 km/h (2 Bft) W-NW 292 0 min 0,8 UV-I 70 W/m 9,2 C 15,3 C 11,3 km/h (2 Bft)
25.05.2020 19:00 15,3 C 15,6 C 67 % 1034,6 hPa 0,0 l/m 4,8 km/h (1 Bft) NW 315 0 min 0,8 UV-I 69 W/m 9,2 C 15,3 C 6,4 km/h (2 Bft)
25.05.2020 19:01 15,2 C 15,0 C 67 % 1034,6 hPa 0,0 l/m 4,8 km/h (1 Bft) W-NW 292 0 min 0,8 UV-I 69 W/m 9,1 C 15,2 C 12,9 km/h (3 Bft)
25.05.2020 19:02 15,2 C 15,0 C 68 % 1034,6 hPa 0,0 l/m 6,4 km/h (2 Bft) NW 315 0 min 0,8 UV-I 69 W/m 9,3 C 15,2 C 11,3 km/h (2 Bft)
25.05.2020 19:03 15,2 C 15,0 C 67 % 1034,6 hPa 0,0 l/m 8,0 km/h (2 Bft) N-NW 337 0 min 0,8 UV-I 69 W/m 9,1 C 14,3 C 12,9 km/h (3 Bft)
25.05.2020 19:04 15,2 C 15,0 C 68 % 1034,6 hPa 0,0 l/m 4,8 km/h (1 Bft) W-NW 292 0 min 0,8 UV-I 72 W/m 9,3 C 15,2 C 8,0 km/h (2 Bft)
25.05.2020 19:05 15,2 C 15,0 C 68 % 1034,6 hPa 0,0 l/m 4,8 km/h (1 Bft) N-NW 337 0 min 1,2 UV-I 72 W/m 9,3 C 15,2 C 9,7 km/h (2 Bft)
25.05.2020 19:06 15,2 C 16,1 C 68 % 1034,6 hPa 0,0 l/m 6,4 km/h (2 Bft) NW 315 0 min 1,2 UV-I 311 W/m 9,3 C 15,2 C 12,9 km/h (3 Bft)
25.05.2020 19:07 15,2 C 17,2 C 69 % 1034,6 hPa 0,0 l/m 3,2 km/h (1 Bft) NW 315 0 min 0,9 UV-I 105 W/m 9,6 C 15,2 C 4,8 km/h (1 Bft)
25.05.2020 19:08 15,2 C 17,2 C 69 % 1034,6 hPa 0,0 l/m 3,2 km/h (1 Bft) N-NW 337 0 min 1,1 UV-I 128 W/m 9,6 C 15,2 C 6,4 km/h (2 Bft)
25.05.2020 19:09 15,3 C 17,2 C 68 % 1034,6 hPa 0,0 l/m 4,8 km/h (1 Bft) N-NW 337 0 min 1,1 UV-I 128 W/m 9,4 C 15,3 C 9,7 km/h (2 Bft)
25.05.2020 19:10 15,3 C 17,8 C 68 % 1034,6 hPa 0,0 l/m 6,4 km/h (2 Bft) N-NW 337 0 min 1,1 UV-I 272 W/m 9,4 C 15,3 C 8,0 km/h (2 Bft)
25.05.2020 19:11 15,4 C 18,3 C 68 % 1034,5 hPa 0,0 l/m 6,4 km/h (2 Bft) N-NW 337 0 min 0,8 UV-I 272 W/m 9,5 C 15,4 C 8,0 km/h (2 Bft)
25.05.2020 19:12 15,4 C 17,8 C 68 % 1034,6 hPa 0,0 l/m 4,8 km/h (1 Bft) N-NW 337 0 min 0,8 UV-I 85 W/m 9,5 C 15,4 C 8,0 km/h (2 Bft)
25.05.2020 19:13 15,3 C 17,2 C 68 % 1034,5 hPa 0,0 l/m 6,4 km/h (2 Bft) N-NW 337 0 min 0,8 UV-I 91 W/m 9,4 C 15,3 C 8,0 km/h (2 Bft)
25.05.2020 19:14 15,3 C 16,7 C 69 % 1034,5 hPa 0,0 l/m 11,3 km/h (2 Bft) N-NW 337 0 min 0,8 UV-I 102 W/m 9,6 C 12,9 C 14,5 km/h (3 Bft)
25.05.2020 19:15 15,3 C 16,7 C 69 % 1034,5 hPa 0,0 l/m 6,4 km/h (2 Bft) N 360 0 min 0,8 UV-I 114 W/m 9,6 C 15,3 C 8,0 km/h (2 Bft)
25.05.2020 19:16 15,3 C 16,7 C 69 % 1034,5 hPa 0,0 l/m 4,8 km/h (1 Bft) N-NW 337 0 min 1,0 UV-I 114 W/m 9,6 C 15,3 C 8,0 km/h (2 Bft)
25.05.2020 19:17 15,3 C 17,2 C 69 % 1034,5 hPa 0,0 l/m 6,4 km/h (2 Bft) N-NW 337 0 min 1,0 UV-I 350 W/m 9,6 C 15,3 C 9,7 km/h (2 Bft)
25.05.2020 19:18 15,4 C 18,3 C 68 % 1034,5 hPa 0,0 l/m 8,0 km/h (2 Bft) N-NW 337 0 min 1,0 UV-I 352 W/m 9,5 C 14,5 C 12,9 km/h (3 Bft)
25.05.2020 19:19 15,6 C 18,9 C 67 % 1034,5 hPa 0,0 l/m 8,0 km/h (2 Bft) N 360 0 min 1,0 UV-I 352 W/m 9,5 C 14,7 C 9,7 km/h (2 Bft)
25.05.2020 19:20 15,6 C 18,9 C 68 % 1034,5 hPa 0,0 l/m 8,0 km/h (2 Bft) N 360 0 min 0,7 UV-I 352 W/m 9,7 C 14,7 C 11,3 km/h (2 Bft)
25.05.2020 19:24 15,6 C 16,7 C 67 % 1034,5 hPa 0,0 l/m 9,0 km/h (2 Bft) NW 310 0 min 0,6 UV-I 62 W/m 9,5 C 14,2 C 14,5 km/h (3 Bft)
25.05.2020 19:26 15,4 C 16,1 C 67 % 1034,6 hPa 0,0 l/m 10,3 km/h (2 Bft) N 5 0 min 0,3 UV-I 54 W/m 9,3 C 13,4 C 16,1 km/h (3 Bft)
25.05.2020 19:28 15,3 C 15,6 C 67 % 1034,7 hPa 0,0 l/m 8,2 km/h (2 Bft) NW 321 0 min 0,0 UV-I 51 W/m 9,2 C 14,3 C 17,7 km/h (3 Bft)
25.05.2020 19:30 15,3 C 15,0 C 67 % 1034,6 hPa 0,0 l/m 8,0 km/h (2 Bft) N-NW 339 0 min 0,2 UV-I 61 W/m 9,2 C 14,4 C 12,9 km/h (3 Bft)
25.05.2020 19:32 15,2 C 15,0 C 68 % 1034,6 hPa 0,0 l/m 7,4 km/h (2 Bft) N 350 0 min 0,4 UV-I 81 W/m 9,3 C 14,6 C 14,5 km/h (3 Bft)
25.05.2020 19:34 15,2 C 15,0 C 68 % 1034,5 hPa 0,0 l/m 13,0 km/h (3 Bft) N-NW 331 0 min 0,6 UV-I 82 W/m 9,3 C 12,1 C 17,7 km/h (3 Bft)
25.05.2020 19:36 15,1 C 15,6 C 68 % 1034,5 hPa 0,0 l/m 14,1 km/h (3 Bft) N-NW 342 0 min 0,6 UV-I 137 W/m 9,2 C 11,6 C 19,3 km/h (3 Bft)
25.05.2020 19:38 15,0 C 15,0 C 69 % 1034,7 hPa 0,0 l/m 16,0 km/h (3 Bft) N 360 0 min 0,0 UV-I 83 W/m 9,4 C 10,9 C 19,3 km/h (3 Bft)
25.05.2020 19:40 14,9 C 14,4 C 69 % 1034,7 hPa 0,0 l/m 16,2 km/h (3 Bft) N 355 0 min 0,0 UV-I 47 W/m 9,3 C 10,7 C 22,5 km/h (4 Bft)
25.05.2020 19:42 14,9 C 14,4 C 70 % 1034,6 hPa 0,0 l/m 11,0 km/h (2 Bft) N-NW 327 0 min 0,0 UV-I 47 W/m 9,5 C 12,6 C 17,7 km/h (3 Bft)
25.05.2020 19:44 14,8 C 14,4 C 70 % 1034,7 hPa 0,0 l/m 10,6 km/h (2 Bft) N-NW 341 0 min 0,0 UV-I 49 W/m 9,4 C 12,6 C 14,5 km/h (3 Bft)
25.05.2020 19:46 14,8 C 14,4 C 70 % 1034,7 hPa 0,0 l/m 11,2 km/h (2 Bft) N 355 0 min 0,0 UV-I 51 W/m 9,4 C 12,4 C 17,7 km/h (3 Bft)
25.05.2020 19:48 14,8 C 14,4 C 70 % 1034,7 hPa 0,0 l/m 11,4 km/h (2 Bft) N 355 0 min 0,0 UV-I 55 W/m 9,4 C 12,3 C 14,5 km/h (3 Bft)
25.05.2020 19:50 14,8 C 14,4 C 71 % 1034,6 hPa 0,0 l/m 8,2 km/h (2 Bft) N-NW 336 0 min 0,1 UV-I 82 W/m 9,6 C 13,8 C 14,5 km/h (3 Bft)
25.05.2020 19:52 14,7 C 15,0 C 71 % 1034,6 hPa 0,0 l/m 7,4 km/h (2 Bft) N 5 0 min 0,3 UV-I 103 W/m 9,5 C 14,1 C 12,9 km/h (3 Bft)
25.05.2020 19:54 14,7 C 15,0 C 71 % 1034,6 hPa 0,0 l/m 10,5 km/h (2 Bft) N 11 0 min 0,5 UV-I 116 W/m 9,5 C 12,6 C 17,7 km/h (3 Bft)
25.05.2020 19:56 14,7 C 15,0 C 70 % 1034,6 hPa 0,0 l/m 9,2 km/h (2 Bft) N-NO 12 0 min 0,1 UV-I 86 W/m 9,3 C 13,2 C 14,5 km/h (3 Bft)
25.05.2020 19:58 14,7 C 15,0 C 70 % 1034,6 hPa 0,0 l/m 7,9 km/h (2 Bft) N-NW 332 0 min 0,3 UV-I 64 W/m 9,3 C 13,8 C 12,9 km/h (3 Bft)
25.05.2020 20:00 14,6 C 15,0 C 71 % 1034,6 hPa 0,0 l/m 9,8 km/h (2 Bft) N-NO 13 0 min 0,5 UV-I 139 W/m 9,4 C 12,8 C 16,1 km/h (3 Bft)
25.05.2020 20:02 14,6 C 14,4 C 71 % 1034,6 hPa 0,0 l/m 9,1 km/h (2 Bft) N 360 0 min 0,5 UV-I 131 W/m 9,4 C 13,1 C 16,1 km/h (3 Bft)
25.05.2020 20:04 14,6 C 14,4 C 71 % 1034,6 hPa 0,0 l/m 7,3 km/h (2 Bft) N 360 0 min 0,5 UV-I 128 W/m 9,4 C 14,1 C 11,3 km/h (2 Bft)
25.05.2020 20:06 14,6 C 13,9 C 71 % 1034,6 hPa 0,0 l/m 7,1 km/h (2 Bft) N 350 0 min 0,0 UV-I 82 W/m 9,4 C 14,2 C 14,5 km/h (3 Bft)
25.05.2020 20:08 14,5 C 13,9 C 71 % 1034,5 hPa 0,0 l/m 7,3 km/h (2 Bft) N 10 0 min 0,0 UV-I 98 W/m 9,3 C 14,0 C 12,9 km/h (3 Bft)
25.05.2020 20:10 14,4 C 13,9 C 71 % 1034,5 hPa 0,0 l/m 7,5 km/h (2 Bft) N-NW 344 0 min 0,0 UV-I 48 W/m 9,2 C 13,8 C 14,5 km/h (3 Bft)
25.05.2020 20:12 14,3 C 13,3 C 71 % 1034,5 hPa 0,0 l/m 9,5 km/h (2 Bft) N 360 0 min 0,0 UV-I 32 W/m 9,1 C 12,6 C 14,5 km/h (3 Bft)
25.05.2020 20:14 14,3 C 13,3 C 71 % 1034,5 hPa 0,0 l/m 8,5 km/h (2 Bft) N-NO 14 0 min 0,0 UV-I 28 W/m 9,1 C 13,1 C 12,9 km/h (3 Bft)
25.05.2020 20:16 14,2 C 13,3 C 72 % 1034,5 hPa 0,0 l/m 8,8 km/h (2 Bft) N 360 0 min 0,0 UV-I 26 W/m 9,2 C 12,8 C 12,9 km/h (3 Bft)
25.05.2020 20:18 14,2 C 12,8 C 72 % 1034,5 hPa 0,0 l/m 8,0 km/h (2 Bft) N-NO 15 0 min 0,0 UV-I 25 W/m 9,2 C 13,3 C 12,9 km/h (3 Bft)
25.05.2020 20:20 14,1 C 12,8 C 72 % 1034,6 hPa 0,0 l/m 6,3 km/h (2 Bft) N-NW 339 0 min 0,0 UV-I 25 W/m 9,1 C 14,1 C 11,3 km/h (2 Bft)
25.05.2020 20:22 14,1 C 12,8 C 72 % 1034,5 hPa 0,0 l/m 5,7 km/h (1 Bft) N 355 0 min 0,0 UV-I 25 W/m 9,1 C 14,1 C 9,7 km/h (2 Bft)
25.05.2020 20:24 14,0 C 12,8 C 72 % 1034,6 hPa 0,0 l/m 4,2 km/h (1 Bft) N-NW 345 0 min 0,0 UV-I 26 W/m 9,0 C 14,0 C 6,4 km/h (2 Bft)
25.05.2020 20:26 13,9 C 12,2 C 72 % 1034,5 hPa 0,0 l/m 6,7 km/h (2 Bft) N 351 0 min 0,0 UV-I 28 W/m 8,9 C 13,7 C 9,7 km/h (2 Bft)
25.05.2020 20:28 13,8 C 12,2 C 73 % 1034,6 hPa 0,0 l/m 6,5 km/h (2 Bft) N 355 0 min 0,0 UV-I 30 W/m 9,0 C 13,8 C 8,0 km/h (2 Bft)
25.05.2020 20:30 13,8 C 12,2 C 72 % 1034,4 hPa 0,0 l/m 7,6 km/h (2 Bft) N 350 0 min 0,0 UV-I 31 W/m 8,8 C 13,1 C 9,7 km/h (2 Bft)
25.05.2020 20:32 13,8 C 12,2 C 72 % 1034,4 hPa 0,0 l/m 7,7 km/h (2 Bft) N-NO 12 0 min 0,0 UV-I 31 W/m 8,8 C 13,0 C 11,3 km/h (2 Bft)
25.05.2020 20:34 13,8 C 12,2 C 73 % 1034,4 hPa 0,0 l/m 5,5 km/h (1 Bft) N-NW 334 0 min 0,0 UV-I 31 W/m 9,0 C 13,8 C 9,7 km/h (2 Bft)
25.05.2020 20:36 13,7 C 12,2 C 73 % 1034,4 hPa 0,0 l/m 7,6 km/h (2 Bft) N 355 0 min 0,0 UV-I 28 W/m 8,9 C 13,0 C 14,5 km/h (3 Bft)
25.05.2020 20:38 13,7 C 12,2 C 73 % 1034,4 hPa 0,0 l/m 6,8 km/h (2 Bft) N 360 0 min 0,0 UV-I 27 W/m 8,9 C 13,5 C 12,9 km/h (3 Bft)
25.05.2020 20:40 13,6 C 12,2 C 73 % 1034,5 hPa 0,0 l/m 5,5 km/h (1 Bft) N 355 0 min 0,0 UV-I 26 W/m 8,9 C 13,6 C 8,0 km/h (2 Bft)
25.05.2020 20:42 13,6 C 12,2 C 73 % 1034,4 hPa 0,0 l/m 5,7 km/h (1 Bft) N-NW 347 0 min 0,0 UV-I 25 W/m 8,9 C 13,6 C 8,0 km/h (2 Bft)
25.05.2020 20:44 13,6 C 11,7 C 73 % 1034,6 hPa 0,0 l/m 6,2 km/h (2 Bft) N-NW 343 0 min 0,0 UV-I 25 W/m 8,9 C 13,6 C 12,9 km/h (3 Bft)
25.05.2020 20:46 13,5 C 11,7 C 73 % 1034,5 hPa 0,0 l/m 6,1 km/h (2 Bft) N-NW 348 0 min 0,0 UV-I 25 W/m 8,8 C 13,5 C 9,7 km/h (2 Bft)
25.05.2020 20:48 13,5 C 11,7 C 73 % 1034,5 hPa 0,0 l/m 3,1 km/h (1 Bft) N-NW 338 0 min 0,0 UV-I 25 W/m 8,8 C 13,5 C 4,8 km/h (1 Bft)
25.05.2020 20:50 13,5 C 11,7 C 73 % 1034,5 hPa 0,0 l/m 3,9 km/h (1 Bft) N-NW 331 0 min 0,0 UV-I 25 W/m 8,8 C 13,5 C 9,7 km/h (2 Bft)
25.05.2020 20:52 13,4 C 11,1 C 73 % 1034,7 hPa 0,0 l/m 3,2 km/h (1 Bft) NW 316 0 min 0,0 UV-I 23 W/m 8,7 C 13,4 C 4,8 km/h (1 Bft)
25.05.2020 20:54 13,3 C 11,1 C 74 % 1034,6 hPa 0,0 l/m 3,3 km/h (1 Bft) NW 310 0 min 0,0 UV-I 22 W/m 8,8 C 13,3 C 6,4 km/h (2 Bft)
25.05.2020 20:56 13,2 C 11,1 C 74 % 1034,6 hPa 0,0 l/m 2,3 km/h (1 Bft) N-NW 329 0 min 0,0 UV-I 21 W/m 8,7 C 13,2 C 6,4 km/h (2 Bft)
25.05.2020 20:58 13,2 C 10,6 C 74 % 1034,6 hPa 0,0 l/m 2,9 km/h (1 Bft) N-NW 346 0 min 0,0 UV-I 21 W/m 8,7 C 13,2 C 4,8 km/h (1 Bft)
25.05.2020 21:00 13,2 C 10,6 C 74 % 1034,8 hPa 0,0 l/m 3,4 km/h (1 Bft) N-NW 344 0 min 0,0 UV-I 19 W/m 8,7 C 13,2 C 6,4 km/h (2 Bft)
25.05.2020 21:02 13,2 C 10,6 C 74 % 1034,6 hPa 0,0 l/m 4,4 km/h (1 Bft) N-NW 339 0 min 0,0 UV-I 18 W/m 8,7 C 13,2 C 6,4 km/h (2 Bft)
25.05.2020 21:04 13,2 C 10,0 C 74 % 1034,7 hPa 0,0 l/m 2,4 km/h (1 Bft) N-NW 346 0 min 0,0 UV-I 18 W/m 8,7 C 13,2 C 6,4 km/h (2 Bft)
25.05.2020 21:06 13,2 C 10,0 C 74 % 1034,8 hPa 0,0 l/m 4,1 km/h (1 Bft) N-NW 348 0 min 0,0 UV-I 16 W/m 8,7 C 13,2 C 6,4 km/h (2 Bft)
25.05.2020 21:08 13,2 C 10,0 C 74 % 1034,8 hPa 0,0 l/m 2,7 km/h (1 Bft) N-NW 343 0 min 0,0 UV-I 14 W/m 8,7 C 13,2 C 6,4 km/h (2 Bft)
25.05.2020 21:10 13,1 C 10,0 C 74 % 1034,8 hPa 0,0 l/m 3,4 km/h (1 Bft) N-NW 343 0 min 0,0 UV-I 14 W/m 8,6 C 13,1 C 4,8 km/h (1 Bft)
25.05.2020 21:12 13,1 C 10,0 C 74 % 1034,8 hPa 0,0 l/m 3,8 km/h (1 Bft) N-NW 337 0 min 0,0 UV-I 12 W/m 8,6 C 13,1 C 6,4 km/h (2 Bft)
25.05.2020 21:14 13,1 C 10,0 C 74 % 1034,9 hPa 0,0 l/m 4,5 km/h (1 Bft) N-NW 348 0 min 0,0 UV-I 11 W/m 8,6 C 13,1 C 6,4 km/h (2 Bft)
25.05.2020 21:16 13,0 C 10,0 C 74 % 1034,8 hPa 0,0 l/m 4,2 km/h (1 Bft) N 355 0 min 0,0 UV-I 11 W/m 8,5 C 13,0 C 6,4 km/h (2 Bft)
25.05.2020 21:18 13,0 C 9,4 C 74 % 1034,9 hPa 0,0 l/m 3,2 km/h (1 Bft) N 355 0 min 0,0 UV-I 10 W/m 8,5 C 13,0 C 6,4 km/h (2 Bft)
25.05.2020 21:20 12,9 C 9,4 C 74 % 1034,9 hPa 0,0 l/m 3,5 km/h (1 Bft) N 355 0 min 0,0 UV-I 8 W/m 8,4 C 12,9 C 6,4 km/h (2 Bft)
25.05.2020 21:22 12,8 C 9,4 C 74 % 1035,0 hPa 0,0 l/m 3,5 km/h (1 Bft) N 355 0 min 0,0 UV-I 7 W/m 8,3 C 12,8 C 4,8 km/h (1 Bft)
25.05.2020 21:24 12,8 C 9,4 C 74 % 1034,9 hPa 0,0 l/m 3,5 km/h (1 Bft) N 355 0 min 0,0 UV-I 6 W/m 8,3 C 12,8 C 4,8 km/h (1 Bft)
25.05.2020 21:26 12,6 C 9,4 C 75 % 1035,0 hPa 0,0 l/m 2,8 km/h (1 Bft) N 355 0 min 0,0 UV-I 5 W/m 8,3 C 12,6 C 4,8 km/h (1 Bft)
25.05.2020 21:28 12,4 C 8,9 C 75 % 1035,0 hPa 0,0 l/m 2,5 km/h (1 Bft) N 355 0 min 0,0 UV-I 2 W/m 8,1 C 12,4 C 4,8 km/h (1 Bft)
25.05.2020 21:30 12,3 C 8,9 C 76 % 1035,0 hPa 0,0 l/m 3,1 km/h (1 Bft) N 355 0 min 0,0 UV-I 0 W/m 8,2 C 12,3 C 4,8 km/h (1 Bft)
25.05.2020 21:32 12,2 C 8,9 C 76 % 1035,0 hPa 0,0 l/m 2,6 km/h (1 Bft) N-NW 333 0 min 0,0 UV-I 0 W/m 8,1 C 12,2 C 4,8 km/h (1 Bft)
25.05.2020 21:34 12,1 C 8,9 C 77 % 1035,0 hPa 0,0 l/m 2,9 km/h (1 Bft) N-NW 333 0 min 0,0 UV-I 0 W/m 8,2 C 12,1 C 6,4 km/h (2 Bft)
25.05.2020 21:36 12,2 C 8,3 C 77 % 1035,1 hPa 0,0 l/m 2,8 km/h (1 Bft) N-NW 333 0 min 0,0 UV-I 0 W/m 8,3 C 12,2 C 4,8 km/h (1 Bft)
25.05.2020 21:38 12,3 C 8,3 C 76 % 1035,1 hPa 0,0 l/m 4,0 km/h (1 Bft) N 5 0 min 0,0 UV-I 0 W/m 8,2 C 12,3 C 6,4 km/h (2 Bft)
25.05.2020 21:40 12,3 C 8,3 C 76 % 1035,1 hPa 0,0 l/m 3,9 km/h (1 Bft) N 350 0 min 0,0 UV-I 0 W/m 8,2 C 12,3 C 8,0 km/h (2 Bft)
25.05.2020 21:42 12,3 C 8,3 C 76 % 1035,1 hPa 0,0 l/m 3,2 km/h (1 Bft) N 351 0 min 0,0 UV-I 0 W/m 8,2 C 12,3 C 4,8 km/h (1 Bft)
25.05.2020 21:44 12,3 C 8,3 C 76 % 1035,3 hPa 0,0 l/m 3,3 km/h (1 Bft) N 351 0 min 0,0 UV-I 0 W/m 8,2 C 12,3 C 4,8 km/h (1 Bft)
25.05.2020 21:46 12,3 C 8,9 C 76 % 1035,2 hPa 0,0 l/m 4,7 km/h (1 Bft) N-NW 345 0 min 0,0 UV-I 0 W/m 8,2 C 12,3 C 8,0 km/h (2 Bft)
25.05.2020 21:48 12,3 C 8,9 C 76 % 1035,3 hPa 0,0 l/m 3,5 km/h (1 Bft) N-NW 344 0 min 0,0 UV-I 0 W/m 8,2 C 12,3 C 6,4 km/h (2 Bft)
25.05.2020 21:50 12,3 C 8,9 C 76 % 1035,3 hPa 0,0 l/m 3,0 km/h (1 Bft) N-NW 337 0 min 0,0 UV-I 0 W/m 8,2 C 12,3 C 6,4 km/h (2 Bft)
25.05.2020 21:52 12,1 C 8,3 C 76 % 1035,2 hPa 0,0 l/m 2,2 km/h (1 Bft) N-NW 337 0 min 0,0 UV-I 0 W/m 8,0 C 12,1 C 4,8 km/h (1 Bft)
25.05.2020 21:54 12,0 C 8,3 C 77 % 1035,3 hPa 0,0 l/m 3,6 km/h (1 Bft) N-NW 340 0 min 0,0 UV-I 0 W/m 8,1 C 12,0 C 6,4 km/h (2 Bft)
25.05.2020 21:56 11,9 C 8,3 C 77 % 1035,3 hPa 0,0 l/m 4,0 km/h (1 Bft) N-NW 340 0 min 0,0 UV-I 0 W/m 8,0 C 11,9 C 6,4 km/h (2 Bft)
25.05.2020 21:58 11,9 C 7,8 C 77 % 1035,4 hPa 0,0 l/m 4,0 km/h (1 Bft) N-NW 340 0 min 0,0 UV-I 0 W/m 8,0 C 11,9 C 6,4 km/h (2 Bft)
25.05.2020 22:00 11,8 C 7,8 C 78 % 1035,3 hPa 0,0 l/m 3,7 km/h (1 Bft) N-NW 340 0 min 0,0 UV-I 0 W/m 8,1 C 11,8 C 6,4 km/h (2 Bft)
25.05.2020 22:02 11,7 C 7,8 C 78 % 1035,3 hPa 0,0 l/m 2,8 km/h (1 Bft) N-NW 340 0 min 0,0 UV-I 0 W/m 8,0 C 11,7 C 4,8 km/h (1 Bft)
25.05.2020 22:04 11,6 C 7,8 C 78 % 1035,4 hPa 0,0 l/m 2,2 km/h (1 Bft) N-NW 340 0 min 0,0 UV-I 0 W/m 7,9 C 11,6 C 4,8 km/h (1 Bft)
25.05.2020 22:06 11,4 C 7,2 C 79 % 1035,3 hPa 0,0 l/m 1,6 km/h (1 Bft) N-NW 340 0 min 0,0 UV-I 0 W/m 7,9 C 11,4 C 3,2 km/h (1 Bft)
25.05.2020 22:08 11,3 C 7,2 C 79 % 1035,4 hPa 0,0 l/m 2,4 km/h (1 Bft) N-NW 340 0 min 0,0 UV-I 0 W/m 7,8 C 11,3 C 4,8 km/h (1 Bft)
25.05.2020 22:10 11,2 C 7,2 C 79 % 1035,3 hPa 0,0 l/m 2,0 km/h (1 Bft) N-NW 340 0 min 0,0 UV-I 0 W/m 7,7 C 11,2 C 3,2 km/h (1 Bft)
25.05.2020 22:12 10,8 C 6,7 C 80 % 1035,4 hPa 0,0 l/m 0,7 km/h (0 Bft) N-NW 340 0 min 0,0 UV-I 0 W/m 7,5 C 10,8 C 3,2 km/h (1 Bft)
25.05.2020 22:14 10,5 C 6,7 C 81 % 1035,4 hPa 0,0 l/m 0,1 km/h (0 Bft) N-NW 340 0 min 0,0 UV-I 0 W/m 7,4 C 10,5 C 1,6 km/h (1 Bft)
25.05.2020 22:16 10,4 C 6,7 C 82 % 1035,4 hPa 0,0 l/m 0,7 km/h (0 Bft) N-NW 340 0 min 0,0 UV-I 0 W/m 7,5 C 10,4 C 3,2 km/h (1 Bft)
25.05.2020 22:18 10,3 C 6,7 C 82 % 1035,4 hPa 0,0 l/m 0,0 km/h (0 Bft) N-NW 340 0 min 0,0 UV-I 0 W/m 7,4 C 10,3 C 0,0 km/h (0 Bft)
25.05.2020 22:20 10,2 C 6,7 C 83 % 1035,5 hPa 0,0 l/m 1,3 km/h (1 Bft) N-NW 340 0 min 0,0 UV-I 0 W/m 7,4 C 10,2 C 3,2 km/h (1 Bft)
25.05.2020 22:22 10,2 C 6,7 C 83 % 1035,4 hPa 0,0 l/m 1,3 km/h (1 Bft) N-NW 340 0 min 0,0 UV-I 0 W/m 7,4 C 10,2 C 3,2 km/h (1 Bft)
25.05.2020 22:24 10,1 C 6,7 C 83 % 1035,4 hPa 0,0 l/m 0,0 km/h (0 Bft) N-NW 340 0 min 0,0 UV-I 0 W/m 7,3 C 10,1 C 0,0 km/h (0 Bft)
25.05.2020 22:26 10,0 C 6,1 C 84 % 1035,4 hPa 0,0 l/m 0,0 km/h (0 Bft) N-NW 340 0 min 0,0 UV-I 0 W/m 7,4 C 10,0 C 0,0 km/h (0 Bft)
25.05.2020 22:28 9,9 C 6,1 C 83 % 1035,4 hPa 0,0 l/m 0,2 km/h (0 Bft) N-NW 340 0 min 0,0 UV-I 0 W/m 7,2 C 9,9 C 1,6 km/h (1 Bft)
25.05.2020 22:30 9,8 C 6,7 C 84 % 1035,4 hPa 0,0 l/m 1,3 km/h (1 Bft) N-NW 340 0 min 0,0 UV-I 0 W/m 7,2 C 9,8 C 3,2 km/h (1 Bft)
25.05.2020 22:32 9,8 C 6,1 C 84 % 1035,4 hPa 0,0 l/m 0,2 km/h (0 Bft) N-NW 340 0 min 0,0 UV-I 0 W/m 7,2 C 9,8 C 1,6 km/h (1 Bft)
25.05.2020 22:34 9,7 C 6,1 C 84 % 1035,4 hPa 0,0 l/m 0,1 km/h (0 Bft) N-NW 340 0 min 0,0 UV-I 0 W/m 7,1 C 9,7 C 1,6 km/h (1 Bft)
25.05.2020 22:36 9,6 C 6,1 C 85 % 1035,4 hPa 0,0 l/m 0,0 km/h (0 Bft) N-NW 340 0 min 0,0 UV-I 0 W/m 7,2 C 9,6 C 0,0 km/h (0 Bft)
25.05.2020 22:38 9,5 C 5,6 C 85 % 1035,4 hPa 0,0 l/m 0,0 km/h (0 Bft) N-NW 340 0 min 0,0 UV-I 0 W/m 7,1 C 9,5 C 0,0 km/h (0 Bft)
25.05.2020 22:40 9,4 C 5,6 C 85 % 1035,4 hPa 0,0 l/m 0,0 km/h (0 Bft) N-NW 340 0 min 0,0 UV-I 0 W/m 7,0 C 9,4 C 0,0 km/h (0 Bft)
25.05.2020 22:42 9,3 C 5,6 C 85 % 1035,4 hPa 0,0 l/m 0,0 km/h (0 Bft) N-NW 340 0 min 0,0 UV-I 0 W/m 6,9 C 9,3 C 0,0 km/h (0 Bft)
25.05.2020 22:44 9,2 C 5,6 C 86 % 1035,5 hPa 0,0 l/m 0,0 km/h (0 Bft) N-NW 340 0 min 0,0 UV-I 0 W/m 7,0 C 9,2 C 0,0 km/h (0 Bft)
25.05.2020 22:46 9,1 C 5,6 C 86 % 1035,5 hPa 0,0 l/m 0,0 km/h (0 Bft) N-NW 340 0 min 0,0 UV-I 0 W/m 6,9 C 9,1 C 1,6 km/h (1 Bft)
25.05.2020 22:48 9,1 C 5,6 C 86 % 1035,6 hPa 0,0 l/m 0,7 km/h (0 Bft) N-NW 340 0 min 0,0 UV-I 0 W/m 6,9 C 9,1 C 3,2 km/h (1 Bft)
25.05.2020 22:50 8,9 C 5,6 C 86 % 1035,7 hPa 0,0 l/m 0,4 km/h (0 Bft) N-NW 340 0 min 0,0 UV-I 0 W/m 6,7 C 8,9 C 3,2 km/h (1 Bft)
25.05.2020 22:52 8,9 C 5,6 C 87 % 1035,6 hPa 0,0 l/m 0,1 km/h (0 Bft) N-NW 340 0 min 0,0 UV-I 0 W/m 6,9 C 8,9 C 1,6 km/h (1 Bft)
25.05.2020 22:54 8,9 C 5,6 C 87 % 1035,6 hPa 0,0 l/m 0,0 km/h (0 Bft) N-NW 340 0 min 0,0 UV-I 0 W/m 6,9 C 8,9 C 0,0 km/h (0 Bft)
25.05.2020 22:56 8,8 C 5,0 C 86 % 1035,6 hPa 0,0 l/m 0,2 km/h (0 Bft) N-NW 340 0 min 0,0 UV-I 0 W/m 6,6 C 8,8 C 1,6 km/h (1 Bft)
25.05.2020 22:58 8,8 C 5,0 C 87 % 1035,6 hPa 0,0 l/m 0,2 km/h (0 Bft) N-NW 340 0 min 0,0 UV-I 0 W/m 6,8 C 8,8 C 1,6 km/h (1 Bft)
25.05.2020 23:00 8,7 C 5,0 C 87 % 1035,6 hPa 0,0 l/m 0,0 km/h (0 Bft) N-NW 340 0 min 0,0 UV-I 0 W/m 6,7 C 8,7 C 0,0 km/h (0 Bft)
25.05.2020 23:02 8,6 C 5,6 C 87 % 1035,7 hPa 0,0 l/m 0,0 km/h (0 Bft) N-NW 340 0 min 0,0 UV-I 0 W/m 6,6 C 8,6 C 0,0 km/h (0 Bft)
25.05.2020 23:04 8,6 C 5,6 C 88 % 1035,6 hPa 0,0 l/m 0,0 km/h (0 Bft) N-NW 340 0 min 0,0 UV-I 0 W/m 6,7 C 8,6 C 0,0 km/h (0 Bft)
25.05.2020 23:06 8,7 C 5,6 C 88 % 1035,5 hPa 0,0 l/m 0,0 km/h (0 Bft) N-NW 340 0 min 0,0 UV-I 0 W/m 6,8 C 8,7 C 0,0 km/h (0 Bft)
25.05.2020 23:08 8,6 C 5,6 C 88 % 1035,5 hPa 0,0 l/m 0,0 km/h (0 Bft) N-NW 340 0 min 0,0 UV-I 0 W/m 6,7 C 8,6 C 1,6 km/h (1 Bft)
25.05.2020 23:10 8,6 C 5,0 C 88 % 1035,5 hPa 0,0 l/m 0,0 km/h (0 Bft) N-NW 340 0 min 0,0 UV-I 0 W/m 6,7 C 8,6 C 0,0 km/h (0 Bft)
25.05.2020 23:12 8,6 C 5,0 C 88 % 1035,6 hPa 0,0 l/m 0,0 km/h (0 Bft) N-NW 340 0 min 0,0 UV-I 0 W/m 6,7 C 8,6 C 0,0 km/h (0 Bft)
25.05.2020 23:14 8,4 C 5,0 C 88 % 1035,6 hPa 0,0 l/m 0,0 km/h (0 Bft) N-NW 340 0 min 0,0 UV-I 0 W/m 6,5 C 8,4 C 0,0 km/h (0 Bft)
25.05.2020 23:16 8,4 C 5,0 C 88 % 1035,5 hPa 0,0 l/m 0,0 km/h (0 Bft) N-NW 340 0 min 0,0 UV-I 0 W/m 6,5 C 8,4 C 0,0 km/h (0 Bft)
25.05.2020 23:18 8,3 C 5,0 C 88 % 1035,5 hPa 0,0 l/m 0,0 km/h (0 Bft) N-NW 340 0 min 0,0 UV-I 0 W/m 6,4 C 8,3 C 0,0 km/h (0 Bft)
25.05.2020 23:20 8,3 C 5,0 C 88 % 1035,5 hPa 0,0 l/m 0,0 km/h (0 Bft) N-NW 340 0 min 0,0 UV-I 0 W/m 6,4 C 8,3 C 0,0 km/h (0 Bft)
25.05.2020 23:22 8,3 C 5,0 C 89 % 1035,5 hPa 0,0 l/m 0,0 km/h (0 Bft) N-NW 340 0 min 0,0 UV-I 0 W/m 6,6 C 8,3 C 0,0 km/h (0 Bft)
25.05.2020 23:24 8,3 C 5,0 C 89 % 1035,5 hPa 0,0 l/m 0,1 km/h (0 Bft) N-NW 340 0 min 0,0 UV-I 0 W/m 6,6 C 8,3 C 1,6 km/h (1 Bft)
25.05.2020 23:26 8,3 C 5,0 C 89 % 1035,5 hPa 0,0 l/m 0,2 km/h (0 Bft) N-NW 340 0 min 0,0 UV-I 0 W/m 6,6 C 8,3 C 1,6 km/h (1 Bft)
25.05.2020 23:28 8,3 C 5,6 C 89 % 1035,6 hPa 0,0 l/m 0,5 km/h (0 Bft) N-NW 340 0 min 0,0 UV-I 0 W/m 6,6 C 8,3 C 1,6 km/h (1 Bft)
25.05.2020 23:30 8,2 C 5,0 C 88 % 1035,5 hPa 0,0 l/m 0,0 km/h (0 Bft) N-NW 340 0 min 0,0 UV-I 0 W/m 6,3 C 8,2 C 0,0 km/h (0 Bft)
25.05.2020 23:32 7,9 C 5,0 C 88 % 1035,5 hPa 0,0 l/m 0,9 km/h (0 Bft) N-NW 340 0 min 0,0 UV-I 0 W/m 6,0 C 7,9 C 3,2 km/h (1 Bft)
25.05.2020 23:34 7,8 C 5,0 C 89 % 1035,6 hPa 0,0 l/m 1,9 km/h (1 Bft) N-NW 340 0 min 0,0 UV-I 0 W/m 6,1 C 7,8 C 3,2 km/h (1 Bft)
25.05.2020 23:36 7,8 C 5,0 C 89 % 1035,5 hPa 0,0 l/m 0,9 km/h (0 Bft) N-NW 340 0 min 0,0 UV-I 0 W/m 6,1 C 7,8 C 3,2 km/h (1 Bft)
25.05.2020 23:38 7,8 C 5,0 C 90 % 1035,5 hPa 0,0 l/m 1,7 km/h (1 Bft) N-NW 340 0 min 0,0 UV-I 0 W/m 6,3 C 7,8 C 3,2 km/h (1 Bft)
25.05.2020 23:40 7,9 C 5,0 C 90 % 1035,5 hPa 0,0 l/m 0,1 km/h (0 Bft) N-NW 340 0 min 0,0 UV-I 0 W/m 6,4 C 7,9 C 1,6 km/h (1 Bft)
25.05.2020 23:42 7,8 C 5,0 C 89 % 1035,6 hPa 0,0 l/m 0,0 km/h (0 Bft) N-NW 340 0 min 0,0 UV-I 0 W/m 6,1 C 7,8 C 0,0 km/h (0 Bft)
25.05.2020 23:44 7,8 C 5,0 C 89 % 1035,6 hPa 0,0 l/m 0,0 km/h (0 Bft) N-NW 340 0 min 0,0 UV-I 0 W/m 6,1 C 7,8 C 0,0 km/h (0 Bft)
25.05.2020 23:46 7,8 C 4,4 C 90 % 1035,7 hPa 0,0 l/m 0,5 km/h (0 Bft) N-NW 340 0 min 0,0 UV-I 0 W/m 6,3 C 7,8 C 1,6 km/h (1 Bft)
25.05.2020 23:48 7,7 C 4,4 C 89 % 1035,6 hPa 0,0 l/m 1,2 km/h (1 Bft) N-NW 340 0 min 0,0 UV-I 0 W/m 6,0 C 7,7 C 1,6 km/h (1 Bft)
25.05.2020 23:50 7,6 C 4,4 C 89 % 1035,6 hPa 0,0 l/m 0,2 km/h (0 Bft) N-NW 340 0 min 0,0 UV-I 0 W/m 5,9 C 7,6 C 1,6 km/h (1 Bft)
25.05.2020 23:52 7,4 C 4,4 C 89 % 1035,6 hPa 0,0 l/m 0,0 km/h (0 Bft) N-NW 340 0 min 0,0 UV-I 0 W/m 5,7 C 7,4 C 0,0 km/h (0 Bft)
25.05.2020 23:54 7,4 C 4,4 C 90 % 1035,6 hPa 0,0 l/m 0,0 km/h (0 Bft) N-NW 340 0 min 0,0 UV-I 0 W/m 5,9 C 7,4 C 0,0 km/h (0 Bft)
25.05.2020 23:56 7,3 C 4,4 C 90 % 1035,7 hPa 0,0 l/m 0,0 km/h (0 Bft) N-NW 340 0 min 0,0 UV-I 0 W/m 5,8 C 7,3 C 0,0 km/h (0 Bft)
25.05.2020 23:58 7,3 C 4,4 C 90 % 1035,6 hPa 0,0 l/m 0,0 km/h (0 Bft) N-NW 340 0 min 0,0 UV-I 0 W/m 5,8 C 7,3 C 0,0 km/h (0 Bft)
25.05.2020 23:59 7,3 C 4,4 C 90 % 1035,5 hPa 0,0 l/m 0,0 km/h (0 Bft) N 0 0 min 0,0 UV-I 0 W/m 5,8 C 7,3 C 0,0 km/h (0 Bft)
_ Min-Zeit 23:56 23:46 18:04 00:57 - 01:22 - - - - - 23:52 23:56 01:27
Minimum _ 7,3 C 4,4 C 62 % 1033,6 hPa - 0,0 km/h (0 Bft) - - - - - 5,7 C 7,3 C 0,0 km/h (0 Bft)
_ Max-Zeit 18:00 16:46 01:35 22:50 00:00 12:51 - - 16:42 11:29 16:44 16:43 18:01 11:55
Maximum _ 17,1 C 23,9 C 92 % 1035,7 hPa 0,0 l/m 19,3 km/h
N (3 Bft)
- - 1 min 6,8 UV-I 914 W/m 11,0 C 17,1 C 25,7 km/h
NW (4 Bft)
Durchschnitt _ 12,5 C 12,7 C 80 % 1034,6 hPa #0,0 l/m 5,4 km/h (1 Bft) W - #6 min. 1,8 UV-I 190 W/m 9,1 C 11,9 C 9,1 km/h (2 Bft)